MPMG - Transparência

Contra-cheque - Remuneração de todos os servidores ativos - Pré Resolução CNMP 200/2019

Período: 2017 - Junho

Ordem Matrícula Nome Cargo Efetivo Situação Unidade Administrativa Rendimentos Descontos Rendimento Líquido Total Indenizações Outras Remunerações Retroativas/Temporárias Data de Referência
Remuneração Básica Remuneração Eventual ou Temporária Total de Rendimentos Brutos Obrigatórios/Legais Total de Descontos
Remuneração do Cargo Efetivo Outras Verbas Remuneratórias Função de Confiança ou Cargo em Comissão Gratificação Natalina Férias Abono de Permanência Contribuição Previdenciária Imposto de Renda Retenção por Teto Constitucional
1 498900 ABDON MARCIO BARBOSA DA SILVA OFICIAL DO MP ATIVO ABRE CAMPO - COMARCA; ABRE CAMPO-PJ-01PJ 4.245,74 424,57 0,00 1.986,60 0,00 0,00 6.656,91 555,83 183,37 0,00 739,20 5.917,71 1.589,67 446,46 30/06/2017
2 177800 ADALBERTO MENEZES FARIA SAMORA OFICIAL DO MP ATIVO BELO HORIZONTE - COMARCA; DIRET DE PLANOS PROJETOS E PROGRAMAS INST 11.105,40 3.331,62 0,00 7.218,51 0,00 0,00 21.655,53 1.729,71 2.812,10 0,00 4.541,81 17.113,72 1.583,00 2.204,92 30/06/2017
3 306400 ADALBERTO MOREIRA GONCALVES ANALISTA DO MP ATIVO BELO HORIZONTE - COMARCA; BH-24PJ JUIZO REGIONAL DO BARREIRO 12.225,81 2.445,16 0,00 7.335,49 0,00 0,00 22.006,46 1.762,01 2.721,36 0,00 4.483,37 17.523,09 884,00 1.347,14 30/06/2017
4 179300 ADENISE AUXILIADORA SOUZA SAD OFICIAL DO MP ATIVO BARBACENA - COMARCA; BARBACENA-PJ-06PJ 10.755,28 3.226,58 0,00 4.997,71 0,00 0,00 18.979,57 1.675,17 2.448,43 0,00 4.123,60 14.855,97 884,00 1.246,96 30/06/2017
5 77700 ADIL EXPEDITO DE OLIVEIRA JUNIOR ASSESSOR ATIVO BELO HORIZONTE - COMARCA; DIRET DE DESENV DE RECURSOS HUMANOS-DDRH 0,00 7.986,91 8.874,34 8.430,63 0,00 1.854,74 27.146,62 2.009,02 3.767,48 0,00 5.776,50 21.370,12 884,00 1.556,76 30/06/2017
6 272200 ADILSON BATISTA ORNELAS OFICIAL DO MP ATIVO LAVRAS - COMARCA; LAVRAS-PJ-SECRETARIA 4.383,93 876,79 0,00 2.630,36 0,00 0,00 7.891,08 629,48 289,36 0,00 918,84 6.972,24 884,00 461,88 30/06/2017
7 380100 ADILSON GONCALVES DE MELO JUNIOR ANALISTA DO MP ATIVO ARAXÁ - COMARCA; ARAXA-PJ-05PJ 8.594,48 859,45 0,00 4.726,97 0,00 0,00 14.180,90 1.131,23 1.340,22 0,00 2.471,45 11.709,45 1.583,00 962,23 30/06/2017
8 148800 ADILSON JANUARIO OFICIAL DO MP ATIVO BELO HORIZONTE - COMARCA; BH-22PJ PES COM DEF E IDOSOS-SECRETARIA 13.228,78 9.260,15 0,00 11.244,47 0,00 0,00 33.733,40 2.674,52 4.530,53 0,00 7.205,05 26.528,35 884,00 1.824,82 30/06/2017
9 322601 ADMILSON SILVEIRA ANALISTA DO MP ATIVO SAO JOAO DO PARAISO COMARCA; SAO JOAO DO PARAISO-PJ-UNPJ 6.753,72 0,00 0,00 3.376,86 0,00 0,00 10.130,58 796,73 783,61 0,00 1.580,34 8.550,24 884,00 489,28 30/06/2017
10 333700 ADRIANA ABRITTA TEIXEIRA OFICIAL DO MP ATIVO BELO HORIZONTE - COMARCA; DIRET DE PESSOAL DO MINISTERIO PUBLICO - DPMP 7.560,72 1.512,14 0,00 4.536,43 0,00 0,00 13.609,29 1.082,87 1.351,22 0,00 2.434,09 11.175,20 884,00 771,48 30/06/2017
11 468500 ADRIANA APARECIDA FIRMINO ANALISTA DO MP ATIVO CARATINGA - COMARCA; CARATINGA-PJ-04PJ 8.594,48 859,45 0,00 4.726,97 0,00 0,00 14.180,90 1.122,87 1.392,35 0,00 2.515,22 11.665,68 2.648,23 754,00 30/06/2017
12 326100 ADRIANA AUGUSTA AMARAL BELO OFICIAL DO MP ATIVO BARBACENA - COMARCA; BARBACENA-PJ-08PJ 7.560,72 1.512,14 0,00 4.536,43 0,00 0,00 13.609,29 1.082,87 1.246,95 0,00 2.329,82 11.279,47 884,00 771,48 30/06/2017
13 605700 ADRIANA COSTA LIRA ASSESSOR/OFICIAL ATIVO BELO HORIZONTE - COMARCA; SUPRIN DE FORMACAO E APERFEICOAMENTO-SFA/CEAF 0,00 418,42 6.973,61 3.696,02 0,00 0,00 11.088,05 517,90 1.031,60 0,00 1.549,50 9.538,55 884,00 349,64 30/06/2017
14 541100 ADRIANA CRISTINA DE OLIVEIRA OFICIAL DO MP ATIVO GUAPÉ - COMARCA; GUAPE-PJ-UNPJ 4.111,87 246,71 0,00 0,00 1.452,86 0,00 5.811,44 517,68 544,80 0,00 1.062,48 4.748,96 2.282,00 405,55 30/06/2017
15 254800 ADRIANA DAS GRACAS FERNANDES ANALISTA DO MP ATIVO UBERABA - COMARCA; UBERABA-PJ-07PJ 13.034,76 9.124,33 0,00 11.079,55 0,00 0,00 33.238,64 2.620,38 4.501,94 0,00 7.122,32 26.116,32 884,00 1.662,58 30/06/2017
16 217400 ADRIANA DE CARVALHO CATAO BRAGA ASSESSOR ATIVO BELO HORIZONTE - COMARCA; EXTINTA - DIRETORIA DE CONTRATOS E CONVÊNIOS 0,00 2.092,08 6.973,61 4.532,85 0,00 0,00 13.598,54 608,44 1.699,48 0,00 2.307,92 11.290,62 884,00 795,96 30/06/2017
17 434600 ADRIANA FERREIRA DA SILVA ANALISTA DO MP ATIVO BELO HORIZONTE - COMARCA; BH-14PJ DEFESA CONSUMIDOR-GAB 112PJ 9.163,30 916,33 0,00 5.039,82 0,00 0,00 15.119,45 1.207,65 1.597,63 0,00 2.805,28 12.314,17 884,00 898,95 30/06/2017
18 499800 ADRIANA FERREIRA TIAGO OFICIAL DO MP ATIVO SALINAS - COMARCA; SALINAS-PJ-02PJ 5.396,93 539,69 0,00 2.968,31 0,00 0,00 8.904,93 703,21 583,63 0,00 1.286,84 7.618,09 884,00 532,28 30/06/2017
19 543400 ADRIANA GUIMARAES NUNES DE PAULA ANALISTA DO MP ATIVO PATROCÍNIO - COMARCA; PATROCINIO-PJ-01PJ 6.973,61 418,42 0,00 3.696,02 0,00 0,00 11.088,05 877,98 939,84 0,00 1.817,82 9.270,23 884,00 589,56 30/06/2017
20 471500 ADRIANA HORTA DE CARVALHO RODRIGUES DE SOUSA ANALISTA DO MP ATIVO BELO HORIZONTE - COMARCA; GRUPO ESP PROM PROC JUST DEF PROB ADM PAT PUB 8.594,48 859,45 0,00 0,00 0,00 0,00 9.453,93 1.122,87 1.392,35 0,00 2.515,22 6.938,71 1.583,00 754,00 30/06/2017
21 86400 ADRIANA MOREIRA CALDEIRA BRANT OFICIAL DO MP ATIVO BELO HORIZONTE - COMARCA; EXTINTA-TUTELA DAS FUNDACOES-21 PJ- GABINETE 11.105,40 5.552,70 0,00 8.329,05 0,00 0,00 24.987,15 1.988,19 3.207,71 0,00 5.195,90 19.791,25 884,00 1.416,48 30/06/2017
22 480700 ADRIANA MOREIRA DE AVELLAR CEZILIO OFICIAL DO MP ATIVO BELO HORIZONTE - COMARCA; EXTINTA - DIVISAO DE MATERIAL DE CONSUMO 4.598,03 459,80 0,00 2.105,04 0,00 0,00 7.162,87 601,46 291,39 0,00 892,85 6.270,02 1.583,00 410,06 30/06/2017
23 326000 ADRIANA PEREIRA CARNEIRO RESENDE OFICIAL DO MP ATIVO BELO HORIZONTE - COMARCA; BH-17PJ PATRIMONIO PUBLICO-SECRETARIA 7.200,69 1.440,14 0,00 4.320,42 0,00 0,00 12.961,25 1.031,33 1.193,35 0,00 2.224,68 10.736,57 884,00 734,74 30/06/2017
24 502200 ADRIANA PETRUCCI DAVINA OFICIAL DO MP ATIVO PATROCÍNIO - COMARCA; PATROCINIO-PJ-01PJ 5.572,67 557,27 0,00 3.064,97 0,00 0,00 9.194,91 749,78 630,94 0,00 1.380,72 7.814,19 884,00 766,51 30/06/2017
25 201900 ADRIANA REIS PIMENTA OFICIAL DO MP ATIVO TEÓFILO OTONI - COMARCA; TEOFILO OTONI-PJ-03PJ 10.755,28 3.226,58 0,00 6.990,93 0,00 0,00 20.972,79 1.675,17 2.552,70 0,00 4.227,87 16.744,92 884,00 1.246,96 30/06/2017
26 278700 ADRIANA RODRIGUES PINTO COELHO AMARAL ANALISTA DO MP ATIVO BELO HORIZONTE - COMARCA; ASSESS TECNICA DA CORREGEDORIA-GERAL DO MP 12.623,91 2.524,78 0,00 7.574,35 0,00 0,00 22.723,04 1.808,06 2.786,14 0,00 4.594,20 18.128,84 884,00 1.502,79 30/06/2017
27 468000 ADRIANA SANTOS DE SANTANA MOREIRA ANALISTA DO MP ATIVO ARAÇUAÍ - COMARCA; ARACUAI-PJ-01PJ 8.594,48 2.578,34 0,00 5.586,41 0,00 0,00 16.759,23 1.327,03 1.760,91 0,00 3.087,94 13.671,29 1.583,00 891,10 30/06/2017
28 194700 ADRIANA TSUKIDE OFICIAL DO MP ATIVO UBERABA - COMARCA; COORD REG BACIAS PARANAIBA BAIXO RIO GRANDE 10.755,28 3.226,58 0,00 0,00 0,00 0,00 13.981,86 1.675,17 2.500,56 0,00 4.175,73 9.806,13 884,00 1.246,96 30/06/2017
29 206400 ADRIANE MENDES DE SOUZA ANALISTA DO MP ATIVO BELO HORIZONTE - COMARCA; BH-23PJ CIVEL-FISC AC POL PUB II 16.063,25 11.244,28 0,00 13.653,77 0,00 0,00 40.961,30 3.210,95 5.762,02 0,00 8.972,97 31.988,33 884,00 1.882,92 30/06/2017
30 465500 ADRIANO CASSIANO MATOS ANALISTA DO MP ATIVO ARAXÁ - COMARCA; ARAXA-PJ-02PJ 8.594,48 859,45 0,00 4.726,97 0,00 0,00 14.180,90 1.122,87 1.444,49 0,00 2.567,36 11.613,54 884,00 754,00 30/06/2017
31 500500 ADRIANO DE ALMEIDA SILVA OFICIAL DO MP ATIVO UBERABA - COMARCA; UBERABA-PJ-12PJ 5.572,67 557,27 0,00 3.064,97 0,00 0,00 9.194,91 749,78 630,94 0,00 1.380,72 7.814,19 884,00 694,09 30/06/2017
32 187200 ADRIANO DE FREITAS MARON OFICIAL DO MP ATIVO PONTE NOVA - COMARCA; PONTE NOVA-PJ-03PJ 9.163,30 7.330,64 0,00 8.246,97 0,00 0,00 24.740,91 2.042,84 3.167,53 0,00 5.210,37 19.530,54 884,00 2.105,39 30/06/2017
33 477900 ADRIANO FERREIRA DE ALMEIDA OFICIAL DO MP ATIVO MONTES CLAROS - COMARCA; MONTES CLAROS-PJ-04PJ 5.572,67 557,27 0,00 3.064,97 0,00 0,00 9.194,91 734,43 526,67 0,00 1.261,10 7.933,81 1.478,48 546,69 30/06/2017
34 269101 ADRIANO PEREIRA SILVA ANALISTA DO MP ATIVO UBERABA - COMARCA; UBERABA-PJ-02PJ 8.594,48 859,45 0,00 4.726,97 0,00 0,00 14.180,90 1.122,87 1.288,08 0,00 2.410,95 11.769,95 2.282,00 754,00 30/06/2017
35 414200 ADRIANO RODRIGUES FERNANDES ANALISTA DO MP ATIVO CARANDAÍ - COMARCA; CARANDAI-PJ-UNPJ 8.061,11 806,11 0,00 4.433,61 0,00 0,00 13.300,83 1.053,19 1.144,48 0,00 2.197,67 11.103,16 884,00 707,18 30/06/2017
36 536700 ADRIELLE COSTA MARIA OFICIAL DO MP ATIVO BELO HORIZONTE - COMARCA; BH-02PJ FAMILIA-SECRETARIA 4.111,87 246,71 0,00 1.821,23 0,00 0,00 6.179,81 517,68 236,68 0,00 754,36 5.425,45 884,00 347,62 30/06/2017
37 514300 ADRIENE DAMASCENO BRAGA ANALISTA DO MP ATIVO ALFENAS - COMARCA; ALFENAS-PJ-03PJ 7.806,95 780,70 0,00 4.293,83 0,00 0,00 12.881,48 1.022,04 1.232,47 0,00 2.254,51 10.626,97 1.784,05 815,35 30/06/2017
38 254600 ADRIENE DOMINGUES COSTA ANALISTA DO MP ATIVO BELO HORIZONTE - COMARCA; PROC. JUSTICA DIR. DIFUSOS E COLETIVOS-SEC 11.105,40 2.221,08 0,00 6.663,24 0,00 0,00 19.989,72 1.590,57 2.392,30 0,00 3.982,87 16.006,85 0,00 1.313,05 30/06/2017
39 252001 ADRIENE GOMES BARRETO ANALISTA DO MP ATIVO BELO HORIZONTE - COMARCA; BH-19PJ SAUDE-SECRETARIA 150PJ 10.416,20 4.166,48 0,00 7.291,34 0,00 0,00 21.874,02 1.732,03 2.699,75 0,00 4.431,78 17.442,24 884,00 1.163,02 30/06/2017
40 645000 AFONSO CELSO GUIMARAES JUNIOR OFICIAL DO MP ATIVO PIRAPORA - COMARCA; PIRAPORA-PJ-01PJ 3.182,15 0,00 0,00 1.591,08 0,00 0,00 4.773,23 380,78 70,02 0,00 450,80 4.322,43 884,00 279,40 30/06/2017
41 118100 AGENOR ALCIR RODRIGUES DA SILVA OFICIAL DO MP ATIVO SÃO JOÃO NEPOMUCENO - COMARCA; SAO JOAO NEPOMUCENO-PJ-01PJ 13.752,51 11.002,00 0,00 12.377,26 0,00 0,00 37.131,77 2.952,96 5.189,31 0,00 8.142,27 28.989,50 884,00 2.090,66 30/06/2017
42 302500 AGENOR JOSE DA SILVA JUNIOR ANALISTA DO MP ATIVO JUIZ DE FORA - COMARCA; JUIZ DE FORA-PJ-07PJ 12.225,81 2.445,16 0,00 7.335,49 0,00 0,00 22.006,46 1.762,01 2.564,95 0,00 4.326,96 17.679,50 895,80 1.347,14 30/06/2017
43 357500 AILSON WAGNER DE ALENCAR SILVA OFICIAL DO MP ATIVO BELO HORIZONTE - COMARCA; OUVIDORIA DO MPMG 7.322,31 2.196,69 0,00 3.583,95 0,00 0,00 13.102,95 1.131,87 1.304,00 0,00 2.435,87 10.667,08 884,00 770,88 30/06/2017
44 366400 AILTON ALEXSSANDRO ALVES OFICIAL DO MP ATIVO PARÁ DE MINAS - COMARCA; PARA DE MINAS-PJ-05PJ 6.973,61 2.092,08 0,00 0,00 0,00 0,00 9.065,69 1.076,77 1.349,47 0,00 2.426,24 6.639,45 884,00 723,04 30/06/2017
45 318900 AILTON DE CASTRO RIBEIRO JUNIOR OFICIAL DO MP ATIVO ITAJUBA - COMARCA; ITAJUBA-PJ-01PJ 7.560,72 1.512,14 0,00 3.466,08 0,00 0,00 12.538,94 1.078,85 1.142,67 0,00 2.221,52 10.317,42 1.583,00 30.447,93 30/06/2017
46 464400 ALAN MONTEIRO GASPAR ANALISTA DO MP ATIVO SETE LAGOAS - COMARCA; SETE LAGOAS-PJ-03PJ 8.594,48 859,45 0,00 3.484,75 0,00 0,00 12.938,68 1.122,87 1.444,49 0,00 2.567,36 10.371,32 884,00 754,00 30/06/2017
47 492000 ALANA DE CASTRO FREITAS OFICIAL DO MP ATIVO ITUMIRIM - COMARCA; ITUMIRIM-PJ-UNPJ 5.061,97 506,20 0,00 0,00 0,00 0,00 5.568,17 658,08 493,45 0,00 1.151,53 4.416,64 884,00 414,44 30/06/2017
48 306700 ALANA MARCIA DE OLIVEIRA OFICIAL DO MP ATIVO BELO HORIZONTE - COMARCA; DIRETORIA DE ADMINISTRACAO FINANCEIRA 7.200,69 1.440,14 0,00 4.320,42 0,00 0,00 12.961,25 1.035,26 1.245,48 0,00 2.280,74 10.680,51 884,00 770,63 30/06/2017
49 324500 ALANMAR COUTINHO COSTA OFICIAL DO MP ATIVO LEOPOLDINA - COMARCA; LEOPOLDINA-PJ-02PJ 6.973,61 1.394,72 0,00 4.184,17 0,00 0,00 12.552,50 995,10 738,76 0,00 1.733,86 10.818,64 884,00 677,94 30/06/2017
50 508200 ALBERTO DA SILVA VIEIRA ASSESSOR ATIVO BELO HORIZONTE - COMARCA; ASSESS TECNICA DA CORREGEDORIA-GERAL DO MP 0,00 0,00 9.769,61 4.884,81 0,00 0,00 14.654,42 608,44 1.840,92 0,00 2.449,36 12.205,06 884,00 857,78 30/06/2017
51 407300 ALBERTO LUIZ SOARES DE OLIVEIRA ANALISTA DO MP ATIVO BELO HORIZONTE - COMARCA; DIRETORIA DE PROJETOS DE EDIFICACOES 9.163,30 916,33 0,00 0,00 0,00 0,00 10.079,63 1.207,65 1.597,63 0,00 2.805,28 7.274,35 884,00 898,95 30/06/2017
52 118200 ALBERTO PEREIRA DA COSTA OFICIAL DO MP ATIVO DORES DO INDAIÁ - COMARCA; DORES DO INDAIA-PJ-UNPJ 12.225,81 9.780,64 0,00 11.003,23 0,00 0,00 33.009,68 2.642,99 4.412,44 0,00 7.055,43 25.954,25 884,00 2.020,70 30/06/2017
53 282400 ALCILENE MARISE DE ARAUJO ANALISTA DO MP ATIVO BELO HORIZONTE - COMARCA; BH-23PJ INF-FISC MED SOC FEC 12.623,91 2.524,78 0,00 7.574,35 0,00 0,00 22.723,04 1.808,06 2.734,01 0,00 4.542,07 18.180,97 2.071,45 1.343,65 30/06/2017
54 112600 ALCIONE DA MOTA JARDIM OFICIAL DO MP ATIVO BELO HORIZONTE - COMARCA; CAO-CRIANCAS E ADOLESCENTES 10.087,71 5.043,85 0,00 7.565,78 0,00 0,00 22.697,34 1.797,23 2.781,95 0,00 4.579,18 18.118,16 884,00 1.206,82 30/06/2017
55 396400 ALCIONE DE FREITAS E SILVA ANALISTA DO MP ATIVO BELO HORIZONTE - COMARCA; ASSESS JUR DO CONS SUPERIOR DO MINISTERIO PUB 10.416,20 3.124,86 0,00 4.803,36 0,00 0,00 18.344,42 1.608,32 2.444,81 0,00 4.053,13 14.291,29 884,00 1.079,94 30/06/2017
56 161600 ALCIONE NERY SOUZA ASSESSOR ATIVO BELO HORIZONTE - COMARCA; ASSESS TECNICO-JUR JUNTO AS PROC. DE JUST 0,00 2.789,44 6.973,61 4.881,53 136,06 0,00 14.780,64 608,44 1.928,67 0,00 2.537,11 12.243,53 884,00 857,20 30/06/2017
57 376000 ALDA GOMES LANA OFICIAL DO MP ATIVO BELO HORIZONTE - COMARCA; BH-18PJ VIOLENCIA DOMESTICA-SECRETARIA 6.540,78 654,08 0,00 3.597,43 0,00 0,00 10.792,29 862,02 787,31 0,00 1.649,33 9.142,96 1.064,77 641,66 30/06/2017
58 148000 ALDA MARTINS SIMOES OFICIAL DO MP ATIVO BELO HORIZONTE - COMARCA; BH-23PJ CIVEL- FISC ENT AB POL 12.623,91 5.049,56 0,00 8.836,74 0,00 0,00 26.510,21 2.109,40 3.456,22 0,00 5.565,62 20.944,59 1.583,00 1.502,80 30/06/2017
59 318400 ALDO CREPALDI JUNIOR OFICIAL DO MP ATIVO BELO HORIZONTE - COMARCA; EXTINTA - DIVISAO DE MATERIAL DE CONSUMO 7.200,69 1.440,14 0,00 3.248,49 0,00 0,00 11.889,32 1.031,33 1.193,35 0,00 2.224,68 9.664,64 884,00 734,74 30/06/2017
60 604500 ALENIZE APARECIDA RODRIGUES HENRIQUE OFICIAL DO MP ATIVO RIO NOVO - COMARCA; RIO NOVO-PJ-UNPJ 3.735,01 224,10 0,00 1.674,94 0,00 0,00 5.634,05 470,44 173,74 0,00 644,18 4.989,87 884,00 317,60 30/06/2017
61 197900 ALESSA DE SOUSA E SILVA OFICIAL DO MP ATIVO OLIVEIRA - COMARCA; OLIVEIRA-PJ-02PJ 11.105,40 3.331,62 0,00 7.218,51 0,00 0,00 21.655,53 1.729,71 2.559,83 0,00 4.289,54 17.365,99 1.016,00 1.287,56 30/06/2017
62 428500 ALESSANDRA ALVES DINIZ OFICIAL DO MP ATIVO BELO HORIZONTE - COMARCA; CENTRAL DE APOIO TECNICO-SECRETARIA 4.747,79 1.899,12 0,00 0,00 0,00 0,00 6.646,91 795,36 757,47 0,00 1.552,83 5.094,08 884,00 583,60 30/06/2017
63 286801 ALESSANDRA BOTELHO JUNQUEIRA DE MENEZES ANALISTA DO MP ATIVO PASSOS - COMARCA; PASSOS-PJ-05PJ 9.461,59 2.838,48 0,00 6.150,04 0,00 0,00 18.450,11 1.473,68 1.984,67 0,00 3.458,35 14.991,76 4.742,01 1.322,47 30/06/2017
64 307000 ALESSANDRA CRISTINA SANTOS MENDES ANALISTA DO MP ATIVO BELO HORIZONTE - COMARCA; BH-18PJ VIOLENCIA DOMESTICA 8.874,34 1.774,87 0,00 3.896,45 0,00 0,00 14.545,66 1.275,87 1.684,90 0,00 2.960,77 11.584,89 884,00 949,75 30/06/2017
65 264400 ALESSANDRA DE SOUZA SANTOS ANALISTA DO MP ATIVO BELO HORIZONTE - COMARCA; ASSESS TECNICA DA CORREGEDORIA-GERAL DO MP 13.034,76 5.213,90 0,00 9.124,33 0,00 0,00 27.372,99 2.165,85 3.597,00 0,00 5.762,85 21.610,14 884,00 1.440,90 30/06/2017
66 441500 ALESSANDRA DRUMMOND DE FIGUEIREDO ROSSI ANALISTA DO MP ATIVO BELO HORIZONTE - COMARCA; DIRETORIA DE PROJETOS DE EDIFICACOES 8.061,11 806,11 0,00 4.433,61 0,00 0,00 13.300,83 1.058,33 1.300,89 0,00 2.359,22 10.941,61 884,00 754,00 30/06/2017
67 524000 ALESSANDRA LUCIOLI DE BARROS GUERRA ANALISTA DO MP ATIVO BELO HORIZONTE - COMARCA; BH-19PJ SAUDE--SECRETARIA 7.806,95 780,70 0,00 4.293,83 0,00 0,00 12.881,48 1.022,04 1.076,06 0,00 2.098,10 10.783,38 1.225,11 820,94 30/06/2017
68 479900 ALESSANDRA MARA ANDRADE DE FARIA OFICIAL DO MP ATIVO UBERABA - COMARCA; UBERABA-PJ-09PJ 5.572,67 557,27 0,00 3.064,97 0,00 0,00 9.194,91 734,43 630,94 0,00 1.365,37 7.829,54 884,00 546,69 30/06/2017
69 226700 ALESSANDRA MARA VASCONCELOS REZENDE OFICIAL DO MP ATIVO CONSELHEIRO LAFAIETE - COMARCA; CONSELHEIRO LAFAIETE-PJ-07PJ 7.560,72 2.268,22 0,00 4.914,47 0,00 0,00 14.743,41 1.177,60 1.536,27 0,00 2.713,87 12.029,54 884,00 876,58 30/06/2017
70 112100 ALESSANDRA MARCIA FERREIRA OFICIAL DO MP ATIVO BELO HORIZONTE - COMARCA; BELO HORIZONTE- SECRETARIA DAS PROMOTORIAS 8.594,48 4.297,24 0,00 6.445,86 0,00 0,00 19.337,58 1.542,59 2.233,75 0,00 3.776,34 15.561,24 884,00 1.131,90 30/06/2017
71 196500 ALESSANDRA MARIA RIBEIRO LUCIANO OFICIAL DO MP ATIVO RIO PARANAÍBA - COMARCA; RIO PARANAIBA-PJ-UNPJ 11.105,40 4.442,16 0,00 7.773,78 0,00 0,00 23.321,34 1.855,65 2.883,77 0,00 4.739,42 18.581,92 1.583,00 1.542,38 30/06/2017
72 91400 ALESSANDRA MENDES VASCONCELOS DE SOUZA OFICIAL DO MP ATIVO BELO HORIZONTE - COMARCA; BH-23PJ INF-FISC MED SOC AB 15.451,48 10.816,04 0,00 13.133,76 0,00 0,00 39.401,28 3.124,17 5.559,61 0,00 8.683,78 30.717,50 884,00 2.133,98 30/06/2017
73 651700 ALESSANDRA PROFIRIO SOUZA OFICIAL DO MP ATIVO NOVA ERA - COMARCA; NOVA ERA-PJ-UNPJ 3.182,15 0,00 0,00 1.591,08 0,00 0,00 4.773,23 350,04 55,39 0,00 405,43 4.367,80 884,00 0,00 30/06/2017
74 384900 ALESSANDRA RODRIGUES ANALISTA DO MP ATIVO VISCONDE DO RIO BRANCO - COMARCA; VISCONDE DO RIO BRANCO-PJ-03PJ 10.416,20 1.041,62 0,00 5.728,91 0,00 0,00 17.186,73 1.360,88 1.778,53 0,00 3.139,41 14.047,32 1.583,00 913,80 30/06/2017
75 390000 ALESSANDRA SPADANO MASSARA VASCONCELOS OFICIAL DO MP ATIVO BETIM - COMARCA; BETIM-PJ-10PJ 6.540,78 654,08 0,00 3.597,43 0,00 0,00 10.792,29 858,73 891,58 0,00 1.750,31 9.041,98 884,00 708,91 30/06/2017
76 426500 ALESSANDRO CAMPOS DE PAIVA COORDENADOR/ANALISTA ATIVO BELO HORIZONTE - COMARCA; DIRETORIA DE PUBLICIDADE INSTITUCIONAL 9.461,59 3.239,56 0,00 6.350,58 0,00 0,00 19.051,73 1.242,19 2.308,62 0,00 3.550,81 15.500,92 884,00 1.107,48 30/06/2017
77 623400 ALESSANDRO DE OLIVEIRA REZENDE ANALISTA DO MP ATIVO BELO HORIZONTE - COMARCA; DIVISAO DE MEMORIA INSTITUCIONAL 6.134,81 0,00 0,00 3.067,41 2.044,94 0,00 11.247,16 728,65 2.172,06 0,00 2.900,71 8.346,45 884,00 4.044,06 30/06/2017
78 420600 ALESSANDRO SILVA OFICIAL DO MP ATIVO VISCONDE DO RIO BRANCO - COMARCA; VISCONDE DO RIO BRANCO-PJ-02PJ 6.134,81 1.840,44 0,00 3.987,63 0,00 0,00 11.962,88 955,53 625,50 0,00 1.581,03 10.381,85 884,00 711,27 30/06/2017
79 375301 ALETHEIA PATRICIA ASSIS MORAIS MOREIRA ANALISTA DO MP ATIVO ITABIRA - COMARCA; ITABIRA-PJ-02PJ 7.560,72 453,64 0,00 4.007,18 0,00 0,00 12.021,54 952,98 1.040,02 0,00 1.993,00 10.028,54 1.583,00 649,02 30/06/2017
80 382300 ALEX CARVALHO LIMA ANALISTA DO MP ATIVO UBERLÂNDIA - COMARCA; UBERLANDIA-PJ-14PJ 10.416,20 1.041,62 0,00 0,00 0,00 0,00 11.457,82 1.360,88 1.780,34 0,00 3.141,22 8.316,60 1.147,70 913,80 30/06/2017
81 195201 ALEX DE CASTRO PEREIRA ANALISTA DO MP ATIVO UBERABA - COMARCA; UBERABA-PJ-09PJ 12.623,91 3.787,17 0,00 8.205,54 0,00 0,00 24.616,62 1.958,72 3.147,25 0,00 5.105,97 19.510,65 884,00 1.395,44 30/06/2017
82 358900 ALEX DE PAULA LANZA ASSESSOR ATIVO BELO HORIZONTE - COMARCA; DIRETORIA DE IMPRENSA 0,00 0,00 6.973,61 3.486,81 0,00 0,00 10.460,42 608,44 1.124,16 0,00 1.732,60 8.727,82 884,00 612,28 30/06/2017
83 178400 ALEX RODRIGO SALDANHA GUIMARAES OFICIAL DO MP ATIVO BELO HORIZONTE - COMARCA; DIRETORIA DE SISTEMAS DE INFORMACAO 5.226,73 1.568,02 0,00 3.397,38 0,00 0,00 10.192,13 813,04 793,66 0,00 1.606,70 8.585,43 884,00 596,58 30/06/2017
84 289200 ALEX SANDRO PEREIRA DE MATOS OFICIAL DO MP ATIVO BELO HORIZONTE - COMARCA; BH-12PJ JUIZO CRIMINAL-SECRETARIA 5.226,73 1.045,35 0,00 0,00 0,00 0,00 6.272,08 750,51 665,73 0,00 1.416,24 4.855,84 1.202,83 763,58 30/06/2017
85 413500 ALEX VILELA OLIVEIRA ANALISTA DO MP ATIVO GOVERNADOR VALADARES - COMARCA; COORD REG PJ DEF EDU DIR CRIANCA ADOL RIODOCE 9.461,59 946,16 0,00 0,00 0,00 0,00 10.407,75 1.246,96 1.677,94 0,00 2.924,90 7.482,85 884,00 928,21 30/06/2017
86 264300 ALEXANDRA FATIMA SARAIVA SOARES ANALISTA DO MP ATIVO BELO HORIZONTE - COMARCA; CENTRAL DE APOIO TECN-SETOR DE MEIO AMBIENTE 13.034,76 2.606,95 0,00 7.820,86 0,00 0,00 23.462,57 1.866,89 2.958,95 0,00 4.825,84 18.636,73 884,00 1.330,06 30/06/2017
87 488000 ALEXANDRA LARA PAIS DE CARVALHO ANALISTA DO MP ATIVO GUANHÃES - COMARCA; GUANHAES-PJ-SECRETARIA 7.200,69 720,07 0,00 0,00 2.640,25 0,00 10.561,01 945,38 1.638,90 0,00 2.584,28 7.976,73 2.282,00 785,76 30/06/2017
88 256300 ALEXANDRA SANTOS GOMES OFICIAL DO MP ATIVO BELO HORIZONTE - COMARCA; EXTINTA - DIVISÃO DE COMPRAS 7.322,31 1.464,46 0,00 4.393,39 0,00 0,00 13.180,16 1.054,69 1.281,20 0,00 2.335,89 10.844,27 884,00 801,44 30/06/2017
89 403300 ALEXANDRE AUGUSTO RODRIGUES ANALISTA DO MP ATIVO ÁGUAS FORMOSAS - COMARCA; AGUAS FORMOSAS-PJ-UNPJ 8.594,48 859,45 0,00 4.726,97 0,00 0,00 14.180,90 1.125,57 1.444,49 0,00 2.570,06 11.610,84 884,00 778,54 30/06/2017
90 640900 ALEXANDRE BARBOSA MASCARENHAS ANALISTA DO MP ATIVO BETIM - COMARCA; BETIM-PJ-01PJ 5.061,97 0,00 0,00 2.530,99 0,00 0,00 7.592,96 604,16 249,56 0,00 853,72 6.739,24 1.583,00 502,16 30/06/2017
91 311700 ALEXANDRE BARCELOS RESENDE OFICIAL DO MP ATIVO BELO HORIZONTE - COMARCA; BH-07PJ 03 TRIBUNAL DO JURI-GAB 109PJ 5.754,07 575,41 0,00 3.164,74 0,00 0,00 9.494,22 755,44 679,78 0,00 1.435,22 8.059,00 884,00 538,20 30/06/2017
92 285600 ALEXANDRE CAMPOS DE OLIVEIRA OFICIAL DO MP ATIVO UBERABA - COMARCA; COORD REG BACIAS PARANAIBA BAIXO RIO GRANDE 7.806,95 1.561,39 0,00 4.684,17 0,00 0,00 14.052,51 1.118,14 1.267,13 0,00 2.385,27 11.667,24 1.583,00 929,37 30/06/2017
93 509200 ALEXANDRE CAPUANO DE REZENDE ANALISTA DO MP ATIVO BELO HORIZONTE - COMARCA; GABINETE DE PROCURADOR DE JUSTIÇA - SALA 715 7.806,95 780,70 0,00 4.293,83 0,00 0,00 12.881,48 1.022,04 1.180,33 0,00 2.202,37 10.679,11 884,00 815,35 30/06/2017
94 229400 ALEXANDRE CARLOS BOTREL DIRETOR/OFICIAL ATIVO BELO HORIZONTE - COMARCA; SUPERINTENDENCIA DOS ORGAOS COLEGIADOS 0,00 4.458,91 14.863,02 9.660,97 0,00 0,00 28.982,90 1.476,15 4.071,14 0,00 5.547,29 23.435,61 884,00 1.696,48 30/06/2017
95 411900 ALEXANDRE CARVALHO SANTOS RIBEIRO ANALISTA DO MP ATIVO OLIVEIRA - COMARCA; OLIVEIRA-PJ-02PJ 9.461,59 946,16 0,00 5.203,88 0,00 0,00 15.611,63 1.242,21 1.677,94 0,00 2.920,15 12.691,48 1.583,00 885,00 30/06/2017
96 641600 ALEXANDRE DA SILVA ASSUNCAO OFICIAL DO MP ATIVO BELO HORIZONTE - COMARCA; SERVICO MEDICO-DEPTO PERIC MEDICA SAUDE OCUP 3.285,74 0,00 0,00 1.642,87 0,00 0,00 4.928,61 392,17 83,85 0,00 476,02 4.452,59 884,00 325,97 30/06/2017
97 201200 ALEXANDRE DE ALENCAR CORDEIRO OFICIAL DO MP ATIVO ÁGUAS FORMOSAS - COMARCA; AGUAS FORMOSAS-PJ-UNPJ 5.226,73 2.090,69 0,00 3.658,71 0,00 0,00 10.976,13 875,58 921,58 0,00 1.797,16 9.178,97 884,00 642,48 30/06/2017
98 288200 ALEXANDRE DE VASCONCELOS COSTA KER ANALISTA DO MP ATIVO BELO HORIZONTE - COMARCA; BH-03PJ EMPRESARIAL-SECRETARIA 12.225,81 2.445,16 0,00 7.335,49 0,00 0,00 22.006,46 1.762,01 2.669,22 0,00 4.431,23 17.575,23 884,00 1.366,81 30/06/2017
99 445000 ALEXANDRE DIOGENES OLIVEIRA ANALISTA DO MP ATIVO SALINAS - COMARCA; SALINAS-PJ-02PJ 8.594,48 859,45 0,00 4.726,97 0,00 0,00 14.180,90 1.131,23 1.444,49 0,00 2.575,72 11.605,18 884,00 830,06 30/06/2017
100 463400 ALEXANDRE LEAL WINKELSTROTER ANALISTA DO MP ATIVO TEÓFILO OTONI - COMARCA; TEOFILO OTONI-PJ-04PJ 7.806,95 780,70 0,00 4.293,83 0,00 0,00 12.881,48 1.021,14 1.180,33 0,00 2.201,47 10.680,01 884,00 695,44 30/06/2017
101 615700 ALEXANDRE LUIZ DE CASTRO MACIEL ANALISTA DO MP ATIVO IBIRITÉ - COMARCA; IBIRITE-PJ-02PJ 6.134,81 368,09 0,00 3.251,45 0,00 0,00 9.754,35 777,29 722,22 0,00 1.499,51 8.254,84 884,00 571,55 30/06/2017
102 356900 ALEXANDRE MOISES MENDONCA E ARAUJO OFICIAL DO MP ATIVO UBERABA - COMARCA; UBERABA-PJ-13PJ 5.396,93 1.079,39 0,00 3.238,16 0,00 0,00 9.714,48 767,92 715,72 0,00 1.483,64 8.230,84 884,00 504,80 30/06/2017
103 633300 ALEXANDRE NONATO MARTINS OFICIAL DO MP ATIVO IGARAPÉ - COMARCA; IGARAPE-PJ-02PJ 3.617,27 0,00 0,00 1.808,64 0,00 0,00 5.425,91 429,64 99,67 0,00 529,31 4.896,60 884,00 288,48 30/06/2017
104 469900 ALEXANDRE PEREIRA GUEDES ANALISTA DO MP ATIVO CATAGUASES - COMARCA; CATAGUASES-PJ-03PJ 8.594,48 859,45 0,00 4.726,97 0,00 0,00 14.180,90 1.122,87 1.444,49 0,00 2.567,36 11.613,54 884,00 873,68 30/06/2017
105 208700 ALEXANDRE RESENDE FRAGA ANALISTA DO MP ATIVO BELO HORIZONTE - COMARCA; BH-19PJ SAUDE 16.063,25 4.818,98 0,00 10.441,12 0,00 0,00 31.323,35 2.498,73 4.085,15 0,00 6.583,88 24.739,47 1.583,00 1.833,46 30/06/2017
106 216401 ALEXANDRE RIBEIRO DE LIMA MAIORINO ANALISTA DO MP ATIVO UBERABA - COMARCA; UBERABA-PJ-03PJ 12.225,81 3.667,74 0,00 7.946,78 0,00 0,00 23.840,33 1.908,83 2.968,45 0,00 4.877,28 18.963,05 884,00 1.681,90 30/06/2017
107 475100 ALEXANDRE TEOTONIO COSTA ANALISTA DO MP ATIVO ARAGUARI - COMARCA; ARAGUARI-PJ-01PJ 8.594,48 859,45 0,00 4.726,97 0,00 0,00 14.180,90 1.122,87 1.340,22 0,00 2.463,09 11.717,81 1.583,00 754,00 30/06/2017
108 339000 ALEXANDRE VITOR CARDOSO OFICIAL DO MP ATIVO BELO HORIZONTE - COMARCA; EXTINTA - PROTOCOLO DA PGJ 5.226,73 1.045,35 0,00 3.136,04 0,00 0,00 9.408,12 750,51 509,32 0,00 1.259,83 8.148,29 884,00 603,63 30/06/2017
109 623100 ALEXSANDER BATISTA AGUIAR ANALISTA DO MP ATIVO BELO HORIZONTE - COMARCA; DIRETORIA DE SUPORTE E MANUTENCAO 6.134,81 0,00 0,00 3.067,41 2.044,94 0,00 11.247,16 728,65 1.090,22 0,00 1.818,87 9.428,29 1.606,29 682,96 30/06/2017
110 513300 ALFSON MIRANDA BRAGA ANALISTA DO MP ATIVO BELO HORIZONTE - COMARCA; BH-12PJ JUIZO CRIMINAL-GAB 092PJ 7.806,95 780,70 0,00 4.293,83 2.862,55 0,00 15.744,03 1.022,04 2.019,67 0,00 3.041,71 12.702,32 1.085,05 703,66 30/06/2017
111 618400 ALICE MAGALHAES MACEDO DE CARVALHO ANALISTA DO MP ATIVO AÇUCENA - COMARCA; ACUCENA-PJ-UNPJ 6.134,81 0,00 0,00 3.067,41 0,00 0,00 9.202,22 728,65 632,13 0,00 1.360,78 7.841,44 884,00 566,94 30/06/2017
112 471000 ALICE TITONELI MOREIRA ANALISTA DO MP ATIVO MIRADOURO - COMARCA; MIRADOURO-PJ-UNPJ 8.594,48 859,45 0,00 4.726,97 0,00 0,00 14.180,90 1.122,87 1.392,35 0,00 2.515,22 11.665,68 1.583,00 754,00 30/06/2017
113 622400 ALINE BALBINO PORTUGAL LOPES ANALISTA DO MP ATIVO TRÊS PONTAS - COMARCA; TRES PONTAS-PJ-03PJ 6.134,81 0,00 0,00 3.067,41 0,00 0,00 9.202,22 728,65 632,13 0,00 1.360,78 7.841,44 1.023,79 489,28 30/06/2017
114 373000 ALINE BOTELHO RESENDE OFICIAL DO MP ATIVO PASSA QUATRO - COMARCA; PASSA QUATRO-PJ-SECRETARIA 6.334,59 633,46 0,00 3.484,03 0,00 0,00 10.452,08 834,85 836,07 0,00 1.670,92 8.781,16 884,00 624,67 30/06/2017
115 407700 ALINE CRISTINA RODRIGUES PEREIRA ANALISTA DO MP ATIVO BELO HORIZONTE - COMARCA; DIRETORIA DE PROJETOS DE EDIFICACOES 8.594,48 859,45 0,00 4.726,97 0,00 0,00 14.180,90 1.117,73 1.560,35 0,00 2.678,08 11.502,82 1.795,16 1.128,48 30/06/2017
116 193100 ALINE CRISTINA SENA OLIVEIRA OFICIAL DO MP ATIVO UBERLÂNDIA - COMARCA; UBERLANDIA-PJ-03PJ 10.755,28 3.226,58 0,00 7.607,71 0,00 0,00 21.589,57 1.668,78 2.839,79 0,00 4.508,57 17.081,00 884,00 2.530,76 30/06/2017
117 554200 ALINE CRISTINA SILVA SOUZA OFICIAL DO MP ATIVO TIROS - COMARCA; TIROS-PJ-UNPJ 4.111,87 246,71 0,00 1.821,23 0,00 0,00 6.179,81 520,20 236,68 0,00 756,88 5.422,93 2.627,43 563,15 30/06/2017
118 505500 ALINE DA CUNHA MARREIROS OLIVEIRA ANALISTA DO MP ATIVO CARANGOLA - COMARCA; CARANGOLA-PJ-03PJ 7.806,95 780,70 0,00 4.293,83 0,00 0,00 12.881,48 1.022,04 1.180,33 0,00 2.202,37 10.679,11 2.025,70 703,66 30/06/2017
119 433500 ALINE DE MELO QUEIROZ OFICIAL DO MP ATIVO BELO HORIZONTE - COMARCA; ASSESSORIA TECNICA DO PROCON-MG 6.334,59 633,46 0,00 3.484,03 0,00 0,00 10.452,08 827,63 836,07 0,00 1.663,70 8.788,38 884,00 1.356,19 30/06/2017
120 542700 ALINE DE SOUSA ALBINO ANALISTA DO MP ATIVO CARMO DO PARANAÍBA - COMARCA; CARMO DO PARANAIBA-PJ-01PJ 6.973,61 418,42 0,00 3.696,02 0,00 0,00 11.088,05 877,98 939,84 0,00 1.817,82 9.270,23 884,00 592,66 30/06/2017
121 330000 ALINE DIORIO MAYRINK OFICIAL DO MP ATIVO BELO HORIZONTE - COMARCA; ASSESS EXECUTIVA DO CONSELHO SUPERIOR DO MP 5.572,67 557,27 0,00 3.064,97 0,00 0,00 9.194,91 733,49 630,94 0,00 1.364,43 7.830,48 884,00 623,63 30/06/2017
122 499000 ALINE FERREIRA LOPES ANALISTA DO MP ATIVO TEÓFILO OTONI - COMARCA; COORD. DE DEF. DO PAT. PUBLICO-JEQUIT./MUCURI 7.806,95 780,70 0,00 3.205,27 2.862,55 0,00 14.655,47 1.022,04 2.019,67 0,00 3.041,71 11.613,76 1.583,00 820,94 30/06/2017
123 405300 ALINE LAIA CARDOZO COORDENADOR/ANALISTA ATIVO BELO HORIZONTE - COMARCA; EXTINTA - DIRETORIA SERVIÇOS GERAIS E TRANS 10.416,20 3.335,02 0,00 6.875,61 0,00 0,00 20.626,83 1.360,88 2.565,63 0,00 3.926,51 16.700,32 884,00 913,80 30/06/2017
124 278200 ALINE MARCIA FARIA BARBOSA OFICIAL DO MP ATIVO BARBACENA - COMARCA; BARBACENA-PJ-SECRETARIA 5.396,93 1.079,39 0,00 3.238,16 0,00 0,00 9.714,48 772,98 559,31 0,00 1.332,29 8.382,19 884,00 550,68 30/06/2017
125 389000 ALINE NERI NOBRE ANALISTA DO MP ATIVO MONTES CLAROS - COMARCA; COORD REG PJ DEF EDUC DIR CRIANCA ADOL NORTE 10.416,20 3.124,86 0,00 6.770,53 0,00 0,00 20.311,59 1.626,30 2.444,81 0,00 4.071,11 16.240,48 884,00 1.243,38 30/06/2017
126 294600 ALINE PATRICIA SILVA VIEIRA OFICIAL DO MP ATIVO UBERLÂNDIA - COMARCA; UBERLANDIA-PJ-03PJ 7.806,95 1.561,39 0,00 5.300,95 0,00 0,00 14.669,29 1.118,14 1.658,50 0,00 2.776,64 11.892,65 1.583,00 2.138,46 30/06/2017
127 420000 ALINE RODRIGUES CAMOROPIN ANALISTA DO MP ATIVO SABARÁ - COMARCA; SABARA-PJ-02PJ 9.461,59 946,16 0,00 5.203,88 0,00 0,00 15.611,63 1.242,21 1.677,94 0,00 2.920,15 12.691,48 884,00 885,00 30/06/2017
128 408300 ALINE SILVA ARAUJO DE PAULA ANALISTA DO MP ATIVO SÃO SEBASTIÃO DO PARAÍSO - COMARCA; SAO SEBASTIAO DO PARAISO-PJ-02PJ 9.461,59 946,16 0,00 5.203,88 0,00 0,00 15.611,63 1.246,96 1.677,94 0,00 2.924,90 12.686,73 1.583,00 928,21 30/06/2017
129 425400 ALINE TRINDADE DE FREITAS CAMPOS OFICIAL DO MP ATIVO BELO HORIZONTE - COMARCA; BH-14PJ DEFESA CONSUMIDOR-SECRETARIA 6.334,59 633,46 0,00 2.682,74 0,00 0,00 9.650,79 836,88 836,07 0,00 1.672,95 7.977,84 884,00 737,38 30/06/2017
130 517200 ALISSOM PEREIRA DA SILVA ANALISTA DO MP ATIVO BORDA DA MATA - COMARCA; BORDA DA MATA-PJ-UNPJ 7.806,95 780,70 0,00 4.293,83 0,00 0,00 12.881,48 1.022,04 1.232,47 0,00 2.254,51 10.626,97 884,00 703,66 30/06/2017
131 442400 ALISSON LABRE ANALISTA DO MP ATIVO VARGINHA - COMARCA; VARGINHA-PJ-02PJ 8.594,48 859,45 0,00 4.726,97 3.151,31 0,00 17.332,21 1.131,23 2.311,10 0,00 3.442,33 13.889,88 2.282,00 830,06 30/06/2017
132 643800 ALLAN PAUL FONSECA DE CASTRO OFICIAL DO MP ATIVO CONTAGEM - COMARCA; CONTAGEM-PJ-06PJ 3.617,27 0,00 0,00 1.808,64 1.205,76 0,00 6.631,67 428,64 359,52 0,00 788,16 5.843,51 1.583,00 279,40 30/06/2017
133 612900 ALLAN VINICIUS VIEIRA ARAUJO OFICIAL DO MP ATIVO BELO HORIZONTE - COMARCA; BH-09PJ AUDITORIA MILITAR-SECRETARIA 4.111,87 246,71 0,00 2.179,29 0,00 0,00 6.537,87 517,90 236,68 0,00 754,58 5.783,29 884,00 354,98 30/06/2017
134 349000 ALLEC RODRIGUES VIEIRA ASSESSOR/OFICIAL ATIVO BELO HORIZONTE - COMARCA; COORD DE INCLUSAO E MOBILIZACAO SOCIAIS 0,00 1.774,87 8.874,34 5.324,61 0,00 0,00 15.973,82 1.274,25 1.737,04 0,00 3.011,29 12.962,53 884,00 935,00 30/06/2017
135 297300 ALLYSON SALIBA MONTEIRO LAIZO ANALISTA DO MP ATIVO CONSELHEIRO LAFAIETE - COMARCA; CONSELHEIRO LAFAIETE-PJ-03PJ 13.228,78 2.645,76 0,00 7.937,27 0,00 0,00 23.811,81 1.887,90 3.015,93 0,00 4.903,83 18.907,98 1.583,00 1.288,10 30/06/2017
136 303700 ALMIR LOPES LOURES ANALISTA DO MP ATIVO BELO HORIZONTE - COMARCA; CENTRAL DE APOIO TECN-SETOR DE MEIO AMBIENTE 13.228,78 2.645,76 0,00 0,00 0,00 0,00 15.874,54 1.905,33 2.963,80 0,00 4.869,13 11.005,41 884,00 1.678,91 30/06/2017
137 515900 ALTAIR NEVES JUNIOR OFICIAL DO MP ATIVO BELO HORIZONTE - COMARCA; BH-03PJ EMPRESARIAL-SECRETARIA 5.396,93 539,69 0,00 0,00 0,00 0,00 5.936,62 703,21 583,63 0,00 1.286,84 4.649,78 884,00 456,24 30/06/2017
138 233300 ALVARINDO BATISTA COORDENADOR/ANALISTA ATIVO BELO HORIZONTE - COMARCA; DIVISAO DE MULTIMIDIA 16.063,25 6.836,54 0,00 11.449,90 0,00 0,00 34.349,69 2.462,75 4.744,26 0,00 7.207,01 27.142,68 1.583,00 1.683,48 30/06/2017
139 274100 ALYSSON CARVALHO VIDAL DE LACERDA OFICIAL DO MP ATIVO MANHUAÇU - COMARCA; MANHUACU-PJ-01PJ 8.061,11 1.612,22 0,00 0,00 0,00 0,00 9.673,33 1.154,55 1.498,19 0,00 2.652,74 7.020,59 884,00 822,56 30/06/2017
140 621000 AMANDA BASTOS ALVES ANALISTA DO MP ATIVO BELO HORIZONTE - COMARCA; ASSESS TECNICO-JUR JUNTO AS PROC. DE JUST 6.134,81 0,00 0,00 3.067,41 0,00 0,00 9.202,22 723,71 632,13 0,00 1.355,84 7.846,38 884,00 518,51 30/06/2017
141 521700 AMANDA CRISTINA AGUIAR MACHADO OFICIAL DO MP ATIVO CONGONHAS - COMARCA; CONGONHAS-PJ-01PJ 4.245,74 424,57 0,00 2.335,16 0,00 0,00 7.005,47 555,83 256,44 0,00 812,27 6.193,20 884,00 382,68 30/06/2017
142 613400 AMANDA DE ASSIS IUNES SANTOS ANALISTA DO MP ATIVO CONGONHAS - COMARCA; CONGONHAS-PJ-01PJ 6.334,59 380,08 0,00 3.357,34 0,00 0,00 10.072,01 797,36 774,06 0,00 1.571,42 8.500,59 1.583,00 541,59 30/06/2017
143 520800 AMANDA DE SOUZA MACHADO ANALISTA DO MP ATIVO BAEPENDI - COMARCA; BAEPENDI-PJ-UNPJ 7.806,95 780,70 0,00 4.293,83 0,00 0,00 12.881,48 1.022,04 1.128,19 0,00 2.150,23 10.731,25 884,00 703,66 30/06/2017
144 543100 AMANDA VIEIRA FREITAS BRESSANE ANALISTA DO MP ATIVO PARAGUAÇU - COMARCA; PARAGUACU-PJ-UNPJ 6.973,61 418,42 0,00 2.819,54 0,00 0,00 10.211,57 872,04 939,84 0,00 1.811,88 8.399,69 884,00 535,52 30/06/2017
145 434400 AMARILIS ASSIS SIMAO CURCIO ANALISTA DO MP ATIVO MANHUAÇU - COMARCA; MANHUACU-PJ-01PJ 8.594,48 859,45 0,00 4.726,97 3.151,31 0,00 17.332,21 1.131,23 2.311,10 0,00 3.442,33 13.889,88 1.583,00 830,06 30/06/2017
146 652000 AMAURI SILVA ALVES OFICIAL DO MP ATIVO BELO HORIZONTE - COMARCA; BH-23PJ INFRACIONAL-SEC EXP 3.182,15 0,00 0,00 1.591,08 0,00 0,00 4.773,23 350,04 70,02 0,00 420,06 4.353,17 884,00 0,00 30/06/2017
147 273700 AMBROLINA CARNEIRO DE VASCONCELOS OFICIAL DO MP ATIVO FRUTAL - COMARCA; FRUTAL-PJ-01PJ 8.061,11 4.030,55 0,00 6.045,83 0,00 0,00 18.137,49 1.452,21 2.037,94 0,00 3.490,15 14.647,34 884,00 1.110,29 30/06/2017
148 58000 AMELIA GUARIZE DE CASTRO OFICIAL DO MP ATIVO JUIZ DE FORA - COMARCA; JUIZ DE FORA-PJ-SECRETARIA 5.754,07 5.754,08 0,00 5.754,08 0,00 1.329,19 18.591,42 1.434,79 2.453,62 0,00 3.888,41 14.703,01 884,00 1.640,89 30/06/2017
149 324301 AMERICA SUELI FERREIRA DA SILVA ANALISTA DO MP ATIVO MONTE CARMELO - COMARCA; MONTE CARMELO-PJ-02PJ 8.594,48 859,45 0,00 4.726,97 0,00 0,00 14.180,90 1.122,87 1.392,35 0,00 2.515,22 11.665,68 1.583,00 754,00 30/06/2017
150 273300 AMUJACY DE BRITO ASSIZ OFICIAL DO MP ATIVO BELO HORIZONTE - COMARCA; BH-12PJ JUIZO CRIMINAL-SECRETARIA 7.806,95 1.561,39 0,00 4.684,17 0,00 0,00 14.052,51 1.122,42 1.214,99 0,00 2.337,41 11.715,10 1.583,00 835,52 30/06/2017
151 482200 ANA ALICE LOPES ACHTSCHIN ANALISTA DO MP ATIVO BELO HORIZONTE - COMARCA; PROC JUST RECURSOS ESP E EXTRAORD CRIMINAIS 8.594,48 859,45 0,00 4.726,97 0,00 0,00 14.180,90 1.122,87 1.444,49 0,00 2.567,36 11.613,54 884,00 754,00 30/06/2017
152 490400 ANA AMELIA PAULINO GARCIA OFICIAL DO MP ATIVO CONTAGEM - COMARCA; CONTAGEM-PJ-13PJ 5.572,67 557,27 0,00 2.412,35 0,00 0,00 8.542,29 749,78 630,94 0,00 1.380,72 7.161,57 884,00 770,13 30/06/2017
153 279100 ANA CAROLINA ARAUJO PEREIRA ANALISTA DO MP ATIVO BELO HORIZONTE - COMARCA; DIRETORIA DE PROJETOS DE EDIFICACOES 13.228,78 2.645,76 0,00 5.582,27 5.291,51 0,00 26.748,32 1.887,90 4.418,96 0,00 6.306,86 20.441,46 1.583,00 1.288,10 30/06/2017
154 653300 ANA CAROLINA CYRNE DINIZ ASSESSOR ATIVO BELO HORIZONTE - COMARCA; CENTRAL DE APOIO TECNICO-SETOR CONTABIL 0,00 0,00 6.973,61 2.324,54 0,00 0,00 9.298,15 608,44 1.124,16 0,00 1.732,60 7.565,55 884,00 0,00 30/06/2017
155 359400 ANA CAROLINA DE ABREU FARIA ASSESSOR ATIVO BELO HORIZONTE - COMARCA; DIVISAO DE CONTROLE IMOBILIARIO 0,00 0,00 6.973,61 3.486,81 0,00 0,00 10.460,42 608,44 1.124,16 0,00 1.732,60 8.727,82 1.153,41 612,28 30/06/2017
156 408500 ANA CAROLINA DE CASTRO CARVALHO ANALISTA DO MP ATIVO BARBACENA - COMARCA; BARBACENA-PJ-SECRETARIA 9.461,59 946,16 0,00 5.203,88 0,00 0,00 15.611,63 1.246,96 1.677,94 0,00 2.924,90 12.686,73 884,00 928,21 30/06/2017
157 420200 ANA CAROLINA FERNANDES SILVA ANALISTA DO MP ATIVO BELO HORIZONTE - COMARCA; GABINETE DE PROCURADOR DE JUSTIÇA - SALA 708 9.163,30 916,33 0,00 0,00 0,00 0,00 10.079,63 1.214,93 1.597,63 0,00 2.812,56 7.267,07 884,00 1.101,47 30/06/2017
158 522100 ANA CAROLINA FERNANDINO VIDAL PEREIRA SANTOS OFICIAL DO MP ATIVO BELO HORIZONTE - COMARCA; SECRETARIA DO PROCON-MG 5.396,93 539,69 0,00 0,00 0,00 0,00 5.936,62 703,21 583,63 0,00 1.286,84 4.649,78 884,00 456,24 30/06/2017
159 502400 ANA CAROLINA GONCALVES FERNANDES ANALISTA DO MP ATIVO GRAO MOGOL - COMARCA; GRAO MOGOL-PJ-UNPJ 7.806,95 780,70 0,00 3.205,27 0,00 0,00 11.792,92 1.022,04 1.232,47 0,00 2.254,51 9.538,41 1.225,11 703,66 30/06/2017
160 529900 ANA CAROLINA GONCALVES PECANHA CHEQUER ANALISTA DO MP ATIVO MANHUAÇU - COMARCA; MANHUACU-PJ-04PJ 6.973,61 418,42 0,00 2.819,54 0,00 0,00 10.211,57 877,98 939,84 0,00 1.817,82 8.393,75 884,00 589,56 30/06/2017
161 431900 ANA CAROLINA MOTTA GUATIMOSIM ANALISTA DO MP ATIVO BELO HORIZONTE - COMARCA; GABINETE DE PROCURADOR DE JUSTIÇA - SALA 1006 9.163,30 916,33 0,00 5.039,82 0,00 0,00 15.119,45 1.214,93 1.597,63 0,00 2.812,56 12.306,89 884,00 1.101,47 30/06/2017
162 490600 ANA CAROLINA XAVIER GODOY ANALISTA DO MP ATIVO BELO HORIZONTE - COMARCA; BH-18PJ VIOLENCIA DOMESTICA 7.806,95 780,70 0,00 3.205,27 0,00 0,00 11.792,92 1.022,04 1.232,47 0,00 2.254,51 9.538,41 884,00 703,66 30/06/2017
163 600300 ANA CAROLINE PEREIRA DINIZ ANALISTA DO MP ATIVO BELO HORIZONTE - COMARCA; COMB CRIMES PRAT POR AG POL MUN-SECRETARIA 6.334,59 380,08 0,00 3.357,34 0,00 0,00 10.072,01 797,87 774,06 0,00 1.571,93 8.500,08 1.583,00 624,14 30/06/2017
164 615800 ANA CAROLINE PEREIRA OLIVEIRA OFICIAL DO MP ATIVO ALFENAS - COMARCA; ALFENAS-PJ-06PJ 3.982,20 238,93 0,00 2.110,57 1.407,04 0,00 7.738,74 504,54 550,70 0,00 1.055,24 6.683,50 884,00 365,66 30/06/2017
165 324800 ANA CECILIA MENDES DA SILVA OFICIAL DO MP ATIVO OURO FINO - COMARCA; OURO FINO-PJ-01PJ 7.560,72 2.268,22 0,00 4.914,47 0,00 0,00 14.743,41 1.173,12 1.484,14 0,00 2.657,26 12.086,15 1.583,00 835,76 30/06/2017
166 441300 ANA CLAUDIA ALKIMIM MIRANDA BOMTEMPO ANALISTA DO MP ATIVO MONTES CLAROS - COMARCA; MONTES CLAROS-PJ-11PJ 9.163,30 916,33 0,00 5.039,82 0,00 0,00 15.119,45 1.214,93 1.493,35 0,00 2.708,28 12.411,17 1.583,00 969,71 30/06/2017
167 642500 ANA CLAUDIA DA COSTA NAVES OFICIAL DO MP ATIVO MONTE CARMELO - COMARCA; MONTE CARMELO-PJ-02PJ 3.285,74 0,00 0,00 1.642,87 0,00 0,00 4.928,61 392,17 83,85 0,00 476,02 4.452,59 884,00 279,40 30/06/2017
168 604900 ANA CLAUDIA OLIVEIRA DE MIRANDA OFICIAL DO MP ATIVO PONTE NOVA - COMARCA; PONTE NOVA-PJ-04PJ 3.735,01 0,00 0,00 1.867,51 0,00 0,00 5.602,52 442,59 115,39 0,00 557,98 5.044,54 884,00 288,48 30/06/2017
169 379300 ANA CRISTINA ALVES FLAVIO ANALISTA DO MP ATIVO SÃO GOTARDO - COMARCA; SAO GOTARDO-PJ-01PJ 10.416,20 1.041,62 0,00 5.728,91 0,00 0,00 17.186,73 1.360,88 1.882,80 0,00 3.243,68 13.943,05 1.661,43 913,80 30/06/2017
170 461200 ANA CRISTINA ALVES PASCHOAL ANALISTA DO MP ATIVO SANTA LUZIA - COMARCA; SANTA LUZIA-PJ-03PJ 8.594,48 859,45 0,00 4.726,97 0,00 0,00 14.180,90 1.122,87 1.444,49 0,00 2.567,36 11.613,54 884,00 879,67 30/06/2017
171 514100 ANA CRISTINA ARAUJO ASSUNCAO ANALISTA DO MP ATIVO BELO HORIZONTE - COMARCA; ASSESS JUR DO CONS SUPERIOR DO MINISTERIO PUB 7.806,95 780,70 0,00 0,00 0,00 0,00 8.587,65 1.022,04 1.180,33 0,00 2.202,37 6.385,28 1.583,00 820,94 30/06/2017
172 113400 ANA CRISTINA BRAGA ALBUQUERQUE ASSESSOR/ANALISTA ATIVO BELO HORIZONTE - COMARCA; ASSESS ESP ADM E FINANCEIRA DO PGJ ADJ ADM 25.682,27 12.841,14 0,00 15.235,56 0,00 0,00 53.758,97 3.351,82 6.588,44 8.052,30 17.992,56 35.766,41 5.759,38 446,91 30/06/2017
173 233800 ANA CRISTINA BRAGA SOARES RIOS OFICIAL DO MP ATIVO CONTAGEM - COMARCA; CONTAGEM-PJ-SECRETARIA 7.806,95 2.342,09 0,00 5.074,52 0,00 0,00 15.223,56 1.208,29 1.614,62 0,00 2.822,91 12.400,65 884,00 835,52 30/06/2017
174 186400 ANA CRISTINA DE AZEVEDO LOPES OFICIAL DO MP ATIVO UBÁ - COMARCA; UBA-PJ-01PJ 10.755,28 3.226,58 0,00 4.971,65 0,00 0,00 18.953,51 1.675,17 2.500,56 0,00 4.175,73 14.777,78 884,00 1.246,96 30/06/2017
175 465100 ANA CRISTINA DE OLIVEIRA GUIMARAES ANALISTA DO MP ATIVO BRASÓPOLIS - COMARCA; BRASOPOLIS-PJ-UNPJ 8.594,48 859,45 0,00 4.726,97 0,00 0,00 14.180,90 1.122,87 1.392,35 0,00 2.515,22 11.665,68 1.944,92 873,68 30/06/2017
176 500600 ANA CRISTINA LATADO SUDARIO ANALISTA DO MP ATIVO UBERLÂNDIA - COMARCA; UBERLANDIA-PJ-09PJ 7.806,95 780,70 0,00 4.293,83 0,00 0,00 12.881,48 1.022,04 1.232,47 0,00 2.254,51 10.626,97 884,00 703,66 30/06/2017
177 331400 ANA CRISTINA RIBEIRO ALVES OFICIAL DO MP ATIVO BAMBUÍ - COMARCA; BAMBUI-PJ-UNPJ 6.753,72 1.350,74 0,00 4.052,23 0,00 0,00 12.156,69 971,00 1.062,07 0,00 2.033,07 10.123,62 884,00 835,93 30/06/2017
178 249300 ANA ELOINA MARTINS DO PINHO OFICIAL DO MP ATIVO BETIM - COMARCA; BETIM-PJ-08PJ 9.163,30 3.665,32 0,00 4.573,51 0,00 0,00 17.402,13 1.559,07 2.270,44 0,00 3.829,51 13.572,62 884,00 1.355,21 30/06/2017
179 257400 ANA FLAVIA CAMBRAIA ANALISTA DO MP ATIVO BELO HORIZONTE - COMARCA; BH-19PJ SAUDE-SECRETARIA 150PJ 13.034,76 2.606,95 0,00 7.820,86 0,00 0,00 23.462,57 1.866,89 2.906,81 0,00 4.773,70 18.688,87 884,00 1.330,06 30/06/2017
180 248201 ANA FLAVIA DE MORAIS SOUZA ANALISTA DO MP ATIVO DIVINÓPOLIS - COMARCA; DIVINOPOLIS-PJ-01PJ 8.594,48 2.578,34 0,00 5.586,41 0,00 0,00 16.759,23 1.319,49 1.760,91 0,00 3.080,40 13.678,83 2.282,00 822,56 30/06/2017
181 621100 ANA FLAVIA DINIZ TEODORO OFICIAL DO MP ATIVO SANTA LUZIA - COMARCA; SANTA LUZIA-PJ-06PJ 3.982,20 0,00 0,00 0,00 1.327,40 0,00 5.309,60 469,78 470,32 0,00 940,10 4.369,50 884,00 336,56 30/06/2017
182 238600 ANA FLAVIA FRANCO OFICIAL DO MP ATIVO BELO HORIZONTE - COMARCA; DIRETORIA DE PESSOAL ADMINISTRATIVO - DPAD 9.461,59 2.838,48 0,00 6.150,04 0,00 0,00 18.450,11 1.468,05 2.141,08 0,00 3.609,13 14.840,98 884,00 1.045,90 30/06/2017
183 402900 ANA FLAVIA PORTES DE CARVALHO ANALISTA DO MP ATIVO BELO HORIZONTE - COMARCA; DIRET DE PLANOS PROJETOS E PROGRAMAS INST 10.416,20 1.041,62 0,00 5.728,91 0,00 0,00 17.186,73 1.360,88 1.882,80 0,00 3.243,68 13.943,05 884,00 913,80 30/06/2017
184 382700 ANA KARENINA SALDANHA GONTIJO ANALISTA DO MP ATIVO BELO HORIZONTE - COMARCA; ASSESS TECNICO-JUR JUNTO AS PROC. DE JUST 10.087,71 1.008,77 0,00 5.548,24 0,00 0,00 16.644,72 1.340,95 1.846,50 0,00 3.187,45 13.457,27 2.282,00 1.093,98 30/06/2017
185 620500 ANA KARINE DE ANDRADE OLIVEIRA ANALISTA DO MP ATIVO RIBEIRÃO DAS NEVES - COMARCA; SEC PJ EXECUCAO PENAL RIBEIRAO NEVES 5.572,67 0,00 0,00 2.786,34 1.857,56 0,00 10.216,57 661,87 1.005,38 0,00 1.667,25 8.549,32 884,00 444,44 30/06/2017
186 220000 ANA LUCIA AMORIM OFICIAL DO MP ATIVO MARTINHO CAMPOS - COMARCA; MARTINHO CAMPOS-PJ-SECRETARIA 9.163,30 4.581,65 0,00 6.872,48 0,00 0,00 20.617,43 1.646,78 2.494,72 0,00 4.141,50 16.475,93 1.583,00 1.225,83 30/06/2017
187 462200 ANA LUCIA ANDRADE TOMICH OTTONI ANALISTA DO MP ATIVO TEÓFILO OTONI - COMARCA; TEOFILO OTONI-PJ-06PJ 8.594,48 859,45 0,00 4.726,97 0,00 0,00 14.180,90 1.122,87 1.340,22 0,00 2.463,09 11.717,81 884,00 754,00 30/06/2017
188 504100 ANA LUCIA CATAO DE CARVALHO OFICIAL DO MP ATIVO BELO HORIZONTE - COMARCA; BH-09PJ AUDITORIA MILITAR 5.572,67 557,27 0,00 3.064,97 0,00 0,00 9.194,91 749,78 578,81 0,00 1.328,59 7.866,32 1.583,00 770,13 30/06/2017
189 274700 ANA LUCIA DE ALENCAR BRAGATO OFICIAL DO MP ATIVO UBERABA - COMARCA; UBERABA-PJ-07PJ 8.061,11 1.612,22 0,00 3.555,53 0,00 0,00 13.228,86 1.161,78 1.498,19 0,00 2.659,97 10.568,89 884,00 888,24 30/06/2017
190 509400 ANA LUCIA DORNELAS MALLOSTO ANALISTA DO MP ATIVO JUIZ DE FORA - COMARCA; JUIZ DE FORA-PJ-18PJ 7.200,69 720,07 0,00 3.960,38 0,00 0,00 11.881,14 942,68 1.017,11 0,00 1.959,79 9.921,35 884,00 649,02 30/06/2017
191 302600 ANA LUCIA LOPES SANTOS OFICIAL DO MP ATIVO BELO HORIZONTE - COMARCA; DIVISÃO DE FISCALIZAÇÃO DAS RELAÇÕES DE CONSU 7.560,72 1.512,14 0,00 5.153,21 0,00 0,00 14.226,07 1.082,87 1.638,32 0,00 2.721,19 11.504,88 1.313,00 3.518,13 30/06/2017
192 493400 ANA LUISA NOGUEIRA MOREIRA ANALISTA DO MP ATIVO BELO HORIZONTE - COMARCA; BH-19PJ SAUDE 7.806,95 780,70 0,00 4.293,83 0,00 0,00 12.881,48 1.022,04 1.232,47 0,00 2.254,51 10.626,97 884,00 703,66 30/06/2017
193 389300 ANA LUISA REUTER LIMA ANALISTA DO MP ATIVO BELO HORIZONTE - COMARCA; DIRETORIA DE SISTEMAS DE INFORMACAO 8.594,48 859,45 0,00 4.726,97 0,00 0,00 14.180,90 1.122,87 1.444,49 0,00 2.567,36 11.613,54 884,00 754,00 30/06/2017
194 480600 ANA LUIZA FERNANDES FRAGA E GRECO OFICIAL DO MP ATIVO SANTO ANTÔNIO DO MONTE - COMARCA; SANTO ANTONIO DO MONTE-PJ-UNPJ 5.396,93 539,69 0,00 2.968,31 0,00 0,00 8.904,93 706,79 583,63 0,00 1.290,42 7.614,51 884,00 570,36 30/06/2017
195 481400 ANA MARCIA CANDIDA FERREIRA OFICIAL DO MP ATIVO BRUMADINHO - COMARCA; BRUMADINHO-PJ-01PJ 4.598,03 459,80 0,00 2.528,92 0,00 0,00 7.586,75 601,46 376,70 0,00 978,16 6.608,59 884,00 410,06 30/06/2017
196 643100 ANA MARIA LOPES MIRANDA ANALISTA DO MP ATIVO BELO HORIZONTE - COMARCA; CAO-TS-TERCEIRO SETOR 5.572,67 0,00 0,00 2.786,34 0,00 0,00 8.359,01 608,44 495,80 0,00 1.104,24 7.254,77 1.583,00 473,86 30/06/2017
197 556400 ANA MARIA OLIVEIRA SOUZA OFICIAL DO MP ATIVO ITAPECERICA - COMARCA; ITAPECERICA-PJ-UNPJ 4.111,87 246,71 0,00 2.179,29 0,00 0,00 6.537,87 517,90 236,68 0,00 754,58 5.783,29 884,00 354,98 30/06/2017
198 409600 ANA OLIVIA FARIA ROSENBURG ANALISTA DO MP ATIVO BELO HORIZONTE - COMARCA; DIRETORIA DO COLEGIO E DA CAMARA DE PJ 9.461,59 1.892,32 0,00 5.676,96 0,00 0,00 17.030,87 1.360,32 1.909,51 0,00 3.269,83 13.761,04 884,00 1.012,58 30/06/2017
199 461500 ANA PAULA ALVES CARVALHO ANALISTA DO MP ATIVO UBERLÂNDIA - COMARCA; UBERLANDIA-PJ-08PJ 8.594,48 859,45 0,00 3.484,75 0,00 0,00 12.938,68 1.122,87 1.444,49 0,00 2.567,36 10.371,32 1.583,00 754,00 30/06/2017
200 523200 ANA PAULA ALVES DA SILVA OFICIAL DO MP ATIVO GOVERNADOR VALADARES - COMARCA; GOVERNADOR VALADARES-PJ-10PJ 5.396,93 539,69 0,00 2.968,31 0,00 0,00 8.904,93 703,21 531,49 0,00 1.234,70 7.670,23 1.583,00 532,28 30/06/2017
201 381200 ANA PAULA BARROS PEREIRA ANALISTA DO MP ATIVO BELO HORIZONTE - COMARCA; PROC JUST RECURSOS ESP E EXTRAORD CRIMINAIS 10.416,20 1.041,62 0,00 5.728,91 0,00 0,00 17.186,73 1.360,88 1.934,94 0,00 3.295,82 13.890,91 884,00 913,80 30/06/2017
202 227200 ANA PAULA DA SILVA CAMPOLINA ANALISTA DO MP ATIVO BELO HORIZONTE - COMARCA; SUPERINTENDENCIA DE FINANCAS 16.063,25 6.425,30 0,00 11.244,28 0,00 0,00 33.732,83 2.667,06 4.634,71 0,00 7.301,77 26.431,06 884,00 1.757,40 30/06/2017
203 84200 ANA PAULA DE SOUZA ROCHA OFICIAL DO MP ATIVO BELO HORIZONTE - COMARCA; SUPERINTENDENCIA DE RECURSOS HUMANOS 24.137,95 12.068,98 0,00 15.235,56 0,00 0,00 51.442,49 3.351,82 6.588,44 5.735,82 15.676,08 35.766,41 5.759,38 446,91 30/06/2017
204 278500 ANA PAULA DIAS CAPANEMA COORDENADOR/OFICIAL ATIVO BELO HORIZONTE - COMARCA; EXTINTA - DIRETORIA DE MATERIAL E PATRIMONIO 0,00 2.293,40 11.466,98 6.880,19 0,00 0,00 20.640,57 1.161,78 2.619,77 0,00 3.781,55 16.859,02 884,00 1.560,00 30/06/2017
205 327300 ANA PAULA GARCIA MAXIMO OFICIAL DO MP ATIVO UNAÍ - COMARCA; UNAI-PJ-01PJ 7.560,72 2.268,22 0,00 4.914,47 0,00 0,00 14.743,41 1.173,12 1.379,86 0,00 2.552,98 12.190,43 884,00 835,76 30/06/2017
206 270000 ANA PAULA GOULART CRUZ DE MAGALHAES ANALISTA DO MP ATIVO BELO HORIZONTE - COMARCA; COMB CRIMES PRAT POR AG POL MUN-ASSESSORIA 10.087,71 2.017,54 0,00 6.052,63 4.035,08 0,00 22.192,96 1.444,82 3.203,05 0,00 4.647,87 17.545,09 884,00 1.029,34 30/06/2017
207 262100 ANA PAULA KOMATSUZAKI ABIJAUDI ANALISTA DO MP ATIVO BELO HORIZONTE - COMARCA; BH-17PJ PATRIMONIO PUBLICO-SECRETARIA 13.034,76 5.213,90 0,00 9.124,33 0,00 0,00 27.372,99 2.178,03 3.492,73 0,00 5.670,76 21.702,23 884,00 1.551,74 30/06/2017
208 278900 ANA PAULA MOREIRA GURGEL ANALISTA DO MP ATIVO BELO HORIZONTE - COMARCA; DIRETORIA-GERAL 13.228,78 3.968,63 0,00 8.598,71 0,00 0,00 25.796,12 2.064,10 3.339,70 0,00 5.403,80 20.392,32 884,00 1.567,15 30/06/2017
209 425701 ANA PAULA ROCHA ANALISTA DO MP ATIVO BELO HORIZONTE - COMARCA; SUPERINTENDENCIA DE COMUNICACAO INTEGRADA 6.753,72 0,00 0,00 0,00 0,00 0,00 6.753,72 796,73 783,61 0,00 1.580,34 5.173,38 884,00 714,33 30/06/2017
210 395601 ANA PAULA SALGE OLIVEIRA ANALISTA DO MP ATIVO UBERABA - COMARCA; COORD REG PP TRIANGULO MINEIRO UBERABA 7.806,95 1.561,39 0,00 4.684,17 0,00 0,00 14.052,51 1.118,14 1.423,54 0,00 2.541,68 11.510,83 884,00 796,60 30/06/2017
211 473200 ANA PAULA SCOTTON BRASIL ANALISTA DO MP ATIVO JUIZ DE FORA - COMARCA; JUIZ DE FORA-PJ-15PJ 8.594,48 859,45 0,00 4.726,97 0,00 0,00 14.180,90 1.122,87 1.444,49 0,00 2.567,36 11.613,54 1.583,00 754,00 30/06/2017
212 633600 ANA PAULA SILVA FERNANDES OFICIAL DO MP ATIVO CATAGUASES - COMARCA; CATAGUASES-PJ-04PJ 3.617,27 0,00 0,00 1.808,64 0,00 0,00 5.425,91 429,64 128,11 0,00 557,75 4.868,16 884,00 288,48 30/06/2017
213 470900 ANA PAULA VALADARES ANALISTA DO MP ATIVO PITANGUI - COMARCA; PITANGUI-PJ-01PJ 8.594,48 859,45 0,00 3.536,89 0,00 0,00 12.990,82 1.122,87 1.340,22 0,00 2.463,09 10.527,73 884,00 879,67 30/06/2017
214 447000 ANA PAULA VALENTIM DE ARAUJO ANALISTA DO MP ATIVO BELO HORIZONTE - COMARCA; PROCURADORIA-GERAL ADJUNTA ADMINISTRATIVA 8.594,48 859,45 0,00 4.726,97 0,00 0,00 14.180,90 1.131,23 1.444,49 0,00 2.575,72 11.605,18 884,00 830,06 30/06/2017
215 604200 ANA PAULA VIANA E SILVA OFICIAL DO MP ATIVO BELO HORIZONTE - COMARCA; BH-17PJ PATRIMONIO PUBLICO-SECRETARIA 4.111,87 246,71 0,00 1.821,23 0,00 0,00 6.179,81 517,90 236,68 0,00 754,58 5.425,23 1.583,00 349,64 30/06/2017
216 505400 ANA PAULA VIEIRA SOUTO OFICIAL DO MP ATIVO ALMENARA - COMARCA; COORD. PAT. PUBLICO-MUCURI/JEQUIT - ALMENARA 4.245,74 1.273,72 0,00 2.759,73 0,00 0,00 8.279,19 658,78 429,39 0,00 1.088,17 7.191,02 884,00 469,32 30/06/2017
217 280200 ANA RACHEL BRANDAO LADEIRA ROLAND DIRETOR/ANALISTA ATIVO BELO HORIZONTE - COMARCA; SUPRIN DE FORMACAO E APERFEICOAMENTO-SFA/CEAF 12.623,91 5.497,38 0,00 9.060,65 0,00 0,00 27.181,94 1.808,06 3.655,75 0,00 5.463,81 21.718,13 884,00 1.565,98 30/06/2017
218 601200 ANA REGINA RIBEIRO ANALISTA DO MP ATIVO BELO HORIZONTE - COMARCA; EXTINTA - DIVISAO DE SERVICOS GERAIS 5.754,07 345,24 0,00 2.402,47 2.033,10 0,00 10.534,88 724,74 1.182,55 0,00 1.907,29 8.627,59 884,00 570,83 30/06/2017
219 384700 ANA RODRIGUES PEREIRA MARRA ANALISTA DO MP ATIVO COROMANDEL - COMARCA; COROMANDEL-PJ-SECRETARIA 8.323,51 832,35 0,00 4.577,93 0,00 0,00 13.733,79 1.092,78 1.319,40 0,00 2.412,18 11.321,61 884,00 778,54 30/06/2017
220 232700 ANA SILVIA SEMBLANO NAKAMURA ASSESSOR/OFICIAL ATIVO BELO HORIZONTE - COMARCA; CENT DE APOIO TEC-SETOR DEF,IDOSO E INFANC 0,00 2.662,30 8.874,34 5.768,32 0,00 0,00 17.304,96 1.247,65 1.985,40 0,00 3.233,05 14.071,91 884,00 1.203,35 30/06/2017
221 326700 ANA TERCIA DE FATIMA COSTA OFICIAL DO MP ATIVO NOVA SERRANA - COMARCA; NOVA SERRANA-PJ-01PJ 7.322,31 1.464,46 0,00 4.393,39 0,00 966,54 14.146,70 1.054,69 1.494,86 0,00 2.549,55 11.597,15 884,00 889,59 30/06/2017
222 602100 ANACLETO FRANCISCO MARCIER PIMENTA OFICIAL DO MP ATIVO SÃO JOÃO DEL REI - COMARCA; SAO JOAO DEL REI-PJ-03PJ 3.735,01 224,10 0,00 0,00 1.319,70 0,00 5.278,81 470,44 282,98 0,00 753,42 4.525,39 2.440,80 317,60 30/06/2017
223 310400 ANADEJE DO CARMO DINIZ ARAUJO OFICIAL DO MP ATIVO BELO HORIZONTE - COMARCA; CENT DE ATENDIMENTO E ORIENTACAO DE PESSOAL 7.322,31 1.464,46 0,00 4.393,39 0,00 0,00 13.180,16 1.054,69 1.281,20 0,00 2.335,89 10.844,27 884,00 801,44 30/06/2017
224 337000 ANAILDES MARIA MENDES OFICIAL DO MP ATIVO JANAÚBA - COMARCA; JANAUBA-PJ-02PJ 6.973,61 1.394,72 0,00 4.184,17 0,00 0,00 12.552,50 1.002,62 1.178,79 0,00 2.181,41 10.371,09 1.583,00 995,14 30/06/2017
225 192900 ANATALIA CERQUEIRA LIMA PERES OFICIAL DO MP ATIVO UBERABA - COMARCA; COORD REG SAUDE MACROR SANIT TRIANGULO SUL 8.874,34 2.662,30 0,00 5.768,32 0,00 0,00 17.304,96 1.380,45 1.954,23 0,00 3.334,68 13.970,28 884,00 1.010,45 30/06/2017
226 377400 ANDEIRSON DA MATTA BARBOSA ANALISTA DO MP ATIVO POUSO ALEGRE - COMARCA; POUSO ALEGRE-PJ-01PJ 8.594,48 859,45 0,00 4.726,97 0,00 0,00 14.180,90 1.131,23 1.444,49 0,00 2.575,72 11.605,18 893,81 830,06 30/06/2017
227 317400 ANDERSON DA SILVA BICALHO OFICIAL DO MP ATIVO CONTAGEM - COMARCA; COORD REG DEF ORDEM ECONOMICA TRIB CONTAGEM 6.753,72 1.350,74 0,00 3.127,58 0,00 0,00 11.232,04 973,34 957,80 0,00 1.931,14 9.300,90 1.583,00 13.679,03 30/06/2017
228 506900 ANDERSON DE SOUZA DAMIANI ANALISTA DO MP ATIVO BELO HORIZONTE - COMARCA; DIRETORIA DE PAGAMENTO DE PESSOAL-DPAG 7.806,95 2.342,09 0,00 5.074,52 0,00 0,00 15.223,56 1.355,12 1.861,64 0,00 3.216,76 12.006,80 1.583,00 2.170,08 30/06/2017
229 410000 ANDERSON DE SOUZA NETO ASSESSOR ATIVO BELO HORIZONTE - COMARCA; DIRETORIA DE ADMINISTRACAO FINANCEIRA 0,00 0,00 4.383,93 2.191,97 0,00 0,00 6.575,90 608,44 412,26 0,00 1.020,70 5.555,20 884,00 384,90 30/06/2017
230 181900 ANDERSON FLAVIO DE OLIVEIRA OFICIAL DO MP ATIVO ITAGUARA - COMARCA; ITAGUARA-PJ-SECRETARIA 9.461,59 2.838,48 0,00 6.150,04 0,00 0,00 18.450,11 1.473,68 2.141,08 0,00 3.614,76 14.835,35 884,00 1.096,97 30/06/2017
231 119500 ANDERSON FUNGHI DE AZEVEDO ROCHA OFICIAL DO MP ATIVO BELO HORIZONTE - COMARCA; GABINETE DE SEGURANCA E INTELIGENCIA 12.225,81 9.780,64 0,00 11.003,23 0,00 0,00 33.009,68 2.636,60 4.410,60 0,00 7.047,20 25.962,48 884,00 2.348,96 30/06/2017
232 333200 ANDERSON JOSE DE FREITAS OFICIAL DO MP ATIVO IPATINGA - COMARCA; IPATINGA-PJ-07PJ 6.973,61 1.394,72 0,00 4.800,95 3.200,63 0,00 16.369,91 1.002,62 2.293,92 0,00 3.296,54 13.073,37 1.622,99 28.519,66 30/06/2017
233 462100 ANDERSON LUIZ GUIMARAES CARDOSO ANALISTA DO MP ATIVO BARBACENA - COMARCA; BARBACENA-PJ-02PJ 8.594,48 859,45 0,00 3.484,75 0,00 0,00 12.938,68 1.122,87 1.444,49 0,00 2.567,36 10.371,32 884,00 754,00 30/06/2017
234 429700 ANDERSON MELO DE SOUZA OFICIAL DO MP ATIVO BELO HORIZONTE - COMARCA; DIRET DE ESTAGIOS E CONVENIOS ACADEMICOS 4.747,79 474,78 0,00 2.611,29 0,00 0,00 7.833,86 625,71 409,69 0,00 1.035,40 6.798,46 884,00 468,18 30/06/2017
235 545600 ANDERSON MENDES PROCOPIO FERREIRA ANALISTA DO MP ATIVO BELO HORIZONTE - COMARCA; BH-12PJ JUIZO CRIMINAL-GAB 089PJ 6.973,61 418,42 0,00 3.696,02 0,00 0,00 11.088,05 877,98 939,84 0,00 1.817,82 9.270,23 884,00 683,29 30/06/2017
236 519900 ANDERSON MOREIRA DOEHLER ANALISTA DO MP ATIVO NOVO CRUZEIRO - COMARCA; NOVO CRUZEIRO-PJ-UNPJ 7.200,69 2.160,21 0,00 4.680,45 0,00 0,00 14.041,35 1.110,54 1.421,72 0,00 2.532,26 11.509,09 1.127,20 734,74 30/06/2017
237 103000 ANDERSON TADEU DE DEUS ASSESSOR ATIVO BELO HORIZONTE - COMARCA; EXTINTA - DIVISAO DE TRANSPORTES 0,00 2.191,97 4.383,93 3.287,95 0,00 0,00 9.863,85 608,44 1.014,79 0,00 1.623,23 8.240,62 884,00 1.225,36 30/06/2017
238 309200 ANDITYAS SOARES DE MOURA COSTA MATOS ANALISTA DO MP ATIVO BELO HORIZONTE - COMARCA; GABINETE DE PROCURADOR DE JUSTIÇA - SALA 909 10.755,28 2.151,06 0,00 6.453,17 0,00 0,00 19.359,51 1.540,42 2.289,47 0,00 3.829,89 15.529,62 884,00 1.280,35 30/06/2017
239 613500 ANDRE AZEVEDO SOUSA ANALISTA DO MP ATIVO BELO HORIZONTE - COMARCA; CAO-CRIANCAS E ADOLESCENTES 6.334,59 380,08 0,00 0,00 0,00 0,00 6.714,67 797,87 774,06 0,00 1.571,93 5.142,74 884,00 624,14 30/06/2017
240 519200 ANDRE BORJA LANA ANALISTA DO MP ATIVO BELO HORIZONTE - COMARCA; DIRETORIA DE IMPRENSA 7.806,95 780,70 0,00 4.293,83 0,00 0,00 12.881,48 1.022,04 1.232,47 0,00 2.254,51 10.626,97 884,00 703,66 30/06/2017
241 637200 ANDRE FERNANDES DA CUNHA OFICIAL DO MP ATIVO MORADA NOVA DE MINAS - COMARCA; MORADA NOVA DE MINAS-PJ-UNPJ 3.982,20 0,00 0,00 1.683,67 0,00 0,00 5.665,87 472,98 176,82 0,00 649,80 5.016,07 884,00 317,60 30/06/2017
242 651500 ANDRE GONCALVES MARANHAO OFICIAL DO MP ATIVO JACINTO - COMARCA; JACINTO-PJ-SECRETARIA 3.182,15 0,00 0,00 0,00 0,00 0,00 3.182,15 350,04 70,02 0,00 420,06 2.762,09 884,00 0,00 30/06/2017
243 521900 ANDRE LUIS GOMES SILVA ANALISTA DO MP ATIVO FORMIGA - COMARCA; FORMIGA-PJ-02PJ 7.806,95 780,70 0,00 4.293,83 0,00 0,00 12.881,48 1.022,04 786,18 0,00 1.808,22 11.073,26 884,00 703,66 30/06/2017
244 304300 ANDRE LUIZ AVELAR ANALISTA DO MP ATIVO BELO HORIZONTE - COMARCA; DIRETORIA DE REDES E BANCOS DE DADOS 7.200,69 1.440,14 0,00 3.222,43 0,00 0,00 11.863,26 1.033,93 1.245,48 0,00 2.279,41 9.583,85 884,00 758,66 30/06/2017
245 397400 ANDRE PATARO MYRRHA DE PAULA E SILVA ANALISTA DO MP ATIVO BELO HORIZONTE - COMARCA; ASSESSORIA JURIDICO-ADMINISTRATIVA 10.416,20 1.041,62 0,00 4.131,26 0,00 0,00 15.589,08 1.360,88 1.934,94 0,00 3.295,82 12.293,26 1.583,00 913,80 30/06/2017
246 650100 ANDRE THOME VARGAS OFICIAL DO MP ATIVO LEOPOLDINA - COMARCA; LEOPOLDINA-PJ-04PJ 3.503,19 0,00 0,00 1.751,60 0,00 0,00 5.254,79 385,35 112,88 0,00 498,23 4.756,56 884,00 0,00 30/06/2017
247 548500 ANDRE VINICIUS CARVALHO MEIRA ANALISTA DO MP ATIVO JUIZ DE FORA - COMARCA; JUIZ DE FORA-PJ-25PJ 5.754,07 345,24 0,00 3.049,66 0,00 0,00 9.148,97 730,76 623,45 0,00 1.354,21 7.794,76 884,00 543,96 30/06/2017
248 297200 ANDRE WILLE ROSARIO ANALISTA DO MP ATIVO BELO HORIZONTE - COMARCA; ASSESSORIA ESPECIAL DO PGJ 12.623,91 2.524,78 0,00 7.574,35 0,00 0,00 22.723,04 1.893,75 2.924,68 0,00 4.818,43 17.904,61 884,00 2.067,14 30/06/2017
249 423600 ANDREA COSTA GUALBERTO ANALISTA DO MP ATIVO GOVERNADOR VALADARES - COMARCA; COORD REG PJ DEF EDU DIR CRIANCA ADOL RIODOCE 9.163,30 4.581,65 0,00 0,00 0,00 0,00 13.744,95 1.646,78 2.442,58 0,00 4.089,36 9.655,59 1.476,27 1.225,83 30/06/2017
250 198600 ANDREA CRISTINA ANDRADE COSTA E SOUZA OFICIAL DO MP ATIVO MONTES CLAROS - COMARCA; MONTES CLAROS-PJ-SECRETARIA 11.105,40 3.331,62 0,00 7.218,51 0,00 0,00 21.655,53 1.723,11 2.611,96 0,00 4.335,07 17.320,46 884,00 1.227,62 30/06/2017
251 467300 ANDREA DE CASSIA PENNA ALVERNAZ ANALISTA DO MP ATIVO PONTE NOVA - COMARCA; PONTE NOVA-PJ-01PJ 8.594,48 859,45 0,00 4.726,97 0,00 0,00 14.180,90 1.122,87 1.392,35 0,00 2.515,22 11.665,68 884,00 754,00 30/06/2017
252 308000 ANDREA DE CASSIA SANTOS OLIVEIRA ANALISTA DO MP ATIVO BELO HORIZONTE - COMARCA; ASSESS TECNICO-JUR JUNTO AS PROC. DE JUST 12.225,81 2.445,16 0,00 7.335,49 0,00 0,00 22.006,46 1.762,01 2.669,22 0,00 4.431,23 17.575,23 2.282,00 1.347,14 30/06/2017
253 349500 ANDREA DE OLIVEIRA OFICIAL DO MP ATIVO IGUATAMA - COMARCA; IGUATAMA-PJ-UNPJ 7.200,69 1.440,14 0,00 4.320,42 0,00 0,00 12.961,25 1.031,33 1.193,35 0,00 2.224,68 10.736,57 884,00 734,73 30/06/2017
254 254700 ANDREA EMISE REIS DE AZEVEDO COORDENADOR/OFICIAL ATIVO BELO HORIZONTE - COMARCA; COMB CRIMES PRAT POR AG POL MUN-SECRETARIA 0,00 2.017,54 10.087,71 6.052,63 0,00 0,00 18.157,88 1.161,78 2.164,61 0,00 3.326,39 14.831,49 884,00 1.231,55 30/06/2017
255 287900 ANDREA FERNANDES PENA OFICIAL DO MP ATIVO MONTES CLAROS - COMARCA; MONTES CLAROS-PJ-09PJ 7.806,95 1.561,39 0,00 4.684,17 0,00 0,00 14.052,51 1.118,14 1.319,27 0,00 2.437,41 11.615,10 884,00 796,60 30/06/2017
256 300800 ANDREA FERREIRA ANALISTA DO MP ATIVO LAVRAS - COMARCA; LAVRAS-PJ-04PJ 11.105,40 2.221,08 0,00 0,00 0,00 0,00 13.326,48 1.596,66 2.392,30 0,00 3.988,96 9.337,52 1.258,42 1.188,52 30/06/2017
257 316700 ANDREA FRANCISCA DIAS DE SOUZA ASSESSOR ATIVO BELO HORIZONTE - COMARCA; ASSESSORIA TECNICA DO PROCON-MG 0,00 0,00 2.625,65 1.176,47 36,59 0,00 3.838,71 411,42 115,42 0,00 526,84 3.311,87 1.583,00 878,54 30/06/2017
258 395100 ANDREA LANNA MENDES NOVAIS ANALISTA DO MP ATIVO BELO HORIZONTE - COMARCA; PROMOT ESTADUAL DE DEF PATRI CULT E TUR DE MG 10.416,20 1.041,62 0,00 0,00 0,00 0,00 11.457,82 1.376,09 1.882,80 0,00 3.258,89 8.198,93 1.280,10 1.052,10 30/06/2017
259 67300 ANDREA LEAO MAGALHAES ROQUE ASSESSOR ATIVO BELO HORIZONTE - COMARCA; PROCURADOR-GERAL ADJ INSTITUCIONAL- GABINETE 0,00 6.212,04 8.874,34 7.543,19 0,00 0,00 22.629,57 608,44 3.250,90 0,00 3.859,34 18.770,23 884,00 1.168,74 30/06/2017
260 335700 ANDREA LOPES PEREIRA ANALISTA DO MP ATIVO GOVERNADOR VALADARES - COMARCA; COORD REG DO MA DA BACIA DO RIO DOCE 12.225,81 2.445,16 0,00 7.335,49 0,00 0,00 22.006,46 1.742,53 2.721,36 0,00 4.463,89 17.542,57 884,00 1.170,08 30/06/2017
261 389200 ANDREA TUPINI DOS SANTOS TRISTAO DA ROCHA OFICIAL DO MP ATIVO BELO HORIZONTE - COMARCA; BH-13ª PJ JUÍZO DE TÓXICOS-SECRETARIA 4.902,32 490,23 0,00 2.696,28 0,00 0,00 8.088,83 643,62 401,07 0,00 1.044,69 7.044,14 884,00 458,54 30/06/2017
262 419000 ANDREIA BARBOSA DE ALMEIDA ANALISTA DO MP ATIVO BELO HORIZONTE - COMARCA; GABINETE DE PROCURADOR DE JUSTIÇA - SALA 705 9.163,30 916,33 0,00 5.039,82 0,00 0,00 15.119,45 1.207,65 1.597,63 0,00 2.805,28 12.314,17 1.583,00 898,95 30/06/2017
263 281501 ANDREIA CARLA COSTA FILGUEIRAS ANALISTA DO MP ATIVO VISCONDE DO RIO BRANCO - COMARCA; VISCONDE DO RIO BRANCO-PJ-02PJ 9.461,59 946,16 0,00 5.203,88 0,00 0,00 15.611,63 1.246,96 1.625,80 0,00 2.872,76 12.738,87 884,00 928,21 30/06/2017
264 643600 ANDREIA CRISTINA SILVA OFICIAL DO MP ATIVO PARACATU - COMARCA; PARACATU-PJ-01PJ 3.285,74 0,00 0,00 0,00 1.095,25 0,00 4.380,99 392,17 268,27 0,00 660,44 3.720,55 884,00 279,40 30/06/2017
265 477100 ANDREIA DE ALMEIDA RIBEIRO MELO OFICIAL DO MP ATIVO CONTAGEM - COMARCA; CONTAGEM-PJ-07PJ 5.572,67 557,27 0,00 3.064,97 2.043,31 0,00 11.238,22 746,61 1.192,85 0,00 1.939,46 9.298,76 1.583,00 744,35 30/06/2017
266 619000 ANDREIA FERREIRA NORONHA COORDENADOR/OFICIAL ATIVO BELO HORIZONTE - COMARCA; DIRETORIA DE SERVICO CRIMINAL 0,00 0,00 11.466,98 5.733,49 0,00 0,00 17.200,47 472,98 2.163,60 0,00 2.636,58 14.563,89 884,00 779,16 30/06/2017
267 424000 ANDREIA LUCIA COUTO ANALISTA DO MP ATIVO BELO HORIZONTE - COMARCA; BH-18PJ DIREITOS HUMANOS 9.461,59 946,16 0,00 5.203,88 3.469,25 0,00 19.080,88 1.305,84 2.762,99 0,00 4.068,83 15.012,05 884,00 1.615,77 30/06/2017
268 370100 ANDREIA MARIA SILVA PINTO OFICIAL DO MP ATIVO CORONEL FABRICIANO - COMARCA; CORONEL FABRICIANO-PJ-01PJ 6.753,72 1.350,74 0,00 4.052,23 0,00 0,00 12.156,69 960,99 1.114,21 0,00 2.075,20 10.081,49 884,00 631,70 30/06/2017
269 382100 ANDREIA NATALI PEREIRA OFICIAL DO MP ATIVO PRADOS - COMARCA; PRADOS-PJ-UNPJ 6.540,78 654,08 0,00 3.597,43 0,00 0,00 10.792,29 862,02 891,58 0,00 1.753,60 9.038,69 884,00 644,98 30/06/2017
270 275200 ANDREIA RIBEIRO FREITAS OFICIAL DO MP ATIVO VIÇOSA - COMARCA; VICOSA-PJ-03PJ 8.061,11 2.418,33 0,00 5.239,72 0,00 0,00 15.719,16 1.237,60 1.643,35 0,00 2.880,95 12.838,21 884,00 771,48 30/06/2017
271 352200 ANDREIA XAVIER PEREIRA OFICIAL DO MP ATIVO CLÁUDIO - COMARCA; CLAUDIO-PJ-UNPJ 7.200,69 1.440,14 0,00 4.320,42 0,00 0,00 12.961,25 1.031,33 1.245,48 0,00 2.276,81 10.684,44 884,00 857,18 30/06/2017
272 638500 ANDRESA ALVES FEITOSA CASAGRANDE ANALISTA DO MP ATIVO PERDÕES - COMARCA; PERDOES-PJ-UNPJ 5.572,67 0,00 0,00 2.786,34 0,00 0,00 8.359,01 608,44 495,80 0,00 1.104,24 7.254,77 1.583,00 552,84 30/06/2017
273 383700 ANDRESSA EDUARDO SOUZA ANALISTA DO MP ATIVO OURO BRANCO - COMARCA; OURO BRANCO-PJ-SECRETARIA 10.416,20 1.041,62 0,00 4.131,26 0,00 0,00 15.589,08 1.360,88 1.934,94 0,00 3.295,82 12.293,26 2.142,20 913,80 30/06/2017
274 426200 ANDRESSA MENDES CASAL OFICIAL DO MP ATIVO BELO HORIZONTE - COMARCA; DIR ANALISES TECNOLOGIA INTELIGENCIA 5.396,93 539,69 0,00 2.349,97 0,00 0,00 8.286,59 708,55 583,63 0,00 1.292,18 6.994,41 884,00 504,80 30/06/2017
275 390100 ANDRESSA RIBEIRO PUCCI OFICIAL DO MP ATIVO UBERABA - COMARCA; UBERABA-PJ-14PJ 5.396,93 539,69 0,00 2.349,97 1.978,87 0,00 10.265,46 710,37 1.127,82 0,00 1.838,19 8.427,27 884,00 603,98 30/06/2017
276 462500 ANDREZA APARECIDA COSTA E SILVA ANALISTA DO MP ATIVO CONSELHEIRO LAFAIETE - COMARCA; CONSELHEIRO LAFAIETE-PJ-02PJ 8.594,48 859,45 0,00 4.726,97 0,00 0,00 14.180,90 1.122,87 1.444,49 0,00 2.567,36 11.613,54 884,00 754,00 30/06/2017
277 537800 ANDREZZA LUZIA DE OLIVEIRA ALVES ANALISTA DO MP ATIVO PATOS DE MINAS - COMARCA; COORD REG PJ DEF EDU DIR CRI ADO AL PAR NOROE 6.973,61 418,42 0,00 3.696,02 0,00 0,00 11.088,05 877,98 835,57 0,00 1.713,55 9.374,50 884,00 589,56 30/06/2017
278 491600 ANE PATRICIA RIBEIRO ANALISTA DO MP ATIVO SETE LAGOAS - COMARCA; SETE LAGOAS-PJ-10PJ 7.806,95 780,70 0,00 3.231,34 0,00 0,00 11.818,99 1.022,04 1.180,33 0,00 2.202,37 9.616,62 884,00 820,94 30/06/2017
279 465800 ANELISE GAMA ASSESSOR ATIVO BELO HORIZONTE - COMARCA; BH-18PJ VIOLENCIA DOMESTICA-SECRETARIA 0,00 0,00 4.383,93 1.829,97 0,00 0,00 6.213,90 608,44 412,26 0,00 1.020,70 5.193,20 884,00 384,90 30/06/2017
280 535200 ANELIZE FERNANDA ALVES VILARINHO OFICIAL DO MP ATIVO CAPINÓPOLIS - COMARCA; CAPINOPOLIS-PJ-UNPJ 4.111,87 246,71 0,00 2.179,29 0,00 0,00 6.537,87 517,68 236,68 0,00 754,36 5.783,51 1.583,00 347,62 30/06/2017
281 197200 ANGELA COELHO SALDANHA OFICIAL DO MP ATIVO PARÁ DE MINAS - COMARCA; PARA DE MINAS-PJ-03PJ 11.105,40 3.331,62 0,00 7.218,51 0,00 0,00 21.655,53 1.729,71 2.664,10 0,00 4.393,81 17.261,72 885,89 1.287,56 30/06/2017
282 307400 ANGELA CRISTINA GONCALVES MUNIZ ANALISTA DO MP ATIVO UBERLÂNDIA - COMARCA; UBERLANDIA-PJ-SEC FAMILIA 12.623,91 3.787,17 0,00 8.205,54 0,00 0,00 24.616,62 1.958,72 3.095,11 0,00 5.053,83 19.562,79 1.583,00 1.395,44 30/06/2017
283 191800 ANGELA MARIA DE OLIVEIRA OFICIAL DO MP ATIVO GUARANÉSIA - COMARCA; GUARANESIA-PJ-SECRETARIA 11.105,40 4.442,16 0,00 7.773,78 0,00 0,00 23.321,34 1.862,75 2.883,77 0,00 4.746,52 18.574,82 6.449,78 1.842,67 30/06/2017
284 69900 ANGELA MARIA DE PAULA CUNHA OFICIAL DO MP ATIVO JUIZ DE FORA - COMARCA; JUIZ DE FORA-PJ-11PJ 12.225,81 8.558,06 0,00 10.391,94 0,00 2.286,23 33.462,04 2.496,17 4.846,20 0,00 7.342,37 26.119,67 1.715,35 2.194,59 30/06/2017
285 497400 ANGELA MARIA HENRIQUES ANALISTA DO MP ATIVO BELO HORIZONTE - COMARCA; COORD REG BACIAS RIO VELHAS E PARAOPEBA 7.806,95 780,70 0,00 4.293,83 2.862,55 0,00 15.744,03 1.022,05 2.019,67 0,00 3.041,72 12.702,31 2.282,00 820,94 30/06/2017
286 260700 ANGELICA CRISTINA AZEVEDO MOREIRA MOUCO OFICIAL DO MP ATIVO UBÁ - COMARCA; UBA-PJ-05PJ 9.163,30 1.832,66 0,00 5.497,98 0,00 0,00 16.493,94 1.361,89 1.821,90 0,00 3.183,79 13.310,15 884,00 1.403,59 30/06/2017
287 334600 ANGELICA PANISSA DE FREITAS OFICIAL DO MP ATIVO GUAXUPÉ - COMARCA; GUAXUPE-PJ-02PJ 7.560,72 2.268,22 0,00 4.914,47 0,00 0,00 14.743,41 1.162,02 1.536,27 0,00 2.698,29 12.045,12 884,00 734,74 30/06/2017
288 521100 ANGELICA SALES MOREIRA OFICIAL DO MP ATIVO BELO HORIZONTE - COMARCA; BH-02PJ FAMILIA-SECRETARIA 5.396,93 539,69 0,00 2.968,31 1.978,87 0,00 10.883,80 703,21 1.127,82 0,00 1.831,03 9.052,77 884,00 532,28 30/06/2017
289 466500 ANGELLO MARQUES AGRELLI ANALISTA DO MP ATIVO MAR DE ESPANHA - COMARCA; MAR DE ESPANHA-PJ-UNPJ 8.594,48 859,45 0,00 4.726,97 0,00 0,00 14.180,90 1.122,87 1.444,49 0,00 2.567,36 11.613,54 884,00 754,00 30/06/2017
290 363300 ANGELO VERDOLIN HENRIQUES ANALISTA DO MP ATIVO SETE LAGOAS - COMARCA; SETE LAGOAS-PJ-04PJ 11.105,40 3.331,62 0,00 5.092,42 0,00 0,00 19.529,44 1.723,11 2.664,10 0,00 4.387,21 15.142,23 1.583,00 1.227,62 30/06/2017
291 250900 ANISIO APARECIDO SANTOS OFICIAL DO MP ATIVO MARIANA - COMARCA; MARIANA-PJ-02PJ 5.226,73 1.568,02 0,00 3.397,38 0,00 0,00 10.192,13 813,04 241,70 0,00 1.054,74 9.137,39 884,00 596,58 30/06/2017
292 651200 ANITA MARIA SANTANA DE MATTOS FONTES OFICIAL DO MP ATIVO ERVÁLIA - COMARCA; ERVALIA-PJ-UNPJ 3.503,19 0,00 0,00 1.751,60 0,00 0,00 5.254,79 385,35 84,44 0,00 469,79 4.785,00 884,00 0,00 30/06/2017
293 253400 ANNA FLAVIA LEHMAN BATTAGLIA ANALISTA DO MP ATIVO BELO HORIZONTE - COMARCA; CAO-PATRIMONIO PUBLICO 13.034,76 2.606,95 0,00 7.820,86 0,00 0,00 23.462,57 1.866,89 2.802,54 0,00 4.669,43 18.793,14 6.676,52 2.751,96 30/06/2017
294 447600 ANNGELUCE ALCANTARA DE CAMPOS OFICIAL DO MP ATIVO DIVINÓPOLIS - COMARCA; DIVINOPOLIS-PJ-10PJ 5.226,73 1.045,35 0,00 3.136,04 0,00 0,00 9.408,12 743,21 665,73 0,00 1.408,94 7.999,18 884,00 484,44 30/06/2017
295 119600 ANSELMO BORGES PARREIRAS OFICIAL DO MP ATIVO BONFIM - COMARCA; BONFIM-PJ-UNPJ 5.941,34 4.753,07 0,00 5.347,21 0,00 0,00 16.041,62 1.279,69 1.695,96 0,00 2.975,65 13.065,97 884,00 938,96 30/06/2017
296 630300 ANTONIA GOMES RAMALHO OFICIAL DO MP ATIVO NOVO CRUZEIRO - COMARCA; NOVO CRUZEIRO-PJ-UNPJ 3.982,20 0,00 0,00 0,00 0,00 0,00 3.982,20 472,98 176,82 0,00 649,80 3.332,40 884,00 317,60 30/06/2017
297 332400 ANTONIA MARIA MAMEDE OFICIAL DO MP ATIVO UBERLÂNDIA - COMARCA; COORD REG PP TRIANGULO MINEIRO UBERLANDIA 7.200,69 1.440,14 0,00 3.222,43 0,00 0,00 11.863,26 1.035,26 1.245,48 0,00 2.280,74 9.582,52 884,00 770,63 30/06/2017
298 401600 ANTONIO CARLOS GUEDES AROUCA ANALISTA DO MP ATIVO BELO HORIZONTE - COMARCA; COORD EST DEF DIR FAMILIA PESSOA DEFICI IDOSO 9.163,30 916,33 0,00 5.039,82 3.359,88 0,00 18.479,33 1.206,12 2.521,60 0,00 3.727,72 14.751,61 884,00 885,00 30/06/2017
299 7100 ANTONIO DO NASCIMENTO OLIVEIRA ASSESSOR ATIVO BELO HORIZONTE - COMARCA; GAECO - SECRETARIA 0,00 2.625,66 2.625,65 2.625,66 0,00 0,00 7.876,97 608,44 292,03 0,00 900,47 6.976,50 884,00 438,02 30/06/2017
300 333900 ANTONIO GONCALVES DE SOUZA FILHO OFICIAL DO MP ATIVO BELO HORIZONTE - COMARCA; DIVISAO DE MEMORIA INSTITUCIONAL 7.200,69 1.440,14 0,00 4.320,42 0,00 0,00 12.961,25 1.031,33 1.245,48 0,00 2.276,81 10.684,44 884,00 851,36 30/06/2017
301 176100 ANTONIO MARCELO CAMPOS CAMPANELLA OFICIAL DO MP ATIVO BELO HORIZONTE - COMARCA; ASSESSORIA JURIDICO-ADMINISTRATIVA 11.105,40 4.442,16 0,00 7.773,78 0,00 0,00 23.321,34 1.862,75 2.935,91 0,00 4.798,66 18.522,68 7.148,78 1.849,83 30/06/2017
302 321001 ANTONIO OLINTO VIEIRA MACHADO ANALISTA DO MP ATIVO BELO HORIZONTE - COMARCA; CENTRAL DE APOIO TECN-SETOR DE MEIO AMBIENTE 10.416,20 1.041,62 0,00 5.728,91 0,00 0,00 17.186,73 1.376,09 1.778,53 0,00 3.154,62 14.032,11 884,00 1.052,10 30/06/2017
303 356200 ANTONIO PAULA DA SILVA OFICIAL DO MP ATIVO JUIZ DE FORA - COMARCA; JUIZ DE FORA-PJ-20PJ 6.334,59 1.900,38 0,00 4.117,49 0,00 0,00 12.352,46 986,65 1.146,15 0,00 2.132,80 10.219,66 884,00 734,44 30/06/2017
304 119900 ANTONIO RODRIGUES DE PINHO OFICIAL DO MP ATIVO GUANHÃES - COMARCA; GUANHAES-PJ-01PJ 10.755,28 7.528,70 0,00 0,00 0,00 0,00 18.283,98 2.169,51 3.449,23 0,00 5.618,74 12.665,24 2.139,14 1.438,80 30/06/2017
305 373300 ANTONIO SERGIO ANANIAS OFICIAL DO MP ATIVO AIURUOCA - COMARCA; AIURUOCA-PJ-UNPJ 6.334,59 633,46 0,00 3.484,03 0,00 0,00 10.452,08 827,63 731,79 0,00 1.559,42 8.892,66 884,00 555,72 30/06/2017
306 608100 ANTONIO SIDINEY VIEIRA LEMOS ANALISTA DO MP ATIVO PIRAPORA - COMARCA; PIRAPORA-PJ-01PJ 6.334,59 1.900,38 0,00 4.117,49 0,00 0,00 12.352,46 982,89 1.146,15 0,00 2.129,04 10.223,42 884,00 700,24 30/06/2017
307 374700 ANTONIO SILVA NETO OFICIAL DO MP ATIVO BELO HORIZONTE - COMARCA; GAECO - SECRETARIA 6.540,78 654,08 0,00 3.597,43 0,00 0,00 10.792,29 858,73 891,58 0,00 1.750,31 9.041,98 884,00 708,91 30/06/2017
308 636700 ANTONIUS VITORIANO FERNANDES OFICIAL DO MP ATIVO BELO HORIZONTE - COMARCA; ASSESSORIA JURIDICA DO PROCON-MG 3.617,27 0,00 0,00 0,00 0,00 0,00 3.617,27 429,64 128,11 0,00 557,75 3.059,52 884,00 288,48 30/06/2017
309 413200 ANY PEREIRA SILVA ANALISTA DO MP ATIVO TRÊS PONTAS - COMARCA; TRES PONTAS-PJ-01PJ 9.163,30 916,33 0,00 5.039,82 0,00 0,00 15.119,45 1.214,93 1.545,49 0,00 2.760,42 12.359,03 884,00 969,71 30/06/2017
310 151401 APARECIDA DE FATIMA MENDES DE ALMEIDA ASSESSOR ATIVO JUIZ DE FORA - COMARCA; JUIZ DE FORA-PJ-SECRETARIA 0,00 0,00 4.383,93 2.191,97 0,00 0,00 6.575,90 608,44 412,26 0,00 1.020,70 5.555,20 884,00 384,90 30/06/2017
311 329300 APARECIDA MARIA MELO DE ASSIS OFICIAL DO MP ATIVO BELO HORIZONTE - COMARCA; BH-18PJ DIREITOS HUMANOS-SECRETARIA 7.560,72 1.512,14 0,00 4.536,43 3.024,29 0,00 16.633,58 1.082,87 2.182,90 0,00 3.265,77 13.367,81 884,00 900,06 30/06/2017
312 475300 APARECIDA MARLENE FREIRE ROSA ANALISTA DO MP ATIVO BELO HORIZONTE - COMARCA; BH-02PJ FAMILIA-SECRETARIA 8.874,34 7.986,91 0,00 8.430,63 0,00 1.854,74 27.146,62 1.998,00 3.767,48 0,00 5.765,48 21.381,14 884,00 1.445,62 30/06/2017
313 240300 APARECIDA PEREIRA DO NASCIMENTO OFICIAL DO MP ATIVO ITURAMA - COMARCA; ITURAMA-PJ-01PJ 9.461,59 6.623,12 0,00 8.042,36 0,00 0,00 24.127,07 1.902,06 3.067,37 0,00 4.969,43 19.157,64 944,00 1.206,80 30/06/2017
314 653000 APARECIDA ROSA DE LIMA ASSESSOR ATIVO BELO HORIZONTE - COMARCA; SECRETARIA PROCESSOS DISCIPES ADMINISTRATIVOS 0,00 0,00 4.383,93 1.461,31 0,00 0,00 5.845,24 579,47 419,97 0,00 999,44 4.845,80 884,00 0,00 30/06/2017
315 354500 APARECIDA VIEIRA DE CARVALHO OFICIAL DO MP ATIVO BELO HORIZONTE - COMARCA; DIVISÃO DE EDUCAÇÃO PARA O CONSUMO 5.572,67 1.114,53 0,00 3.343,60 0,00 0,00 10.030,80 801,11 767,33 0,00 1.568,44 8.462,36 884,00 595,62 30/06/2017
316 551000 ARACELES BICALHO FELIX ANALISTA DO MP ATIVO MANHUAÇU - COMARCA; MANHUACU-PJ-02PJ 6.334,59 380,08 0,00 3.357,34 0,00 0,00 10.072,01 804,49 774,06 0,00 1.578,55 8.493,46 884,00 692,84 30/06/2017
317 286200 ARACELI MEDRADO DOS SANTOS LIMA OFICIAL DO MP ATIVO PARACATU - COMARCA; PARACATU-PJ-03PJ 5.226,73 1.045,35 0,00 3.136,04 0,00 0,00 9.408,12 750,51 665,73 0,00 1.416,24 7.991,88 1.046,00 550,68 30/06/2017
318 189000 ARAHY MARQUES SILVA OFICIAL DO MP ATIVO BELO HORIZONTE - COMARCA; BH-15PJ M AMB 16PJ HAB URB-SECRETARIA 5.226,73 1.568,02 0,00 3.397,38 0,00 0,00 10.192,13 813,04 793,66 0,00 1.606,70 8.585,43 884,00 596,58 30/06/2017
319 112200 ARAQUEM AUGUSTO DE MATOS AGENTE DO MP ATIVO BELO HORIZONTE - COMARCA; COORD ESTADUAL DE DEFESA DA EDUCACAO 5.396,93 4.317,54 0,00 4.857,24 0,00 1.068,59 15.640,30 1.159,45 1.645,71 0,00 2.805,16 12.835,14 884,00 1.054,57 30/06/2017
320 280600 ARDUINO FRATTEZI ANALISTA DO MP ATIVO BELO HORIZONTE - COMARCA; CENTRAL DE APOIO TECNICO-SETOR CONTABIL 12.623,91 2.524,78 0,00 7.574,35 0,00 0,00 22.723,04 1.808,06 2.838,28 0,00 4.646,34 18.076,70 884,00 1.288,10 30/06/2017
321 520201 ARIANE DE FATIMA CARVALHO ALMEIDA RODRIGUES ANALISTA DO MP ATIVO VESPASIANO - COMARCA; VESPASIANO-PJ-04PJ 6.134,81 0,00 0,00 2.439,99 0,00 0,00 8.574,80 728,65 580,00 0,00 1.308,65 7.266,15 884,00 489,28 30/06/2017
322 537600 ARIELA FREIRE MONTIJO ANALISTA DO MP ATIVO ARCOS - COMARCA; ARCOS-PJ-01PJ 6.973,61 418,42 0,00 0,00 2.464,01 0,00 9.856,04 877,98 1.513,17 0,00 2.391,15 7.464,89 1.583,00 589,56 30/06/2017
323 182000 ARILSON ALEXANDRE MARTINS MAGALHAES OFICIAL DO MP ATIVO JOÃO MONLEVADE - COMARCA; JOAO MONLEVADE-PJ-01PJ 10.755,28 4.302,11 0,00 7.528,70 0,00 0,00 22.586,09 1.797,15 2.711,66 0,00 4.508,81 18.077,28 884,00 1.280,36 30/06/2017
324 511000 ARISLANE CAROLINA DA SILVA ANALISTA DO MP ATIVO CAMPINA VERDE - COMARCA; CAMPINA VERDE-PJ-UNPJ 7.806,95 780,70 0,00 4.293,83 0,00 0,00 12.881,48 1.022,04 1.232,47 0,00 2.254,51 10.626,97 884,00 820,94 30/06/2017
325 170000 ARLEY BRITES DA SILVA ASSESSOR ATIVO BELO HORIZONTE - COMARCA; EXTINTA - DIVISÃO DE MATERIAL PERMANENTE 0,00 1.315,18 4.383,93 2.849,56 0,00 0,00 8.548,67 608,44 368,28 0,00 976,72 7.571,95 1.583,00 500,38 30/06/2017
326 120400 ARLINDO CASSIO DA CRUZ OFICIAL DO MP ATIVO SÃO GONÇALO DO SAPUCAÍ - COMARCA; SAO GONCALO DO SAPUCAI-PJ-01PJ 16.063,25 12.850,61 0,00 14.456,93 0,00 0,00 43.370,79 3.444,26 6.050,90 0,00 9.495,16 33.875,63 1.116,96 2.397,60 30/06/2017
327 243700 ARLINDO MARCIO LACERDA OFICIAL DO MP ATIVO CONTAGEM - COMARCA; CONTAGEM-PJ-03PJ 9.163,30 2.748,99 0,00 6.572,93 0,00 0,00 18.485,22 1.427,21 2.385,40 0,00 3.812,61 14.672,61 884,00 26.618,90 30/06/2017
328 392100 ARNALDO DE ANDRADE OFICIAL DO MP ATIVO DIVINÓPOLIS - COMARCA; DIVINOPOLIS-PJ-02PJ 6.540,78 654,08 0,00 4.214,21 0,00 0,00 11.409,07 862,02 1.178,68 0,00 2.040,70 9.368,37 1.583,00 1.986,84 30/06/2017
329 642400 ARTANE INARDE DE SIQUEIRA DAMASCENO ANALISTA DO MP ATIVO BELO HORIZONTE - COMARCA; BH-13ª PJ JUÍZO DE TÓXICOS-SECRETARIA 5.396,93 0,00 0,00 2.698,47 0,00 0,00 8.095,40 593,66 451,54 0,00 1.045,20 7.050,20 1.583,00 552,84 30/06/2017
330 302100 AUGUSTO ROUSSEAU DE CASTRO ANALISTA DO MP ATIVO CATAGUASES - COMARCA; CATAGUASES-PJ-02PJ 13.228,78 2.645,76 0,00 7.937,27 0,00 0,00 23.811,81 1.905,33 3.015,93 0,00 4.921,26 18.890,55 1.583,00 1.678,91 30/06/2017
331 540200 AUREA AVELAR OFICIAL DO MP ATIVO BELO HORIZONTE - COMARCA; GRUPO ESP PROM PROC JUST DEF PROB ADM PAT PUB 4.111,87 246,71 0,00 2.179,29 0,00 0,00 6.537,87 517,68 170,19 0,00 687,87 5.850,00 884,00 347,62 30/06/2017
332 183200 AURELIANO MAGELA DE REZENDE COORDENADOR/OFICIAL ATIVO BELO HORIZONTE - COMARCA; COORD DE GABINETE DO PGJ 11.466,98 5.733,50 0,00 8.600,24 0,00 0,00 25.800,72 1.770,56 3.409,83 0,00 5.180,39 20.620,33 884,00 1.390,26 30/06/2017
333 629400 AYESKA DA COSTA VAL MOURA DABIEN OFICIAL DO MP ATIVO BELO HORIZONTE - COMARCA; BH-18PJ VIOLENCIA DOMESTICA-SECRETARIA 3.982,20 0,00 0,00 1.991,10 1.327,40 0,00 7.300,70 472,98 470,32 0,00 943,30 6.357,40 884,00 317,60 30/06/2017
334 652800 BARBARA JULIANNE MOREIRA CASTRO ASSESSOR ATIVO BELO HORIZONTE - COMARCA; ASSESS TECNICO-JUR JUNTO AS PROC. DE JUST 0,00 0,00 6.973,61 2.324,54 0,00 0,00 9.298,15 608,44 1.124,16 0,00 1.732,60 7.565,55 884,00 0,00 30/06/2017
335 546500 BARBARA ZACARONI GOULART OFICIAL DO MP ATIVO BETIM - COMARCA; BETIM-PJ-08PJ 3.735,01 224,10 0,00 1.674,94 1.319,70 0,00 6.953,75 474,35 462,55 0,00 936,90 6.016,85 884,00 411,03 30/06/2017
336 316500 BEATRIZ ABILVIA DA SILVA ANALISTA DO MP ATIVO GOVERNADOR VALADARES - COMARCA; GOVERNADOR VALADARES-PJ-07PJ 12.225,81 2.445,16 0,00 7.335,49 0,00 0,00 22.006,46 1.762,01 2.721,36 0,00 4.483,37 17.523,09 884,00 1.347,14 30/06/2017
337 311800 BEATRIZ APARECIDA SOARES GANEM OFICIAL DO MP ATIVO ITAMBACURI - COMARCA; ITAMBACURI-PJ-02PJ 8.061,11 2.418,33 0,00 5.239,72 0,00 0,00 15.719,16 1.244,68 1.539,07 0,00 2.783,75 12.935,41 884,00 835,76 30/06/2017
338 266800 BEATRIZ AUGUSTA VILACA GOMES DE HUBER OFICIAL DO MP ATIVO BELO HORIZONTE - COMARCA; BH-05PJ-JUÍZO SUCESSÕES-SEC 6.753,72 1.350,74 0,00 0,00 0,00 0,00 8.104,46 967,31 1.114,21 0,00 2.081,52 6.022,94 884,00 689,14 30/06/2017
339 235200 BEATRIZ BOTELHO BATISTA OFICIAL DO MP ATIVO BELO HORIZONTE - COMARCA; BH-21PJ TUTELA FUNDACOES-SECRETARIA 7.806,95 2.342,09 0,00 5.074,52 0,00 0,00 15.223,56 1.211,31 1.614,62 0,00 2.825,93 12.397,63 884,00 999,96 30/06/2017
340 182300 BEATRIZ PAULA SOUSA RAMOS OFICIAL DO MP ATIVO MARIANA - COMARCA; MARIANA-PJ-01PJ 10.755,28 4.302,11 0,00 0,00 0,00 0,00 15.057,39 1.797,15 2.711,66 0,00 4.508,81 10.548,58 884,00 1.280,36 30/06/2017
341 507000 BELCHIOR FRANKLIN AMARAL LEITE ANALISTA DO MP ATIVO BELO HORIZONTE - COMARCA; CENTRAL DE APOIO TECNICO 7.806,95 780,70 0,00 3.283,48 0,00 0,00 11.871,13 1.022,04 1.076,06 0,00 2.098,10 9.773,03 2.282,00 820,94 30/06/2017
342 345100 BENITO ELIAS RODRIGUES ANALISTA DO MP ATIVO BARBACENA - COMARCA; BARBACENA-PJ-SECRETARIA 11.105,40 2.221,08 0,00 6.663,24 0,00 0,00 19.989,72 1.596,66 2.392,30 0,00 3.988,96 16.000,76 884,00 1.188,52 30/06/2017
343 207300 BENITO VIEIRA DOS SANTOS ANALISTA DO MP ATIVO BELO HORIZONTE - COMARCA; COMB CRIMES PRAT POR AG POL MUN-ASSESSORIA 16.063,25 6.425,30 0,00 11.244,28 0,00 2.473,74 36.206,57 2.675,42 3.650,67 0,00 6.326,09 29.880,48 884,00 2.035,14 30/06/2017
344 480200 BERNADETE NUNES DOS SANTOS ANALISTA DO MP ATIVO GUANHÃES - COMARCA; GUANHAES-PJ-02PJ 8.594,48 1.718,90 0,00 3.762,03 0,00 0,00 14.075,41 1.224,95 1.654,84 0,00 2.879,79 11.195,62 884,00 822,56 30/06/2017
345 378400 BETANIA FARNESI DE SOUZA E SILVA OFICIAL DO MP ATIVO SETE LAGOAS - COMARCA; SETE LAGOAS-PJ-03PJ 6.540,78 1.962,23 0,00 4.251,51 0,00 0,00 12.754,52 1.014,87 1.159,61 0,00 2.174,48 10.580,04 884,00 723,04 30/06/2017
346 387400 BETANIA MENDONCA DE ASSIS ANALISTA DO MP ATIVO BELO HORIZONTE - COMARCA; BH-08PJ JUIZADO ESPECIAL-SECRETARIA 10.416,20 1.041,62 0,00 5.728,91 0,00 0,00 17.186,73 1.363,47 1.934,94 0,00 3.298,41 13.888,32 1.066,76 937,30 30/06/2017
347 450300 BIANCA OLIVEIRA DE ALBUQUERQUE ANALISTA DO MP ATIVO BELO HORIZONTE - COMARCA; BH-10PJ EXECUÇÃO PENAL-SECRETARIA 8.594,48 859,45 0,00 4.726,97 0,00 0,00 14.180,90 1.131,23 1.444,49 0,00 2.575,72 11.605,18 1.583,00 830,06 30/06/2017
348 535400 BIANCA SALOTO ROSSI ANALISTA DO MP ATIVO SANTOS DUMONT - COMARCA; SANTOS DUMONT-PJ-01PJ 6.973,61 418,42 0,00 3.696,02 0,00 0,00 11.088,05 877,98 939,84 0,00 1.817,82 9.270,23 884,00 589,56 30/06/2017
349 120800 BRAS MARQUES DE SOUZA ANALISTA DO MP ATIVO BELO HORIZONTE - COMARCA; EXTINTA - SUPERINTENDENCIA ADMINISTRATIVA-SAD 20.277,14 16.221,71 0,00 15.235,56 0,00 0,00 51.734,41 3.351,82 6.432,03 6.027,74 15.811,59 35.922,82 884,00 0,00 30/06/2017
350 460900 BRENO CRISTIANO DE SOUZA REZENDE ANALISTA DO MP ATIVO ITAÚNA - COMARCA; ITAUNA-PJ-02PJ 7.200,69 720,07 0,00 3.960,38 0,00 0,00 11.881,14 940,78 1.069,25 0,00 2.010,03 9.871,11 884,00 631,70 30/06/2017
351 239000 BRENO VENANCIO ROMANINI OFICIAL DO MP ATIVO BELO HORIZONTE - COMARCA; BH-20PJ ORD ECON TRIBUTARIA-SECRETARIA 8.061,11 2.418,33 0,00 0,00 0,00 0,00 10.479,44 1.240,89 1.695,48 0,00 2.936,37 7.543,07 884,00 801,44 30/06/2017
352 202201 BRIGITTE AMARALINA DE CALDAS LIMA OFICIAL DO MP ATIVO NANUQUE - COMARCA; NANUQUE-PJ-03PJ 8.247,07 2.497,05 0,00 5.410,28 0,00 0,00 16.154,40 1.291,48 1.549,40 0,00 2.840,88 13.313,52 884,00 920,08 30/06/2017
353 642300 BRUNA IZABELITA DE FATIMA OLIVEIRA COSTA OFICIAL DO MP ATIVO PIUMHI - COMARCA; PIUMHI-PJ-02PJ 3.617,27 0,00 0,00 1.808,64 1.205,76 0,00 6.631,67 431,74 359,52 0,00 791,26 5.840,41 1.187,60 307,58 30/06/2017
354 513600 BRUNA KARLA MARTINS CARVALHO ANALISTA DO MP ATIVO GOVERNADOR VALADARES - COMARCA; GOVERNADOR VALADARES-PJ-01PJ 7.806,95 780,70 0,00 4.293,83 0,00 0,00 12.881,48 1.022,05 1.232,47 0,00 2.254,52 10.626,96 884,00 820,94 30/06/2017
355 415100 BRUNA MARIA SOARES OLIVEIRA COSTA RAMOS ANALISTA DO MP ATIVO UBÁ - COMARCA; COORD REG BACIA DO RIO PARAIBA DO SUL 9.461,59 946,16 0,00 3.792,48 0,00 0,00 14.200,23 1.246,96 1.677,94 0,00 2.924,90 11.275,33 884,00 928,21 30/06/2017
356 470000 BRUNA MORAES MARQUES ANALISTA DO MP ATIVO TOMBOS - COMARCA; TOMBOS-PJ-UNPJ 8.874,34 887,43 0,00 4.880,89 0,00 0,00 14.642,66 1.156,73 1.363,42 0,00 2.520,15 12.122,51 1.583,00 754,00 30/06/2017
357 614700 BRUNA NATTANY DE LIMA OFICIAL DO MP ATIVO MANTENA - COMARCA; MANTENA-PJ-02PJ 3.982,20 238,93 0,00 2.110,57 0,00 0,00 6.331,70 504,54 209,15 0,00 713,69 5.618,01 884,00 423,93 30/06/2017
358 631800 BRUNA RAPOSO JORGE OFICIAL DO MP ATIVO JUIZ DE FORA - COMARCA; JUIZ DE FORA-PJ-19PJ 3.982,20 0,00 0,00 1.991,10 0,00 0,00 5.973,30 472,98 176,82 0,00 649,80 5.323,50 884,00 317,60 30/06/2017
359 463800 BRUNO ALVES TEIXEIRA ANALISTA DO MP ATIVO UBERLÂNDIA - COMARCA; UBERLANDIA-PJ-04PJ 8.594,48 859,45 0,00 4.726,97 0,00 0,00 14.180,90 1.122,87 1.444,49 0,00 2.567,36 11.613,54 884,00 754,00 30/06/2017
360 538500 BRUNO AUGUSTO DA SILVA OFICIAL DO MP ATIVO SANTA LUZIA - COMARCA; SANTA LUZIA-PJ-03PJ 4.453,07 267,18 0,00 0,00 0,00 0,00 4.720,25 557,47 309,10 0,00 866,57 3.853,68 2.282,00 347,62 30/06/2017
361 318200 BRUNO BARROS DE SOUZA OFICIAL DO MP ATIVO UBÁ - COMARCA; UBA-PJ-04PJ 7.560,72 1.512,14 0,00 0,00 0,00 0,00 9.072,86 1.082,87 874,98 0,00 1.957,85 7.115,01 884,00 771,48 30/06/2017
362 459600 BRUNO CASTELAR LUGAO MENDES OFICIAL DO MP ATIVO GOVERNADOR VALADARES - COMARCA; GOVERNADOR VALADARES-PJ-05PJ 5.754,07 575,41 0,00 0,00 0,00 0,00 6.329,48 755,44 679,78 0,00 1.435,22 4.894,26 925,01 538,20 30/06/2017
363 427400 BRUNO CESAR RIBEIRO DE PAIVA ANALISTA DO MP ATIVO BELO HORIZONTE - COMARCA; ASSESS JUR DO CONS SUPERIOR DO MINISTERIO PUB 9.461,59 946,16 0,00 5.203,88 0,00 0,00 15.611,63 1.246,96 1.677,94 0,00 2.924,90 12.686,73 884,00 928,21 30/06/2017
364 380900 BRUNO CIRILO ANTUNES OFICIAL DO MP ATIVO VARGINHA - COMARCA; VARGINHA-PJ-05PJ 6.334,59 633,46 0,00 3.484,03 0,00 0,00 10.452,08 831,67 836,07 0,00 1.667,74 8.784,34 884,00 700,80 30/06/2017
365 329000 BRUNO DE MELO REIS ANALISTA DO MP ATIVO PATROCÍNIO - COMARCA; PATROCINIO-PJ-02PJ 12.225,81 3.667,74 0,00 7.946,78 0,00 0,00 23.840,33 1.887,73 2.968,45 0,00 4.856,18 18.984,15 884,00 1.267,58 30/06/2017
366 601700 BRUNO DIAS JUNQUEIRA PEREIRA ANALISTA DO MP ATIVO BELO HORIZONTE - COMARCA; ASSESS TECNICO-JUR JUNTO AS PROC. DE JUST 6.334,59 380,08 0,00 3.357,34 0,00 0,00 10.072,01 797,87 774,06 0,00 1.571,93 8.500,08 884,00 538,64 30/06/2017
367 378300 BRUNO HERDY LOPES DE OLIVEIRA ANALISTA DO MP ATIVO MANTENA - COMARCA; MANTENA-PJ-SECRETARIA 10.416,20 1.041,62 0,00 5.728,91 0,00 0,00 17.186,73 1.360,88 1.934,94 0,00 3.295,82 13.890,91 884,00 913,80 30/06/2017
368 529700 BRUNO JOSE BUENO DIAS OFICIAL DO MP ATIVO SÃO SEBASTIÃO DO PARAÍSO - COMARCA; SAO SEBASTIAO DO PARAISO-PJ-02PJ 4.453,07 267,18 0,00 2.360,13 0,00 0,00 7.080,38 561,33 266,44 0,00 827,77 6.252,61 884,00 382,68 30/06/2017
369 350100 BRUNO LAUD SERRANO DOS REIS OFICIAL DO MP ATIVO UBÁ - COMARCA; UBA-PJ-02PJ 6.540,78 1.308,16 0,00 3.924,47 0,00 0,00 11.773,41 936,80 999,53 0,00 1.936,33 9.837,08 884,00 667,42 30/06/2017
370 373800 BRUNO MARTINO DE ALBUQUERQUE ANALISTA DO MP ATIVO PONTE NOVA - COMARCA; PONTE NOVA-PJ-03PJ 10.416,20 1.041,62 0,00 5.728,91 0,00 0,00 17.186,73 1.360,88 1.830,67 0,00 3.191,55 13.995,18 884,00 913,80 30/06/2017
371 470400 BRUNO NOVAIS CABRAL ANALISTA DO MP ATIVO MUTUM - COMARCA; MUTUM-PJ-UNPJ 8.594,48 859,45 0,00 4.726,97 3.151,31 0,00 17.332,21 1.122,87 2.311,10 0,00 3.433,97 13.898,24 884,00 754,00 30/06/2017
372 648600 BRUNO RIBEIRO E MELO ASSESSOR ATIVO BELO HORIZONTE - COMARCA; DIRETORIA DE RELACOES PUBLICAS E CERIMONIAL 0,00 0,00 6.369,35 2.407,77 0,00 0,00 8.777,12 608,44 957,99 0,00 1.566,43 7.210,69 4.902,60 1.707,90 30/06/2017
373 369200 BRUNO ROBERTO DIAS DE OLIVEIRA OFICIAL DO MP ATIVO BELO HORIZONTE - COMARCA; BH-22PJ PES COM DEF E IDOSOS 6.753,72 1.350,74 0,00 4.052,23 0,00 0,00 12.156,69 964,37 1.114,21 0,00 2.078,58 10.078,11 884,00 662,56 30/06/2017
374 547700 BRUNO ROBERTO SOUZA GONCALVES ANALISTA DO MP ATIVO PARACATU - COMARCA; PARACATU-PJ-03PJ 6.334,59 380,08 0,00 0,00 0,00 0,00 6.714,67 804,49 774,06 0,00 1.578,55 5.136,12 1.736,28 598,85 30/06/2017
375 546100 BRUNO SA VIEIRA ANALISTA DO MP ATIVO ERVÁLIA - COMARCA; ERVALIA-PJ-UNPJ 6.973,61 418,42 0,00 3.696,02 0,00 0,00 11.088,05 877,98 887,70 0,00 1.765,68 9.322,37 884,00 592,48 30/06/2017
376 438200 BRUNO SALES PEREIRA ANALISTA DO MP ATIVO BELO HORIZONTE - COMARCA; CENTRAL DE APOIO TECNICO-SETOR CONTABIL 8.874,34 887,43 0,00 4.880,89 0,00 0,00 14.642,66 1.165,09 1.467,70 0,00 2.632,79 12.009,87 2.282,00 830,06 30/06/2017
377 537400 BRUNO SANT'ANA CESAR ANALISTA DO MP ATIVO CONTAGEM - COMARCA; CONTAGEM-PJ-19PJ 6.973,61 418,42 0,00 3.696,02 0,00 0,00 11.088,05 877,98 939,84 0,00 1.817,82 9.270,23 884,00 589,56 30/06/2017
378 405800 CAIO FERNANDO RODRIGUES DE OLIVEIRA ANALISTA DO MP ATIVO BELO HORIZONTE - COMARCA; ASSESS TECNICO-JUR JUNTO AS PROC. DE JUST 9.461,59 946,16 0,00 5.203,88 0,00 0,00 15.611,63 1.246,96 1.677,94 0,00 2.924,90 12.686,73 884,00 928,21 30/06/2017
379 530000 CAIO GUEDES DE OLIVEIRA ANALISTA DO MP ATIVO DIAMANTINA - COMARCA; DIAMANTINA-PJ-02PJ 6.973,61 418,42 0,00 2.845,61 0,00 0,00 10.237,64 877,98 887,70 0,00 1.765,68 8.471,96 2.282,00 589,56 30/06/2017
380 491400 CAIO MIRANDA JUNQUEIRA ANALISTA DO MP ATIVO BUENO BRANDAO - COMARCA; BUENO BRANDAO-PJ-UNPJ 7.200,69 720,07 0,00 3.960,38 0,00 0,00 11.881,14 942,68 1.017,11 0,00 1.959,79 9.921,35 1.583,00 649,02 30/06/2017
381 415800 CAMILA ALVES DA SILVA ANALISTA DO MP ATIVO CAETÉ - COMARCA; CAETE-PJ-01PJ 9.461,59 946,16 0,00 5.203,88 0,00 0,00 15.611,63 1.242,21 1.677,94 0,00 2.920,15 12.691,48 884,00 1.025,48 30/06/2017
382 555800 CAMILA CAROLINE ROCHA CHAVES OFICIAL DO MP ATIVO SALINAS - COMARCA; SALINAS-PJ-01PJ 4.111,87 246,71 0,00 1.821,23 0,00 0,00 6.179,81 520,20 236,68 0,00 756,88 5.422,93 942,88 432,39 30/06/2017
383 445200 CAMILA CONDE ROCHA ANALISTA DO MP ATIVO CONTAGEM - COMARCA; CONTAGEM-PJ-08PJ 8.594,48 859,45 0,00 4.726,97 0,00 0,00 14.180,90 1.131,23 1.444,49 0,00 2.575,72 11.605,18 1.583,00 961,82 30/06/2017
384 419900 CAMILA CUNNINGHAM PIMENTA DE PADUA ANALISTA DO MP ATIVO BELO HORIZONTE - COMARCA; ASSESSORIA PSICOSSOCIAL 9.461,59 946,16 0,00 5.203,88 0,00 0,00 15.611,63 1.246,96 1.677,94 0,00 2.924,90 12.686,73 884,00 928,21 30/06/2017
385 507700 CAMILA ELIZABETH RODRIGUES ANALISTA DO MP ATIVO BELO HORIZONTE - COMARCA; BH-02PJ FAMILIA-SECRETARIA 7.806,95 780,70 0,00 4.293,83 0,00 0,00 12.881,48 1.022,04 1.232,47 0,00 2.254,51 10.626,97 884,00 703,66 30/06/2017
386 372700 CAMILA FONSECA LIMONGE ANALISTA DO MP ATIVO BETIM - COMARCA; BETIM-PJ-12PJ 10.416,20 1.041,62 0,00 5.728,91 0,00 0,00 17.186,73 1.360,88 1.934,94 0,00 3.295,82 13.890,91 1.583,00 1.058,85 30/06/2017
387 621300 CAMILA GOLFETO DE SOUSA VALENTE OFICIAL DO MP ATIVO ESPERA FELIZ - COMARCA; ESPERA FELIZ-PJ-UNPJ 3.982,20 0,00 0,00 1.991,10 0,00 0,00 5.973,30 472,98 119,95 0,00 592,93 5.380,37 2.095,00 317,60 30/06/2017
388 409800 CAMILA GONCALVES COSTA RIBEIRO ANALISTA DO MP ATIVO INHAPIM - COMARCA; INHAPIM-PJ-02PJ 8.594,48 859,45 0,00 4.726,97 0,00 0,00 14.180,90 1.131,23 1.392,35 0,00 2.523,58 11.657,32 1.583,00 830,06 30/06/2017
389 335000 CAMILA GONTIJO DE PAIVA ANALISTA DO MP ATIVO BELO HORIZONTE - COMARCA; COORD DE CONTROLE DA CONSTITUCIONALIDADE 11.840,34 2.368,07 0,00 0,00 0,00 0,00 14.208,41 1.695,81 2.503,87 0,00 4.199,68 10.008,73 1.583,00 1.208,16 30/06/2017
390 547800 CAMILA MATTARELLI DE ABREU E SILVA ANALISTA DO MP ATIVO BELO HORIZONTE - COMARCA; COORD DE INCLUSAO E MOBILIZACAO SOCIAIS 6.334,59 380,08 0,00 3.357,34 0,00 0,00 10.072,01 807,36 774,06 0,00 1.581,42 8.490,59 884,00 625,01 30/06/2017
391 430000 CANDIDA MARINA COSTA ANALISTA DO MP ATIVO BELO HORIZONTE - COMARCA; DIVISAO DE DOCUMENTACAO JURIDICA 9.461,59 946,16 0,00 5.203,88 0,00 0,00 15.611,63 1.242,21 1.677,94 0,00 2.920,15 12.691,48 884,00 885,00 30/06/2017
392 614300 CARINA CORTIELHA OFICIAL DO MP ATIVO BELO HORIZONTE - COMARCA; BH-23PJ CIVEL-SEC EXP CIVEIS 3.617,27 217,04 0,00 1.627,73 0,00 0,00 5.462,04 499,08 214,65 0,00 713,73 4.748,31 884,00 702,74 30/06/2017
393 380400 CARINA DIAS FACANHA DE SOUZA ANALISTA DO MP ATIVO SANTA RITA DO SAPUCAÍ - COMARCA; SANTA RITA DO SAPUCAI-PJ-SECRETARIA 10.416,20 1.041,62 0,00 0,00 0,00 0,00 11.457,82 1.360,88 1.934,94 0,00 3.295,82 8.162,00 1.583,00 1.066,10 30/06/2017
394 255000 CARLA ADRIANA DE MENEZES OFICIAL DO MP ATIVO BELO HORIZONTE - COMARCA; CENT DE APOIO TEC-SETOR DEF,IDOSO E INFANC 8.061,11 1.612,22 0,00 4.836,67 0,00 0,00 14.510,00 1.161,78 1.498,19 0,00 2.659,97 11.850,03 884,00 888,24 30/06/2017
395 425100 CARLA ADRIANA DINIZ AMARAL OFICIAL DO MP ATIVO CONTAGEM - COMARCA; CONTAGEM-PJ-08PJ 6.334,59 633,46 0,00 3.484,03 0,00 0,00 10.452,08 836,88 783,93 0,00 1.620,81 8.831,27 884,00 639,83 30/06/2017
396 508100 CARLA ALESSANDRA FONSECA ANALISTA DO MP ATIVO BELO HORIZONTE - COMARCA; CAO-ORDEM ECONOMICA E TRIBUTARIA-SECRETARIA 7.806,95 780,70 0,00 4.293,83 0,00 0,00 12.881,48 1.022,04 1.232,47 0,00 2.254,51 10.626,97 977,82 815,35 30/06/2017
397 607100 CARLA ANGELICA DIAS MIRANDA OFICIAL DO MP ATIVO JABOTICATUBAS - COMARCA; JABOTICATUBAS-PJ-UNPJ 4.111,87 246,71 0,00 1.868,69 0,00 0,00 6.227,27 517,90 141,76 0,00 659,66 5.567,61 884,00 349,64 30/06/2017
398 351500 CARLA APARECIDA MENDES RAMIRIO OFICIAL DO MP ATIVO PASSOS - COMARCA; PASSOS-PJ-01PJ 6.753,72 1.350,74 0,00 4.052,23 0,00 0,00 12.156,69 967,31 1.062,07 0,00 2.029,38 10.127,31 884,00 803,99 30/06/2017
399 206200 CARLA BORGES DA COSTA COORDENADOR/ANALISTA ATIVO BELO HORIZONTE - COMARCA; DIRETORIA DE PROJETOS DE EDIFICACOES 16.063,25 10.325,04 0,00 9.039,65 0,00 0,00 35.427,94 2.867,64 5.658,55 0,00 8.526,19 26.901,75 5.106,13 2.562,89 30/06/2017
400 442800 CARLA GONCALVES COSTA SOALHEIRO ANALISTA DO MP ATIVO GOVERNADOR VALADARES - COMARCA; GOVERNADOR VALADARES-PJ-12PJ 8.594,48 859,45 0,00 4.726,97 0,00 0,00 14.180,90 1.131,23 1.392,35 0,00 2.523,58 11.657,32 2.282,00 964,28 30/06/2017
401 321500 CARLA GONCALVES MASSOTE OFICIAL DO MP ATIVO CAMPO BELO - COMARCA; CAMPO BELO-PJ-01PJ 7.560,72 1.512,14 0,00 4.536,43 0,00 0,00 13.609,29 1.082,87 1.351,22 0,00 2.434,09 11.175,20 884,00 771,48 30/06/2017
402 429200 CARLA HAUTEQUESTT BECHARA COORDENADOR/ANALISTA ATIVO BELO HORIZONTE - COMARCA; DIRET DE INFORMACAO E CONHECIMENTO-DINC/CEAF 9.461,59 3.239,56 0,00 6.350,58 0,00 0,00 19.051,73 1.242,19 2.308,62 0,00 3.550,81 15.500,92 884,00 1.107,48 30/06/2017
403 247500 CARLA MATILDE GUIMARAES DE OLIVEIRA OFICIAL DO MP ATIVO ITAJUBA - COMARCA; ITAJUBA-PJ-02PJ 8.061,11 2.418,33 0,00 5.239,72 0,00 0,00 15.719,16 1.255,55 1.643,35 0,00 2.898,90 12.820,26 884,00 934,60 30/06/2017
404 226100 CARLA MERLI DA CONCEICAO ANALISTA DO MP ATIVO BELO HORIZONTE - COMARCA; CENTRAL DE APOIO TECNICO-SETOR CONTABIL 16.063,25 4.818,98 0,00 10.441,12 0,00 0,00 31.323,35 2.476,55 4.189,43 0,00 6.665,98 24.657,37 1.719,29 1.708,43 30/06/2017
405 181401 CARLO MICHEL GAUDENSI COELHO ANALISTA DO MP ATIVO BELO HORIZONTE - COMARCA; BH-08PJ JUIZADO ESPECIAL-SECRETARIA 9.163,30 2.748,99 0,00 5.956,15 0,00 0,00 17.868,44 1.427,21 2.046,17 0,00 3.473,38 14.395,06 884,00 1.062,38 30/06/2017
406 634000 CARLOS ALBERTO AMORMINO TRIGUEIRO ANALISTA DO MP ATIVO BELO HORIZONTE - COMARCA; DIRET DE APOIO AS PROCURADORIAS DE JUSTICA 5.572,67 0,00 0,00 2.786,34 0,00 0,00 8.359,01 661,87 442,41 0,00 1.104,28 7.254,73 1.583,00 444,44 30/06/2017
407 637900 CARLOS ALBERTO DE MOURA OFICIAL DO MP ATIVO SETE LAGOAS - COMARCA; SETE LAGOAS-PJ-07PJ 3.617,27 0,00 0,00 0,00 0,00 0,00 3.617,27 430,14 99,67 0,00 529,81 3.087,46 1.583,00 294,56 30/06/2017
408 638700 CARLOS ALBERTO FERREIRA BRAGA ANALISTA DO MP ATIVO RIBEIRÃO DAS NEVES - COMARCA; RIBEIRAO DAS NEVES-PJ-11PJ 5.061,97 0,00 0,00 2.530,99 0,00 0,00 7.592,96 604,16 292,21 0,00 896,37 6.696,59 1.583,00 498,74 30/06/2017
409 375801 CARLOS ALBERTO ROCHA ANALISTA DO MP ATIVO ELOI MENDES - COMARCA; ELOI MENDES-PJ-SECRETARIA 7.560,72 453,64 0,00 0,00 0,00 0,00 8.014,36 952,98 1.092,15 0,00 2.045,13 5.969,23 884,00 649,02 30/06/2017
410 462800 CARLOS ANDREI SOARES FAGUNDES ANALISTA DO MP ATIVO MONTES CLAROS - COMARCA; MONTES CLAROS-PJ-09PJ 8.594,48 859,45 0,00 0,00 0,00 0,00 9.453,93 1.122,87 1.392,35 0,00 2.515,22 6.938,71 1.583,00 754,00 30/06/2017
411 370300 CARLOS AUGUSTO BUENO DIAS ASSESSOR ATIVO BELO HORIZONTE - COMARCA; SUPERINTENDÊNCIA DE ENGENHARIA E ARQUITETURA 0,00 0,00 8.874,34 4.437,17 0,00 0,00 13.311,51 608,44 1.016,45 0,00 1.624,89 11.686,62 884,00 779,16 30/06/2017
412 505100 CARLOS CEZAR CARVALHO ANALISTA DO MP ATIVO RIBEIRÃO DAS NEVES - COMARCA; RIBEIRAO DAS NEVES-PJ-04PJ 7.200,69 2.160,21 0,00 4.680,45 0,00 0,00 14.041,35 1.117,26 1.317,45 0,00 2.434,71 11.606,64 1.035,61 795,96 30/06/2017
413 195900 CARLOS DE SOUZA FERREIRA OFICIAL DO MP ATIVO COROMANDEL - COMARCA; COROMANDEL-PJ-UNPJ 8.594,48 6.016,14 0,00 0,00 0,00 0,00 14.610,62 1.748,27 2.654,45 0,00 4.402,72 10.207,90 884,00 1.282,82 30/06/2017
414 196800 CARLOS EDUARDO DE OLIVEIRA MARINHO OFICIAL DO MP ATIVO ALPINÓPOLIS - COMARCA; ALPINOPOLIS-PJ-UNPJ 11.105,40 5.552,70 0,00 8.329,05 0,00 0,00 24.987,15 1.988,19 3.155,57 0,00 5.143,76 19.843,39 884,00 1.416,48 30/06/2017
415 650800 CARLOS EDUARDO NIZA DA SILVA OFICIAL DO MP ATIVO IGARAPÉ - COMARCA; IGARAPE-PJ-SECRETARIA 3.182,15 0,00 0,00 1.591,08 0,00 0,00 4.773,23 350,04 55,39 0,00 405,43 4.367,80 884,00 0,00 30/06/2017
416 491800 CARLOS EDUARDO ROMAN OFICIAL DO MP ATIVO BARBACENA - COMARCA; BARBACENA-PJ-09PJ 5.572,67 1.114,53 0,00 3.343,60 0,00 0,00 10.030,80 813,94 767,33 0,00 1.581,27 8.449,53 884,00 720,27 30/06/2017
417 299300 CARLOS HENRIQUE BICALHO ANALISTA DO MP ATIVO BELO HORIZONTE - COMARCA; BH-17PJ PATRIMONIO PUBLICO-SECRETARIA 12.623,91 3.787,17 0,00 8.205,54 0,00 0,00 24.616,62 1.958,72 3.147,25 0,00 5.105,97 19.510,65 884,00 1.628,02 30/06/2017
418 205100 CARLOS HENRIQUE ESTEVES OFICIAL DO MP ATIVO ITAMBACURI - COMARCA; ITAMBACURI-PJ-01PJ 11.105,40 3.331,62 0,00 7.218,51 0,00 0,00 21.655,53 1.729,71 2.611,96 0,00 4.341,67 17.313,86 884,00 1.287,56 30/06/2017
419 351600 CARLOS HENRIQUE FELICIO DA FONSECA OFICIAL DO MP ATIVO JUIZ DE FORA - COMARCA; JUIZ DE FORA-PJ-21PJ 7.200,69 2.160,21 0,00 4.680,45 0,00 0,00 14.041,35 1.110,54 1.369,58 0,00 2.480,12 11.561,23 884,00 734,74 30/06/2017
420 85400 CARLOS JOSE VIEIRA OFICIAL DO MP ATIVO BELO HORIZONTE - COMARCA; DIRETORIA DO COLEGIO E DA CAMARA DE PJ 20.277,14 14.194,00 0,00 15.235,56 0,00 0,00 49.706,70 3.351,82 6.588,44 4.000,03 13.940,29 35.766,41 5.759,38 446,91 30/06/2017
421 229100 CARLOS MERCES DE OLIVEIRA ANALISTA DO MP ATIVO BELO HORIZONTE - COMARCA; CENTRAL DE APOIO TECN-SETOR DE MEIO AMBIENTE 14.863,02 4.458,91 0,00 9.660,97 0,00 0,00 28.982,90 2.304,91 2.867,33 0,00 5.172,24 23.810,66 884,00 1.631,86 30/06/2017
422 538300 CARLOS RANGEL SILVA DE MELO ANALISTA DO MP ATIVO BELO HORIZONTE - COMARCA; DIVISAO DE CONTROLE IMOBILIARIO 6.334,59 1.266,92 0,00 2.887,11 0,00 0,00 10.488,62 902,87 991,11 0,00 1.893,98 8.594,64 884,00 606,24 30/06/2017
423 265100 CARLOS REIFF MIRANDA ANALISTA DO MP ATIVO BELO HORIZONTE - COMARCA; BH-19PJ SAUDE-SECRETARIA 150PJ 12.225,81 2.445,16 0,00 7.335,49 0,00 0,00 22.006,46 1.762,01 2.721,36 0,00 4.483,37 17.523,09 884,00 1.347,14 30/06/2017
424 305400 CARLOS ROCHA DE SOUZA OFICIAL DO MP ATIVO MONTALVÂNIA - COMARCA; MONTALVANIA-PJ-SECRETARIA 5.226,73 1.045,35 0,00 3.136,04 0,00 0,00 9.408,12 750,51 457,18 0,00 1.207,69 8.200,43 2.913,17 550,68 30/06/2017
425 365100 CARLOS WAGNER SANDER MORAIS COORDENADOR/OFICIAL ATIVO BELO HORIZONTE - COMARCA; DIRETORIA DE ADMINISTRACAO FINANCEIRA 0,00 2.293,40 11.466,98 6.880,19 0,00 0,00 20.640,57 1.024,59 2.653,36 0,00 3.677,95 16.962,62 884,00 1.107,48 30/06/2017
426 399900 CARMELITA EVANGELISTA DE SOUZA OFICIAL DO MP ATIVO JOÃO PINHEIRO - COMARCA; JOAO PINHEIRO-PJ-01PJ 6.134,81 613,48 0,00 0,00 0,00 0,00 6.748,29 805,43 782,28 0,00 1.587,71 5.160,58 884,00 573,80 30/06/2017
427 390400 CARMEM APARECIDA ANTUNES RESENDE OFICIAL DO MP ATIVO IGARAPÉ - COMARCA; IGARAPE-PJ-01PJ 6.334,59 5.701,14 0,00 6.017,87 0,00 1.323,93 19.377,53 1.445,50 2.388,33 0,00 3.833,83 15.543,70 884,00 1.226,73 30/06/2017
428 202000 CARMEN LUCIA MARIZ DE MACEDO OFICIAL DO MP ATIVO BELO HORIZONTE - COMARCA; EXTINTA - DIVISÃO DE APOIO À LICITAÇÃO 10.755,28 5.377,64 0,00 8.066,46 0,00 0,00 24.199,38 1.932,88 2.974,90 0,00 4.907,78 19.291,60 884,00 1.438,81 30/06/2017
429 228500 CAROLINA CHIARELLA DOS SANTOS RIBEIRO OFICIAL DO MP ATIVO BELO HORIZONTE - COMARCA; GAECO - SECRETARIA 6.334,59 1.900,38 0,00 4.117,49 0,00 0,00 12.352,46 982,88 1.041,87 0,00 2.024,75 10.327,71 1.583,00 700,23 30/06/2017
430 446500 CAROLINA COSTA VAL RODRIGUES ANALISTA DO MP ATIVO CONTAGEM - COMARCA; CONTAGEM-PJ-05PJ 9.163,30 1.832,66 0,00 5.497,98 0,00 0,00 16.493,94 1.308,45 1.821,90 0,00 3.130,35 13.363,59 884,00 898,95 30/06/2017
431 603501 CAROLINA DOMINGOS BRANDAO ANALISTA DO MP ATIVO CARATINGA - COMARCA; CARATINGA-PJ-01PJ 6.334,59 380,08 0,00 2.601,00 0,00 0,00 9.315,67 792,43 774,06 0,00 1.566,49 7.749,18 884,00 570,83 30/06/2017
432 404300 CAROLINA DOS SANTOS VIEIRA ANALISTA DO MP ATIVO BELO HORIZONTE - COMARCA; BH-08PJ JUIZADO ESPECIAL-SECRETARIA 10.416,20 1.041,62 0,00 5.728,91 0,00 0,00 17.186,73 1.360,88 1.830,67 0,00 3.191,55 13.995,18 1.583,00 913,80 30/06/2017
433 551200 CAROLINA LOPES ARANTES MASCARENHAS ANALISTA DO MP ATIVO BELO HORIZONTE - COMARCA; EXTINTA - COORD DEFESA DO DIREITO DE FAMILIA 6.334,59 380,08 0,00 0,00 0,00 0,00 6.714,67 804,49 669,78 0,00 1.474,27 5.240,40 2.282,00 598,85 30/06/2017
434 622600 CAROLINA LOREDO LOPES OFICIAL DO MP ATIVO RIBEIRÃO DAS NEVES - COMARCA; RIBEIRAO DAS NEVES-PJ-12PJ 3.617,27 0,00 0,00 1.808,64 0,00 0,00 5.425,91 450,11 152,94 0,00 603,05 4.822,86 884,00 520,33 30/06/2017
435 382200 CAROLINA MENDES CHAVES LIN ANALISTA DO MP ATIVO BELO HORIZONTE - COMARCA; BH-12PJ JUIZO CRIMINAL-GAB 088PJ 8.323,51 832,35 0,00 4.577,93 0,00 0,00 13.733,79 1.092,78 1.319,40 0,00 2.412,18 11.321,61 1.583,00 778,54 30/06/2017
436 461900 CAROLINA MURTA TEIXEIRA DIAS ASSESSOR/ANALISTA ATIVO BELO HORIZONTE - COMARCA; PROCURADOR-GERAL DE JUSTICA- GABINETE 0,00 1.075,53 10.755,28 5.915,41 0,00 0,00 17.746,22 1.122,87 2.098,13 0,00 3.221,00 14.525,22 884,00 754,00 30/06/2017
437 509600 CAROLINA PINTO DE OLIVEIRA SOUZA ANALISTA DO MP ATIVO MURIAÉ - COMARCA; MURIAE-PJ-01PJ 7.806,95 780,70 0,00 3.231,34 0,00 0,00 11.818,99 1.022,04 1.180,33 0,00 2.202,37 9.616,62 2.631,00 815,35 30/06/2017
438 629100 CAROLINA RODRIGUES AMARAL ANALISTA DO MP ATIVO BELO HORIZONTE - COMARCA; PROC. JUSTICA DIR. DIFUSOS E COLETIVOS-SEC 6.134,81 0,00 0,00 3.067,41 0,00 0,00 9.202,22 728,65 632,13 0,00 1.360,78 7.841,44 884,00 566,94 30/06/2017
439 502600 CAROLINA RODRIGUES RUBEN ANALISTA DO MP ATIVO BELO HORIZONTE - COMARCA; EXTINTA-DEF DIREIT HUM-COMB A VIOL DOMEST-18 7.806,95 780,70 0,00 4.293,83 0,00 0,00 12.881,48 1.022,04 1.232,47 0,00 2.254,51 10.626,97 884,00 815,35 30/06/2017
440 529600 CAROLINA VAZ DE MELO MAMBRINI ANALISTA DO MP ATIVO MINAS NOVAS - COMARCA; MINAS NOVAS-PJ-UNPJ 6.973,61 418,42 0,00 3.696,02 2.464,01 0,00 13.552,06 877,98 1.617,44 0,00 2.495,42 11.056,64 884,00 589,56 30/06/2017
441 619100 CAROLINA ZAKHIA NARDELLI RODRIGUES ANALISTA DO MP ATIVO NEPOMUCENO - COMARCA; NEPOMUCENO-PJ-UNPJ 6.134,81 0,00 0,00 3.067,41 0,00 0,00 9.202,22 728,65 632,13 0,00 1.360,78 7.841,44 884,00 570,83 30/06/2017
442 517600 CAROLINE ALVES DE OLIVEIRA MULLER ANALISTA DO MP ATIVO VISCONDE DO RIO BRANCO - COMARCA; VISCONDE DO RIO BRANCO-PJ-01PJ 7.806,95 780,70 0,00 4.293,83 0,00 0,00 12.881,48 1.022,04 1.180,33 0,00 2.202,37 10.679,11 1.583,00 703,66 30/06/2017
443 373200 CAROLINE ANTUNES RIBEIRO OFICIAL DO MP ATIVO JACUI - COMARCA; JACUI-PJ-UNPJ 6.540,78 654,08 0,00 3.597,43 0,00 0,00 10.792,29 862,02 735,17 0,00 1.597,19 9.195,10 884,00 641,66 30/06/2017
444 556800 CAROLINE DE SOUZA CARDOSO OFICIAL DO MP ATIVO BRASÍLIA DE MINAS - COMARCA; BRASILIA DE MINAS-PJ-02PJ 3.735,01 224,10 0,00 1.979,56 0,00 0,00 5.938,67 470,44 173,74 0,00 644,18 5.294,49 2.698,60 396,78 30/06/2017
445 499400 CAROLINE MARQUES DE LOURDES MARZULLO OFICIAL DO MP ATIVO JUIZ DE FORA - COMARCA; JUIZ DE FORA-PJ-08PJ 5.572,67 557,27 0,00 3.064,97 2.043,31 0,00 11.238,22 749,78 1.192,85 0,00 1.942,63 9.295,59 2.631,00 770,13 30/06/2017
446 616800 CAROLINE MONTEIRO DE BARROS ANALISTA DO MP ATIVO CONTAGEM - COMARCA; CONTAGEM-PJ-11PJ 6.134,81 368,09 0,00 3.251,45 0,00 0,00 9.754,35 809,63 812,31 0,00 1.621,94 8.132,41 884,00 857,37 30/06/2017
447 618100 CAROLINE VASCONCELOS COSTA LANZA ANALISTA DO MP ATIVO PARAOPEBA - COMARCA; PARAOPEBA-PJ-UNPJ 6.134,81 368,09 0,00 3.251,45 2.167,63 0,00 11.921,98 809,63 1.408,41 0,00 2.218,04 9.703,94 2.282,00 935,03 30/06/2017
448 604000 CASSIA APARECIDA DA SILVA OFICIAL DO MP ATIVO PARACATU - COMARCA; PARACATU-PJ-01PJ 3.735,01 224,10 0,00 1.979,56 0,00 0,00 5.938,67 470,44 173,74 0,00 644,18 5.294,49 884,00 370,53 30/06/2017
449 268800 CASSIA BEATRIZ TEIXEIRA OFICIAL DO MP ATIVO BELO HORIZONTE - COMARCA; SECRETARIA PROCESSOS DISCIPES ADMINISTRATIVOS 9.163,30 1.832,66 0,00 5.497,98 0,00 0,00 16.493,94 1.321,83 1.821,90 0,00 3.143,73 13.350,21 936,79 1.020,68 30/06/2017
450 500000 CASSIA DE OLIVEIRA COSTA VIANA ANALISTA DO MP ATIVO SETE LAGOAS - COMARCA; SETE LAGOAS-PJ-09PJ 7.806,95 3.122,79 0,00 0,00 0,00 0,00 10.929,74 1.304,49 1.805,69 0,00 3.110,18 7.819,56 884,00 1.084,25 30/06/2017
451 368800 CASSIA LUISA BATISTA MENDONCA WEBER OFICIAL DO MP ATIVO BELO HORIZONTE - COMARCA; DIVISÃO DE EDUCAÇÃO PARA O CONSUMO 5.572,67 1.114,53 0,00 3.343,60 2.229,07 0,00 12.259,87 795,73 1.380,33 0,00 2.176,06 10.083,81 884,00 636,39 30/06/2017
452 622200 CASSIA VAZ DE AZEVEDO LISBOA MARZANO ASSESSOR ATIVO BELO HORIZONTE - COMARCA; CGMP-SECRETARIA DA CORREGEDORIA-GERAL DO MP 0,00 0,00 2.625,65 1.312,83 0,00 0,00 3.938,48 411,42 46,91 0,00 458,33 3.480,15 2.391,78 878,54 30/06/2017
453 121000 CASSIO HENRIQUE AFONSO DA SILVA OFICIAL DO MP ATIVO BELO HORIZONTE - COMARCA; ASSESS TECNICA DA CORREGEDORIA-GERAL DO MP 13.228,78 9.260,15 0,00 11.244,47 0,00 0,00 33.733,40 2.699,22 4.530,53 0,00 7.229,75 26.503,65 884,00 2.049,36 30/06/2017
454 121100 CASSIO MOREIRA DE MIRANDA AGENTE DO MP ATIVO BELO HORIZONTE - COMARCA; DIVISÃO DE FISCALIZAÇÃO DAS RELAÇÕES DE CONSU 3.735,01 2.988,00 0,00 3.978,29 0,00 0,00 10.701,30 804,45 362,68 0,00 1.167,13 9.534,17 884,00 2.694,29 30/06/2017
455 512001 CATARINA NATALINO CALIXTO ASSESSOR/ANALISTA ATIVO BELO HORIZONTE - COMARCA; EXTINTA - DIVISÃO DE APOIO À LICITAÇÃO 0,00 0,00 8.874,34 4.437,17 0,00 0,00 13.311,51 728,65 1.385,51 0,00 2.114,16 11.197,35 1.262,45 779,16 30/06/2017
456 606200 CATARINE DE SIQUEIRA DE QUADROS ANALISTA DO MP ATIVO RIBEIRÃO DAS NEVES - COMARCA; RIBEIRAO DAS NEVES-PJ-09PJ 5.754,07 345,24 0,00 3.049,66 0,00 0,00 9.148,97 724,74 571,31 0,00 1.296,05 7.852,92 1.583,00 570,83 30/06/2017
457 71800 CATIA EFIGENIA CARNEIRO DE FREITAS OFICIAL DO MP ATIVO BELO HORIZONTE - COMARCA; ASSESSORIA JURIDICO-ADMINISTRATIVA 23.365,79 18.692,64 0,00 15.235,56 0,00 3.351,82 60.645,81 3.351,82 7.458,06 11.587,32 22.397,20 38.248,61 884,00 0,00 30/06/2017
458 622300 CECILIA APARECIDA PEREIRA ASSUNCAO OFICIAL DO MP ATIVO TRÊS PONTAS - COMARCA; TRES PONTAS-PJ-SECRETARIA 3.982,20 0,00 0,00 1.991,10 0,00 0,00 5.973,30 472,98 148,39 0,00 621,37 5.351,93 1.583,00 317,60 30/06/2017
459 538000 CECILIA FONTES DE MATOS PIMENTEL ANALISTA DO MP ATIVO PALMA - COMARCA; PALMA-PJ-SECRETARIA 6.973,61 418,42 0,00 3.696,02 0,00 0,00 11.088,05 877,98 939,84 0,00 1.817,82 9.270,23 1.583,00 589,56 30/06/2017
460 261300 CECILIO ANTONIO CAMPOS DOS REIS ANALISTA DO MP ATIVO BELO HORIZONTE - COMARCA; AUDITORIA INTERNA 13.034,76 3.910,43 0,00 8.472,60 0,00 0,00 25.417,79 2.010,27 3.277,98 0,00 5.288,25 20.129,54 3.781,44 1.578,59 30/06/2017
461 386400 CEFAS AMORELI DE FIGUEIREDO OFICIAL DO MP ATIVO CABO VERDE - COMARCA; CABO VERDE-PJ-SECRETARIA 4.460,14 522,67 0,00 2.874,70 0,00 0,00 7.857,51 687,95 342,71 0,00 1.030,66 6.826,85 884,00 504,80 30/06/2017
462 149000 CELIA MAGALHAES CLAROS SOSSI OFICIAL DO MP ATIVO GOVERNADOR VALADARES - COMARCA; GOVERNADOR VALADARES-PJ-01PJ 12.225,81 6.112,90 0,00 9.169,36 0,00 0,00 27.508,07 2.202,49 3.619,04 0,00 5.821,53 21.686,54 884,00 1.683,92 30/06/2017
463 113100 CELIA MARIA ALVES PINTO OFICIAL DO MP ATIVO BELO HORIZONTE - COMARCA; DIVISÃO DE EDUCAÇÃO PARA O CONSUMO 8.323,51 5.826,45 0,00 7.074,98 0,00 1.556,50 22.781,44 1.688,86 3.021,88 0,00 4.710,74 18.070,70 884,00 1.335,54 30/06/2017
464 421000 CELINA BENEDITA DE SOUZA ALMEIDA OFICIAL DO MP ATIVO CAMBUÍ - COMARCA; CAMBUI-PJ-01PJ 6.334,59 3.167,30 0,00 4.750,95 0,00 0,00 14.252,84 1.141,19 1.404,09 0,00 2.545,28 11.707,56 884,00 872,49 30/06/2017
465 252900 CELIO DE MELO CASTOR ANALISTA DO MP ATIVO BELO HORIZONTE - COMARCA; BH-20PJ ORD ECON TRIBUTARIA-SECRETARIA 13.034,76 2.606,95 0,00 7.820,86 0,00 0,00 23.462,57 1.866,89 2.958,95 0,00 4.825,84 18.636,73 884,00 1.330,06 30/06/2017
466 395700 CELIO FERREIRA LIMA OFICIAL DO MP ATIVO CONTAGEM - COMARCA; CONTAGEM-PJ-07PJ 6.334,59 633,46 0,00 3.484,03 2.322,68 0,00 12.774,76 831,67 1.422,67 0,00 2.254,34 10.520,42 1.583,00 691,25 30/06/2017
467 281300 CELMA REGINA PEREIRA SANTOS ANALISTA DO MP ATIVO BELO HORIZONTE - COMARCA; DIVISAO DE DOCUMENTACAO JURIDICA 13.228,78 2.645,76 0,00 7.937,27 0,00 0,00 23.811,81 1.905,33 3.015,93 0,00 4.921,26 18.890,55 884,00 1.464,22 30/06/2017
468 535600 CELSO MEDEIROS DE PAIVA OFICIAL DO MP ATIVO RIO PRETO - COMARCA; RIO PRETO-PJ-SECRETARIA 4.111,87 246,71 0,00 2.179,29 0,00 0,00 6.537,87 517,68 198,63 0,00 716,31 5.821,56 884,00 402,80 30/06/2017
469 367000 CESAR NARVAES DE AVELAR COORDENADOR/OFICIAL ATIVO BELO HORIZONTE - COMARCA; DIVISAO DE MEMORIA INSTITUCIONAL 0,00 2.017,54 10.087,71 4.499,67 0,00 0,00 16.604,92 964,37 2.213,80 0,00 3.178,17 13.426,75 884,00 974,28 30/06/2017
470 226500 CESAR SILVEIRA BARROUIN OFICIAL DO MP ATIVO BELO HORIZONTE - COMARCA; DIRETORIA DE ADMINISTRACAO FINANCEIRA 9.163,30 2.748,99 0,00 5.956,15 0,00 0,00 17.868,44 1.427,21 2.046,17 0,00 3.473,38 14.395,06 1.396,34 1.062,38 30/06/2017
471 121400 CEZAR MORENO CONCEICAO TAVARES OFICIAL DO MP ATIVO ALMENARA - COMARCA; COORD REG INCLUSAO MOBILIZ VALE JEQUITINHONHA 12.225,81 8.558,06 0,00 10.391,94 0,00 0,00 31.175,81 2.468,57 4.217,49 0,00 6.686,06 24.489,75 884,00 1.657,60 30/06/2017
472 243800 CHARLES MARTINS MUNIZ OFICIAL DO MP ATIVO BELO HORIZONTE - COMARCA; LAB TECNOLOGIA CONTRA LAVAGEM DINHEIRO 9.163,30 2.748,99 0,00 5.956,15 0,00 0,00 17.868,44 1.427,21 2.046,17 0,00 3.473,38 14.395,06 884,00 1.062,38 30/06/2017
473 193500 CHARLIN CESAR KOURLY OFICIAL DO MP ATIVO ARAGUARI - COMARCA; ARAGUARI-PJ-07PJ 11.105,40 3.331,62 0,00 7.218,51 0,00 0,00 21.655,53 1.723,11 2.664,10 0,00 4.387,21 17.268,32 884,00 1.432,22 30/06/2017
474 385500 CHILLEN PEIXOTO DE MOURA OFICIAL DO MP ATIVO BELO HORIZONTE - COMARCA; DIVISÃO DE FISCALIZAÇÃO DAS RELAÇÕES DE CONSU 6.334,59 633,46 0,00 3.129,91 0,00 0,00 10.097,96 878,07 1.278,55 0,00 2.156,62 7.941,34 884,00 2.356,22 30/06/2017
475 534500 CHRISTIAN DOUGLAS BRITO RUAS OFICIAL DO MP ATIVO SÃO JOÃO DA PONTE - COMARCA; SAO JOAO DA PONTE-PJ-SECRETARIA 4.453,07 267,18 0,00 1.945,96 0,00 0,00 6.666,21 557,47 309,10 0,00 866,57 5.799,64 983,32 347,62 30/06/2017
476 370600 CHRISTIAN KARINE FELIX PRATES ASSESSOR ATIVO BELO HORIZONTE - COMARCA; SUPRIN DE PLANEJAMENTO E COORDENACAO 0,00 0,00 8.874,34 4.437,17 123,68 0,00 13.435,19 608,44 1.680,87 0,00 2.289,31 11.145,88 884,00 779,16 30/06/2017
477 435800 CHRISTIANA BAHIA ANDRADE PINA ANALISTA DO MP ATIVO BELO HORIZONTE - COMARCA; LAB TECNOLOGIA CONTRA LAVAGEM DINHEIRO 9.461,59 946,16 0,00 5.203,88 3.469,25 0,00 19.080,88 1.242,21 2.631,98 0,00 3.874,19 15.206,69 2.282,00 1.032,50 30/06/2017
478 516800 CHRISTIANE FERREIRA DO NASCIMENTO ANALISTA DO MP ATIVO ESTRELA DO SUL - COMARCA; ESTRELA DO SUL-PJ-UNPJ 7.806,95 780,70 0,00 3.205,27 0,00 0,00 11.792,92 1.022,04 1.232,47 0,00 2.254,51 9.538,41 884,00 703,66 30/06/2017
479 176000 CHRISTIANE JUNQUEIRA PULITI ANDRADE DE BARROS ASSESSOR ATIVO BELO HORIZONTE - COMARCA; SUPRIN DE FORMACAO E APERFEICOAMENTO-SFA/CEAF 0,00 10.404,11 14.863,02 12.633,57 0,00 0,00 37.900,70 3.023,42 5.262,63 0,00 8.286,05 29.614,65 884,00 2.218,46 30/06/2017
480 319200 CHRISTIANE MARIA DE ASSIS RUSSO OFICIAL DO MP ATIVO BELO HORIZONTE - COMARCA; CAO-ORDEM ECONOMICA E TRIBUTARIA-SECRETARIA 7.560,72 1.512,14 0,00 0,00 0,00 0,00 9.072,86 1.082,87 1.299,09 0,00 2.381,96 6.690,90 1.598,43 771,48 30/06/2017
481 510300 CHRISTIANE MARY DE CARVALHO FERREIRA ANALISTA DO MP ATIVO BELO HORIZONTE - COMARCA; DIRETORIA DE SISTEMAS DE INFORMACAO 7.806,95 780,70 0,00 4.293,83 2.862,55 0,00 15.744,03 1.022,04 1.967,53 0,00 2.989,57 12.754,46 1.583,00 820,94 30/06/2017
482 424900 CHRISTIANE PEREIRA TURNER DE ARAUJO OFICIAL DO MP ATIVO BELO HORIZONTE - COMARCA; CAO-PATRIMONIO PUBLICO 6.334,59 633,46 0,00 3.484,03 0,00 0,00 10.452,08 827,63 783,93 0,00 1.611,56 8.840,52 1.794,71 555,72 30/06/2017
483 513700 CHRISTIANE VIEIRA SOARES PEDERSOLI ANALISTA DO MP ATIVO BELO HORIZONTE - COMARCA; ASSESSORIA JURIDICA DO PROCON-MG 7.806,95 780,70 0,00 4.293,83 0,00 0,00 12.881,48 1.022,04 1.232,47 0,00 2.254,51 10.626,97 1.583,00 703,66 30/06/2017
484 412300 CHRYSTIAN MACHADO RIBEIRO ANALISTA DO MP ATIVO VARGINHA - COMARCA; VARGINHA-PJ-04PJ 9.461,59 946,16 0,00 3.792,48 0,00 0,00 14.200,23 1.246,96 1.677,94 0,00 2.924,90 11.275,33 884,00 928,21 30/06/2017
485 513800 CHRYSTIANE DO NASCIMENTO DE MAGALHAES OFICIAL DO MP ATIVO UBERLÂNDIA - COMARCA; UBERLANDIA-PJ-10PJ 5.396,93 539,69 0,00 2.968,31 0,00 0,00 8.904,93 703,21 479,35 0,00 1.182,56 7.722,37 1.583,00 456,24 30/06/2017
486 497900 CIBELE DE FREITAS SANCHES DIAS ANALISTA DO MP ATIVO SABARÁ - COMARCA; SABARA-PJ-03PJ 7.200,69 720,07 0,00 2.990,11 0,00 0,00 10.910,87 942,68 1.069,25 0,00 2.011,93 8.898,94 884,00 649,02 30/06/2017
487 500900 CIBELLE SILVA PRADO ALVARENGA ANALISTA DO MP ATIVO ITANHANDU - COMARCA; ITANHANDU-PJ-UNPJ 7.806,95 780,70 0,00 3.205,27 2.862,55 0,00 14.655,47 1.022,04 2.019,67 0,00 3.041,71 11.613,76 1.583,00 703,66 30/06/2017
488 296400 CINTIA APARECIDA MOREIRA NAVES E RODRIGUES ANALISTA DO MP ATIVO CAMPO BELO - COMARCA; CAMPO BELO-PJ-02PJ 12.623,91 2.524,78 0,00 7.574,35 0,00 0,00 22.723,04 1.808,06 2.838,28 0,00 4.646,34 18.076,70 1.583,00 1.288,10 30/06/2017
489 407900 CINTIA NETO COMELLI ANALISTA DO MP ATIVO BELO HORIZONTE - COMARCA; CENTRAL DE APOIO TECNICO-SETOR CONTABIL 9.461,59 946,16 0,00 5.203,88 0,00 0,00 15.611,63 1.246,96 1.625,80 0,00 2.872,76 12.738,87 1.583,00 933,01 30/06/2017
490 304700 CINTIA QUEIROZ OFICIAL DO MP ATIVO BELO HORIZONTE - COMARCA; DIR GESTAO SISTEMAS ATIVIDADE-FIM 8.061,11 1.612,22 0,00 4.836,67 0,00 0,00 14.510,00 1.148,93 1.498,19 0,00 2.647,12 11.862,88 884,00 771,48 30/06/2017
491 286100 CIRO CANGUSSU CORDEIRO OFICIAL DO MP ATIVO IPATINGA - COMARCA; IPATINGA-PJ-09PJ 5.572,67 1.114,53 0,00 3.343,60 0,00 0,00 10.030,80 806,03 715,20 0,00 1.521,23 8.509,57 884,00 735,13 30/06/2017
492 412500 CLARICE GOMES MAROTTA ANALISTA DO MP ATIVO BELO HORIZONTE - COMARCA; ASSESS TECNICO-JUR JUNTO AS PROC. DE JUST 9.461,59 2.838,48 0,00 6.150,04 0,00 0,00 18.450,11 1.459,21 2.141,08 0,00 3.600,29 14.849,82 884,00 965,44 30/06/2017
493 605300 CLARISSA AZEVEDO ROCHA OFICIAL DO MP ATIVO BELO HORIZONTE - COMARCA; EXTINTA - DIVISÃO DE COMPRAS 4.111,87 246,71 0,00 2.179,29 0,00 0,00 6.537,87 517,90 236,68 0,00 754,58 5.783,29 884,00 405,14 30/06/2017
494 308100 CLARISSA DUARTE MARTINS DIRETOR/ANALISTA ATIVO BELO HORIZONTE - COMARCA; DIRETORIA-GERAL 0,00 4.215,99 21.079,94 12.647,97 0,00 0,00 37.943,90 1.808,06 5.576,63 0,00 7.384,69 30.559,21 1.197,20 1.565,98 30/06/2017
495 497100 CLARISSA ROCHA GUIDI ANALISTA DO MP ATIVO BELO HORIZONTE - COMARCA; EXTINTA - JUIZO DE FAMILIA-02 PJ-02 VARA 7.806,95 780,70 0,00 4.293,83 0,00 0,00 12.881,48 1.022,04 1.232,47 0,00 2.254,51 10.626,97 884,00 703,66 30/06/2017
496 641800 CLARISSE TAVARES GONCALVES OFICIAL DO MP ATIVO BELO HORIZONTE - COMARCA; BH-07PJ 01 TRIBUNAL DO JURI 3.285,74 0,00 0,00 1.642,87 0,00 0,00 4.928,61 392,17 83,85 0,00 476,02 4.452,59 884,00 325,97 30/06/2017
497 463700 CLAUDIA ADRIANA FERRAO DIAS ANALISTA DO MP ATIVO SETE LAGOAS - COMARCA; SETE LAGOAS-PJ-06PJ 8.594,48 859,45 0,00 0,00 3.151,31 0,00 12.605,24 1.122,87 2.206,83 0,00 3.329,70 9.275,54 1.034,80 754,00 30/06/2017
498 415400 CLAUDIA ALMEIDA DE VASCONCELLOS BARROS ASSESSOR/OFICIAL ATIVO BELO HORIZONTE - COMARCA; COORD DE GABINETE DO PGJ 0,00 887,43 8.874,34 4.880,89 0,00 0,00 14.642,66 1.168,07 1.519,83 0,00 2.687,90 11.954,76 884,00 857,08 30/06/2017
499 207000 CLAUDIA APARECIDA VILELA MACHADO ANALISTA DO MP ATIVO BELO HORIZONTE - COMARCA; CENTRAL DE APOIO TECNICO-SETOR CONTABIL 16.063,25 6.425,30 0,00 11.244,28 0,00 0,00 33.732,83 2.690,94 4.478,30 0,00 7.169,24 26.563,59 884,00 1.974,50 30/06/2017
500 365700 CLAUDIA BREGUEZ CUNHA ANALISTA DO MP ATIVO VARGINHA - COMARCA; VARGINHA-PJ-07PJ 10.755,28 2.151,06 0,00 6.453,17 0,00 0,00 19.359,51 1.535,76 2.289,47 0,00 3.825,23 15.534,28 1.583,00 1.217,47 30/06/2017
501 430500 CLAUDIA CECILIA SANTANA VENCESLAU COORDENADOR/OFICIAL ATIVO BELO HORIZONTE - COMARCA; DIRET DE DESENV DE RECURSOS HUMANOS-DDRH 0,00 1.146,70 11.466,98 6.306,84 0,00 0,00 18.920,52 827,63 2.336,48 0,00 3.164,11 15.756,41 1.646,28 1.107,48 30/06/2017
502 112400 CLAUDIA CRISTINA FIUZA DE AVELAR AGENTE DO MP ATIVO BELO HORIZONTE - COMARCA; SERVICO MEDICO-DEPTO PERIC MEDICA SAUDE OCUP 7.322,31 3.661,15 0,00 5.491,73 0,00 0,00 16.475,19 1.315,13 1.818,84 0,00 3.133,97 13.341,22 884,00 972,35 30/06/2017
503 480400 CLAUDIA GOULART DE SOUZA OFICIAL DO MP ATIVO PASSOS - COMARCA; PASSOS-PJ-06PJ 5.572,67 1.114,53 0,00 3.343,60 0,00 0,00 10.030,80 801,19 767,33 0,00 1.568,52 8.462,28 884,00 596,40 30/06/2017
504 519800 CLAUDIA HELENA CORREA DE ALMEIDA ANALISTA DO MP ATIVO BELO HORIZONTE - COMARCA; BH-12PJ JUIZO CRIMINAL-GAB 104PJ 7.806,95 780,70 0,00 4.293,83 0,00 0,00 12.881,48 1.022,04 1.232,47 0,00 2.254,51 10.626,97 884,00 703,66 30/06/2017
505 422100 CLAUDIA IACOMINI CABRAL ANALISTA DO MP ATIVO BELO HORIZONTE - COMARCA; CENT DE APOIO TEC-SETOR DEF,IDOSO E INFANC 9.461,59 4.730,80 0,00 7.096,20 0,00 0,00 21.288,59 1.693,92 2.604,23 0,00 4.298,15 16.990,44 884,00 1.206,82 30/06/2017
506 258200 CLAUDIA LAGE MICHALAROS ANALISTA DO MP ATIVO BELO HORIZONTE - COMARCA; CENTRAL DE APOIO TECN-SETOR DE MEIO AMBIENTE 13.034,76 9.124,33 0,00 7.609,83 0,00 0,00 29.768,92 2.620,38 4.501,94 0,00 7.122,32 22.646,60 884,00 1.662,58 30/06/2017
507 284600 CLAUDIA LENI DE ABREU OFICIAL DO MP ATIVO CONTAGEM - COMARCA; CONTAGEM-PJ-22PJ 5.226,73 1.568,02 0,00 3.397,38 0,00 0,00 10.192,13 813,04 793,66 0,00 1.606,70 8.585,43 884,00 596,58 30/06/2017
508 433600 CLAUDIA LUIZA SANTIAGO FELICIO ANALISTA DO MP ATIVO BELO HORIZONTE - COMARCA; CENT DE APOIO TEC-SETOR DEF,IDOSO E INFANC 9.461,59 946,16 0,00 3.844,62 0,00 0,00 14.252,37 1.242,21 1.573,66 0,00 2.815,87 11.436,50 1.583,00 885,00 30/06/2017
509 317000 CLAUDIA MACHADO ALVES OFICIAL DO MP ATIVO BELO HORIZONTE - COMARCA; GABINETE DE SEGURANCA E INTELIGENCIA 6.334,59 1.266,92 0,00 3.800,76 0,00 0,00 11.402,27 902,87 991,11 0,00 1.893,98 9.508,29 884,00 606,24 30/06/2017
510 155300 CLAUDIA MACIEL MIRANDA E BELO OFICIAL DO MP ATIVO CONGONHAS - COMARCA; CONGONHAS-PJ-02PJ 12.225,81 6.112,91 0,00 9.169,36 0,00 0,00 27.508,08 2.167,42 3.514,77 0,00 5.682,19 21.825,89 884,00 1.365,08 30/06/2017
511 242200 CLAUDIA MICHELLE DIAS MUNIZ BALEEIRO OFICIAL DO MP ATIVO MONTE AZUL - COMARCA; MONTE AZUL-PJ-SECRETARIA 9.163,30 3.665,32 0,00 6.414,31 0,00 0,00 19.242,93 1.576,18 2.218,31 0,00 3.794,49 15.448,44 884,00 1.520,56 30/06/2017
512 623000 CLAUDIA PATRICIA SILVA RODRIGUES RAPOSEIRAS OFICIAL DO MP ATIVO BELO HORIZONTE - COMARCA; DIVISÃO DE EDUCAÇÃO PARA O CONSUMO 3.617,27 0,00 0,00 1.808,64 0,00 0,00 5.425,91 429,64 99,67 0,00 529,31 4.896,60 1.583,00 288,48 30/06/2017
513 418400 CLAUDIA REGINA MARTINS BONIFACIO OFICIAL DO MP ATIVO ITUIUTABA - COMARCA; ITUIUTABA-PJ-06PJ 6.334,59 633,46 0,00 3.484,03 0,00 0,00 10.452,08 836,88 731,79 0,00 1.568,67 8.883,41 884,00 639,83 30/06/2017
514 498300 CLAUDIA SOUTO FARIAS BRAUN OFICIAL DO MP ATIVO TEÓFILO OTONI - COMARCA; TEOFILO OTONI-PJ-SECRETARIA 4.598,03 459,80 0,00 2.105,04 0,00 0,00 7.162,87 601,94 291,39 0,00 893,33 6.269,54 884,00 483,51 30/06/2017
515 206500 CLAUDIA VALERIA FONSECA ANDRADE ANALISTA DO MP ATIVO BELO HORIZONTE - COMARCA; BH-23PJ INF-FISC MED SOC FEC 16.063,25 6.425,31 0,00 11.244,28 0,00 0,00 33.732,84 2.690,94 4.634,72 0,00 7.325,66 26.407,18 5.885,68 2.715,87 30/06/2017
516 277500 CLAUDIO ANTONIO BORGES ALVARES OFICIAL DO MP ATIVO BELO HORIZONTE - COMARCA; EXTINTA - DIVISAO DE MATERIAL DE CONSUMO 7.806,95 1.561,39 0,00 4.684,17 0,00 0,00 14.052,51 1.118,14 1.423,54 0,00 2.541,68 11.510,83 884,00 796,60 30/06/2017
517 444800 CLAUDIO ARESIO DO CARMO ANALISTA DO MP ATIVO SETE LAGOAS - COMARCA; SETE LAGOAS-PJ-01PJ 8.594,48 2.578,34 0,00 5.586,41 0,00 0,00 16.759,23 1.336,91 1.813,05 0,00 3.149,96 13.609,27 884,00 980,98 30/06/2017
518 541600 CLAUDIO DE OLIVEIRA MELO OFICIAL DO MP ATIVO CANÁPOLIS - COMARCA; CANAPOLIS-PJ-UNPJ 3.735,01 224,10 0,00 1.979,56 0,00 0,00 5.938,67 470,44 116,86 0,00 587,30 5.351,37 1.583,00 317,60 30/06/2017
519 545100 CLAUDIO HENRIQUE MACEDO DE SOUZA FRANSOZO ANALISTA DO MP ATIVO OURO PRETO - COMARCA; OURO PRETO-PJ-01PJ 6.973,61 418,42 0,00 0,00 0,00 0,00 7.392,03 877,98 939,84 0,00 1.817,82 5.574,21 884,00 592,36 30/06/2017
520 353500 CLAUDIO HENRIQUE PEDRO DA ROCHA OFICIAL DO MP ATIVO BELO HORIZONTE - COMARCA; CAO-CRIMINAL-SECRETARIA 7.200,69 1.440,14 0,00 4.320,42 0,00 0,00 12.961,25 1.031,33 1.141,21 0,00 2.172,54 10.788,71 884,00 734,73 30/06/2017
521 265800 CLAUDIO KUPIDLOWSKY FERNANDES ASSESSOR/OFICIAL ATIVO BELO HORIZONTE - COMARCA; SECRETARIA DO PROCON-MG 0,00 2.930,88 9.769,61 6.350,25 0,00 0,00 19.050,74 1.204,01 1.417,54 0,00 2.621,55 16.429,19 884,00 1.068,99 30/06/2017
522 193600 CLAUDIO LEITE FONTES OFICIAL DO MP ATIVO ITUIUTABA - COMARCA; ITUIUTABA-PJ-02PJ 6.753,72 2.701,49 0,00 4.727,61 0,00 0,00 14.182,82 1.122,21 1.187,13 0,00 2.309,34 11.873,48 884,00 746,56 30/06/2017
523 329400 CLAUDIO MARCIO BERNARDES OFICIAL DO MP ATIVO ITAÚNA - COMARCA; ITAUNA-PJ-04PJ 7.560,72 5.292,50 0,00 4.607,51 0,00 0,00 17.460,73 1.534,09 2.224,33 0,00 3.758,42 13.702,31 1.088,00 1.092,90 30/06/2017
524 270200 CLAUDIO RABELO ALVES OFICIAL DO MP ATIVO FORMIGA - COMARCA; FORMIGA-PJ-03PJ 8.323,51 2.497,05 0,00 5.410,28 0,00 0,00 16.230,84 1.283,70 1.570,42 0,00 2.854,12 13.376,72 884,00 849,32 30/06/2017
525 264700 CLAUDIO ROBERTO KFURI DE ARAUJO ANALISTA DO MP ATIVO BELO HORIZONTE - COMARCA; CENTRAL DE APOIO TECNICO-SETOR DE INFORMATICA 13.034,76 2.606,95 0,00 7.820,86 0,00 0,00 23.462,57 1.866,89 2.854,67 0,00 4.721,56 18.741,01 884,00 1.330,06 30/06/2017
526 188600 CLAUDIO SALES OFICIAL DO MP ATIVO NEPOMUCENO - COMARCA; NEPOMUCENO-PJ-SECRETARIA 10.755,28 7.528,69 0,00 9.141,99 0,00 0,00 27.425,96 2.182,26 3.605,64 0,00 5.787,90 21.638,06 1.583,00 1.554,72 30/06/2017
527 543300 CLAUDIO SILVA DE CARVALHO ANALISTA DO MP ATIVO CAMPO BELO - COMARCA; CAMPO BELO-PJ-04PJ 6.334,59 380,08 0,00 3.357,34 0,00 0,00 10.072,01 794,19 721,92 0,00 1.516,11 8.555,90 884,00 505,20 30/06/2017
528 160700 CLAUDIO VICENTE HESS ASSESSOR ATIVO BELO HORIZONTE - COMARCA; CENTRAL DE APOIO TECNICO-SETOR DE INFORMATICA 0,00 4.586,79 11.466,98 8.026,89 0,00 0,00 24.080,66 608,44 3.464,79 0,00 4.073,23 20.007,43 884,00 1.409,52 30/06/2017
529 312900 CLAUDIO VIEIRA FIRPE OFICIAL DO MP ATIVO BELO HORIZONTE - COMARCA; SUPERINTENDENCIA DE COMUNICACAO INTEGRADA 7.322,31 1.464,46 0,00 4.393,39 0,00 0,00 13.180,16 1.052,10 1.280,82 0,00 2.332,92 10.847,24 1.583,00 853,24 30/06/2017
530 634100 CLEA CRISTINA GUERRA DE FREITAS COSTA OFICIAL DO MP ATIVO BELO HORIZONTE - COMARCA; BH-18PJ VIOLENCIA DOMESTICA 3.617,27 0,00 0,00 0,00 0,00 0,00 3.617,27 429,64 99,67 0,00 529,31 3.087,96 1.583,00 288,48 30/06/2017
531 653100 CLEBER SOUZA SCALIONI ASSESSOR ATIVO BELO HORIZONTE - COMARCA; CENTRAL DE APOIO TECNICO-SETOR CONTABIL 0,00 0,00 6.973,61 2.324,54 0,00 0,00 9.298,15 608,44 1.124,16 0,00 1.732,60 7.565,55 884,00 0,00 30/06/2017
532 459200 CLEIA ZILLE PEREIRA ANALISTA DO MP ATIVO BELO HORIZONTE - COMARCA; ASSESS TECNICO-JUR JUNTO AS PROC. DE JUST 8.594,48 859,45 0,00 4.726,97 0,00 0,00 14.180,90 1.122,87 1.444,49 0,00 2.567,36 11.613,54 1.798,43 754,00 30/06/2017
533 481800 CLEIDE CARDOSO DA SILVA ANALISTA DO MP ATIVO MANHUAÇU - COMARCA; MANHUACU-PJ-04PJ 8.594,48 859,45 0,00 4.726,97 0,00 0,00 14.180,90 1.122,87 1.340,22 0,00 2.463,09 11.717,81 1.583,00 879,67 30/06/2017
534 347600 CLEIDIMAR DE OLIVEIRA SILVA OFICIAL DO MP ATIVO PATOS DE MINAS - COMARCA; COORD REG BACIAS PARACATU,URUCUIA E ABAETE 6.973,61 2.092,08 0,00 4.532,85 0,00 0,00 13.598,54 1.070,65 1.140,92 0,00 2.211,57 11.386,97 884,00 667,42 30/06/2017
535 396500 CLEIDISON BATISTA DE ANDRADE OFICIAL DO MP ATIVO RESPLENDOR - COMARCA; RESPLENDOR-PJ-UNPJ 5.226,73 522,67 0,00 0,00 1.916,47 0,00 7.665,87 687,95 908,42 0,00 1.596,37 6.069,50 1.583,00 585,29 30/06/2017
536 535100 CLEISON ALVES DA SILVA ANALISTA DO MP ATIVO BOA ESPERANÇA - COMARCA; BOA ESPERANCA-PJ-01PJ 6.973,61 418,42 0,00 3.696,02 0,00 0,00 11.088,05 877,98 835,57 0,00 1.713,55 9.374,50 1.583,00 589,56 30/06/2017
537 298100 CLEONICE AUGUSTA BARROS DE OLIVEIRA ANALISTA DO MP ATIVO JUIZ DE FORA - COMARCA; JUIZ DE FORA-PJ-08PJ 13.228,78 2.645,76 0,00 7.937,27 0,00 0,00 23.811,81 1.887,90 3.015,93 0,00 4.903,83 18.907,98 884,00 1.288,10 30/06/2017
538 60200 CLERES DE ALMEIDA AGENTE DO MP ATIVO BELO HORIZONTE - COMARCA; EXTINTA - DIVISAO DE TRANSPORTES 4.902,32 3.921,86 0,00 4.412,09 0,00 1.120,82 14.357,09 1.212,63 1.828,42 0,00 3.041,05 11.316,04 884,00 2.291,60 30/06/2017
539 114300 CLERES PEREIRA DA SILVA JUNIOR ASSESSOR ATIVO BELO HORIZONTE - COMARCA; GAECO - SECRETARIA 0,00 1.753,57 4.383,93 3.068,75 0,00 0,00 9.206,25 608,44 737,82 0,00 1.346,26 7.859,99 1.583,00 538,88 30/06/2017
540 264100 CLETO HENRIQUE ANDRADE SILVA ANALISTA DO MP ATIVO BELO HORIZONTE - COMARCA; DIRETORIA DE SISTEMAS DE INFORMACAO 13.034,76 2.606,95 0,00 7.820,86 0,00 0,00 23.462,57 1.866,89 2.802,54 0,00 4.669,43 18.793,14 884,00 1.330,06 30/06/2017
541 334400 CLEUBA DE OLIVEIRA BARCELOS GONCALVES OFICIAL DO MP ATIVO DIVINÓPOLIS - COMARCA; COORD REG SAUDE MACRORREGIAO SANITARIA OESTE 7.560,72 1.512,14 0,00 3.413,94 0,00 0,00 12.486,80 1.082,87 1.246,95 0,00 2.329,82 10.156,98 884,00 771,48 30/06/2017
542 347500 CLEUSA CORDEIRO DA MATA PIMENTA OFICIAL DO MP ATIVO CAMPO BELO - COMARCA; CAMPO BELO-PJ-02PJ 7.322,31 5.125,61 0,00 6.223,96 0,00 1.369,27 20.041,15 1.480,15 2.449,54 0,00 3.929,69 16.111,46 884,00 1.118,96 30/06/2017
543 510200 CLEZIO SALES SILVA OFICIAL DO MP ATIVO BRASÓPOLIS - COMARCA; BRASOPOLIS-PJ-UNPJ 4.245,74 424,57 0,00 1.928,74 0,00 0,00 6.599,05 555,83 299,10 0,00 854,93 5.744,12 1.765,23 382,68 30/06/2017
544 323000 CLOTILDE DE PADUA VIEIRA OFICIAL DO MP ATIVO BELO HORIZONTE - COMARCA; CGMP-DIVISAO DE APOIO ADMINISTRATIVO 5.396,93 1.079,39 0,00 3.238,16 0,00 0,00 9.714,48 772,98 715,72 0,00 1.488,70 8.225,78 884,00 550,68 30/06/2017
545 285200 CLOVIS ANDRE LUDTKE OFICIAL DO MP ATIVO BELO HORIZONTE - COMARCA; DIVISAO DE MANUTENCAO PREDIAL 8.061,11 1.612,22 0,00 4.836,67 0,00 0,00 14.510,00 1.161,78 1.498,19 0,00 2.659,97 11.850,03 884,00 888,24 30/06/2017
546 381100 CONCEICAO APARECIDA TEIXEIRA ARANTES ANALISTA DO MP ATIVO BELO HORIZONTE - COMARCA; BH-23PJ INFRACIONAL-ASS JURIDICA 10.087,71 1.008,77 0,00 5.548,24 0,00 0,00 16.644,72 1.329,47 1.794,37 0,00 3.123,84 13.520,88 1.583,00 989,64 30/06/2017
547 249900 CONSTANTINO CEZAR GOMES MOTA OFICIAL DO MP ATIVO MONTES CLAROS - COMARCA; COORD REG BACIA RIOS VERDE GRANDE E PARDO 6.973,61 1.394,72 0,00 4.184,17 0,00 0,00 12.552,50 998,78 1.126,65 0,00 2.125,43 10.427,07 884,00 711,58 30/06/2017
548 481000 CRISHMA ANALIA LOMBELLO ANALISTA DO MP ATIVO JUIZ DE FORA - COMARCA; JUIZ DE FORA-PJ-13PJ 8.594,48 859,45 0,00 4.726,97 0,00 0,00 14.180,90 1.122,87 1.392,35 0,00 2.515,22 11.665,68 884,00 754,00 30/06/2017
549 187500 CRISLEY PATRICK TOSTES OFICIAL DO MP ATIVO JUIZ DE FORA - COMARCA; JUIZ DE FORA-PJ-17PJ 11.105,40 3.331,62 0,00 7.218,51 0,00 0,00 21.655,53 1.729,71 2.664,10 0,00 4.393,81 17.261,72 884,00 1.287,56 30/06/2017
550 523900 CRISTHYANE BAZOLI COSTA GUEDES OFICIAL DO MP ATIVO BELO HORIZONTE - COMARCA; EXTINTA-04ª PJ JUÍZO REG PÚBLICOS-SECRETARIA 5.396,93 539,69 0,00 2.968,31 0,00 0,00 8.904,93 738,79 658,34 0,00 1.397,13 7.507,80 884,00 784,93 30/06/2017
551 187000 CRISTIAN DAYVSON EVANGELISTA OFICIAL DO MP ATIVO JUIZ DE FORA - COMARCA; JUIZ DE FORA-PJ-09PJ 10.755,28 3.226,58 0,00 4.971,65 4.660,62 0,00 23.614,13 1.668,78 3.782,23 0,00 5.451,01 18.163,12 884,00 1.188,90 30/06/2017
552 319800 CRISTIANA GONCALVES DOS SANTOS GUSMAO OFICIAL DO MP ATIVO SETE LAGOAS - COMARCA; SETE LAGOAS-PJ-10PJ 7.322,31 1.464,46 0,00 4.393,39 0,00 0,00 13.180,16 1.044,80 1.281,20 0,00 2.326,00 10.854,16 884,00 711,58 30/06/2017
553 520600 CRISTIANA JANAINA BARBOZA JUVENCIO DOS SANTOS ANALISTA DO MP ATIVO BELO HORIZONTE - COMARCA; EXTINTA - JUIZO DE FAMILIA-02 PJ-02 VARA 7.806,95 780,70 0,00 4.293,83 0,00 0,00 12.881,48 1.022,04 1.232,47 0,00 2.254,51 10.626,97 884,00 703,66 30/06/2017
554 195600 CRISTIANA SOARES HALABI OFICIAL DO MP ATIVO UBERABA - COMARCA; UBERABA-PJ-11PJ 11.466,98 3.440,09 0,00 7.453,54 0,00 0,00 22.360,61 1.770,56 2.779,14 0,00 4.549,70 17.810,91 884,00 1.188,90 30/06/2017
555 218900 CRISTIANE ALVES BELLES OFICIAL DO MP ATIVO JUIZ DE FORA - COMARCA; JUIZ DE FORA-PJ-10PJ 5.226,73 1.568,02 0,00 3.397,38 0,00 0,00 10.192,13 813,04 689,38 0,00 1.502,42 8.689,71 1.932,00 596,58 30/06/2017
556 263600 CRISTIANE CARVALHO COUTINHO OFICIAL DO MP ATIVO BELO HORIZONTE - COMARCA; BH-23PJ INFRACIONAL-SEC EXP 8.061,11 2.418,33 0,00 5.239,72 0,00 0,00 15.719,16 1.250,45 1.643,35 0,00 2.893,80 12.825,36 884,00 888,24 30/06/2017
557 541000 CRISTIANE COELHO ALVES OFICIAL DO MP ATIVO ITABIRA - COMARCA; ITABIRA-PJ-03PJ 4.111,87 246,71 0,00 0,00 1.452,86 0,00 5.811,44 517,68 544,80 0,00 1.062,48 4.748,96 884,00 405,55 30/06/2017
558 441700 CRISTIANE CORRADO DE ANDRADE ANALISTA DO MP ATIVO BELO HORIZONTE - COMARCA; DIRETORIA DE SISTEMAS DE INFORMACAO 9.461,59 946,16 0,00 5.203,88 0,00 0,00 15.611,63 1.242,21 1.677,94 0,00 2.920,15 12.691,48 884,00 885,00 30/06/2017
559 375100 CRISTIANE DAS DORES ERCIO DE LIMA OFICIAL DO MP ATIVO GOVERNADOR VALADARES - COMARCA; COOR REG INCLUSAO MOBILIZ VALE DO RIO DOCE 6.134,81 613,48 0,00 3.374,15 0,00 0,00 10.122,44 808,52 782,28 0,00 1.590,80 8.531,64 884,00 601,84 30/06/2017
560 178800 CRISTIANE DE LIMA HOSKEN OFICIAL DO MP ATIVO BELO HORIZONTE - COMARCA; BH-14PJ DEFESA CONSUMIDOR-GAB 110PJ 11.105,40 3.331,62 0,00 7.218,51 0,00 0,00 21.655,53 1.804,79 2.689,42 0,00 4.494,21 17.161,32 884,00 1.970,12 30/06/2017
561 494000 CRISTIANE DE MELO MARQUEZ OLIVEIRA ANALISTA DO MP ATIVO UBERLÂNDIA - COMARCA; UBERLANDIA-PJ-06PJ 7.806,95 780,70 0,00 4.293,83 0,00 0,00 12.881,48 1.022,04 1.232,47 0,00 2.254,51 10.626,97 1.583,00 820,94 30/06/2017
562 266100 CRISTIANE DE OLIVEIRA CASTRO OFICIAL DO MP ATIVO BELO HORIZONTE - COMARCA; BH-14PJ DEFESA CONSUMIDOR-SECRETARIA 9.163,30 2.748,99 0,00 6.572,93 0,00 0,00 18.485,22 1.472,80 2.281,13 0,00 3.753,93 14.731,29 1.583,00 4.224,35 30/06/2017
563 329500 CRISTIANE DOS REIS SILVA OFICIAL DO MP ATIVO ARAXÁ - COMARCA; ARAXA-PJ-04PJ 6.973,61 1.394,72 0,00 4.184,17 0,00 0,00 12.552,50 998,78 1.074,51 0,00 2.073,29 10.479,21 884,00 711,58 30/06/2017
564 301600 CRISTIANE GODINHO PIRES ANALISTA DO MP ATIVO BETIM - COMARCA; BETIM-PJ-07PJ 12.225,81 2.445,16 0,00 7.335,49 0,00 0,00 22.006,46 1.751,05 2.721,36 0,00 4.472,41 17.534,05 884,00 1.247,50 30/06/2017
565 406100 CRISTIANE GONCALVES CHAVES ANALISTA DO MP ATIVO BELO HORIZONTE - COMARCA; BH-09PJ AUDITORIA MILITAR-SECRETARIA 10.416,20 2.083,24 0,00 6.249,72 0,00 0,00 18.749,16 1.484,60 2.189,88 0,00 3.674,48 15.074,68 884,00 996,86 30/06/2017
566 487600 CRISTIANE LOPES DE OLIVEIRA OFICIAL DO MP ATIVO CARMO DA MATA - COMARCA; CARMO DA MATA-PJ-SECRETARIA 4.598,03 459,80 0,00 0,00 0,00 0,00 5.057,83 603,66 334,04 0,00 937,70 4.120,13 884,00 430,08 30/06/2017
567 502500 CRISTIANE MACIEL DE OLIVEIRA GOMES CRUZ REIS ANALISTA DO MP ATIVO JUIZ DE FORA - COMARCA; JUIZ DE FORA-PJ-05PJ 7.806,95 780,70 0,00 4.293,83 0,00 0,00 12.881,48 1.022,04 1.232,47 0,00 2.254,51 10.626,97 884,00 703,66 30/06/2017
568 285500 CRISTIANE MAGALHAES LOURENCO ANALISTA DO MP ATIVO BELO HORIZONTE - COMARCA; CENTRAL DE APOIO TECNICO-SETOR CONTABIL 12.623,91 2.524,78 0,00 7.574,35 0,00 0,00 22.723,04 1.808,06 2.734,01 0,00 4.542,07 18.180,97 884,00 1.288,10 30/06/2017
569 536500 CRISTIANE MICHELE DE SOUZA ANALISTA DO MP ATIVO BARÃO DE COCAIS - COMARCA; BARAO DE COCAIS-PJ-UNPJ 6.973,61 418,42 0,00 3.696,02 0,00 0,00 11.088,05 877,98 835,57 0,00 1.713,55 9.374,50 1.583,00 687,82 30/06/2017
570 346600 CRISTIANE NOGUEIRA ANDRADE ANALISTA DO MP ATIVO BELO HORIZONTE - COMARCA; CENTRAL DE APOIO TECNICO-SETOR CONTABIL 11.105,40 2.221,08 0,00 6.663,24 4.442,16 0,00 24.431,88 1.596,66 3.613,89 0,00 5.210,55 19.221,33 884,00 1.383,53 30/06/2017
571 234000 CRISTIANE OLIVEIRA TOSTES OFICIAL DO MP ATIVO JUIZ DE FORA - COMARCA; JUIZ DE FORA-PJ-08PJ 10.416,20 3.124,86 0,00 6.770,53 0,00 0,00 20.311,59 1.599,18 2.444,81 0,00 4.043,99 16.267,60 884,00 996,86 30/06/2017
572 445800 CRISTIANE ORZIL COSTA OFICIAL DO MP ATIVO SANTA LUZIA - COMARCA; SANTA LUZIA-PJ-05PJ 5.226,73 522,67 0,00 0,00 0,00 0,00 5.749,40 681,27 537,81 0,00 1.219,08 4.530,32 884,00 444,08 30/06/2017
573 616100 CRISTIANE PAES RODRIGUES MARCICANO ANALISTA DO MP ATIVO CATAGUASES - COMARCA; CATAGUASES-PJ-05PJ 5.061,97 0,00 0,00 2.530,99 0,00 0,00 7.592,96 605,70 377,53 0,00 983,23 6.609,73 1.583,00 444,44 30/06/2017
574 612300 CRISTIANE RIBEIRO DOS REIS ARCANJO ASSESSOR/OFICIAL ATIVO BELO HORIZONTE - COMARCA; EXTINTA - DIRETORIA SERVIÇOS GERAIS E TRANS 0,00 418,42 6.973,61 3.696,02 0,00 0,00 11.088,05 517,90 979,47 0,00 1.497,37 9.590,68 884,00 612,28 30/06/2017
575 257700 CRISTIANE RODRIGUES PAES NUNES ANALISTA DO MP ATIVO BELO HORIZONTE - COMARCA; BH-22PJ PES COM DEF E IDOSOS-ORIENTACAO PSIC 13.228,78 2.645,76 0,00 7.937,27 0,00 0,00 23.811,81 1.905,33 2.963,80 0,00 4.869,13 18.942,68 884,00 1.446,61 30/06/2017
576 510800 CRISTIANE SANTOS FERNANDES ORNELES ANALISTA DO MP ATIVO BELO HORIZONTE - COMARCA; COORD ESTADUAL DAS PJS DE HAB. E URBANISMO 7.806,95 780,70 0,00 3.231,34 0,00 0,00 11.818,99 1.022,04 1.180,33 0,00 2.202,37 9.616,62 884,00 703,66 30/06/2017
577 535701 CRISTIANE SANTOS MIRANDA ANALISTA DO MP ATIVO BETIM - COMARCA; BETIM-PJ-02PJ 5.396,93 0,00 0,00 2.698,47 0,00 0,00 8.095,40 593,66 359,29 0,00 952,95 7.142,45 884,00 0,00 30/06/2017
578 536200 CRISTIANO DE OLIVEIRA ANALISTA DO MP ATIVO CONCEIÇÃO DO MATO DENTRO - COMARCA; CONCEICAO DO MATO DENTRO-PJ-UNPJ 7.560,72 453,64 0,00 4.007,18 0,00 0,00 12.021,54 952,98 1.092,15 0,00 2.045,13 9.976,41 884,00 649,02 30/06/2017
579 477400 CRISTIANO SOARES ELEUTERIO ANALISTA DO MP ATIVO BELO HORIZONTE - COMARCA; BH-17PJ PATRIMONIO PUBLICO 8.594,48 859,45 0,00 4.726,97 0,00 0,00 14.180,90 1.122,87 1.444,49 0,00 2.567,36 11.613,54 1.245,92 754,00 30/06/2017
580 449400 CRISTIANO TEIXEIRA RODRIGUES LANA ANALISTA DO MP ATIVO BELO HORIZONTE - COMARCA; ASSESS TECNICO-JUR JUNTO AS PROC. DE JUST 8.594,48 859,45 0,00 4.726,97 0,00 0,00 14.180,90 1.131,23 1.444,49 0,00 2.575,72 11.605,18 884,00 830,06 30/06/2017
581 239400 CRISTINA DE FATIMA CRUZ E SILVA OFICIAL DO MP ATIVO MONTE SANTO DE MINAS - COMARCA; MONTE SANTO DE MINAS-PJ-SECRETARIA 9.163,30 2.748,99 0,00 5.956,15 0,00 0,00 17.868,44 1.450,90 2.046,17 0,00 3.497,07 14.371,37 901,14 1.292,01 30/06/2017
582 544000 CRISTINA DE OLIVEIRA TERRA ANALISTA DO MP ATIVO MATOZINHOS - COMARCA; MATOZINHOS-PJ-01PJ 6.973,61 418,42 0,00 0,00 0,00 0,00 7.392,03 877,98 939,84 0,00 1.817,82 5.574,21 884,00 683,29 30/06/2017
583 356800 CRISTINA DE PINHO BARROSO OFICIAL DO MP ATIVO SABINÓPOLIS - COMARCA; SABINOPOLIS-PJ-UNPJ 5.941,34 1.782,40 0,00 0,00 0,00 0,00 7.723,74 910,19 916,75 0,00 1.826,94 5.896,80 884,00 642,46 30/06/2017
584 649500 CRISTINA DO DIVINO ESPIRITO SANTOS OFICIAL DO MP ATIVO DIVINÓPOLIS - COMARCA; DIVINOPOLIS-PJ-12PJ 3.503,19 0,00 0,00 1.516,70 0,00 0,00 5.019,89 385,35 84,44 0,00 469,79 4.550,10 884,00 0,00 30/06/2017
585 348201 CRISTINA MARIA DA SILVA ANALISTA DO MP ATIVO PATOS DE MINAS - COMARCA; PATOS DE MINAS-PJ-02PJ 8.594,48 859,45 0,00 4.726,97 0,00 0,00 14.180,90 1.128,35 1.444,49 0,00 2.572,84 11.608,06 884,00 937,86 30/06/2017
586 434900 CRISTINA MELO DE MADUREIRA ANALISTA DO MP ATIVO BELO HORIZONTE - COMARCA; BH-07PJ 01 TRIBUNAL DO JURI 9.461,59 946,16 0,00 5.203,88 0,00 0,00 15.611,63 1.242,21 1.677,94 0,00 2.920,15 12.691,48 884,00 885,00 30/06/2017
587 307700 CRISTINA TEIXEIRA MARQUES OFICIAL DO MP ATIVO BELO HORIZONTE - COMARCA; CENTRAL DE APOIO TECNICO-SETOR CONTABIL 6.540,78 1.308,16 0,00 3.924,47 0,00 0,00 11.773,41 940,39 1.051,67 0,00 1.992,06 9.781,35 884,00 700,00 30/06/2017
588 265300 CRISTOVAO SANCHES DE MEDEIROS ANALISTA DO MP ATIVO BELO HORIZONTE - COMARCA; DIRETORIA DE CONTABILIDADE 12.225,81 2.445,16 0,00 7.335,49 0,00 0,00 22.006,46 1.762,01 2.617,08 0,00 4.379,09 17.627,37 884,00 1.347,14 30/06/2017
589 349800 CROZEIR LUIZ DA SILVA OFICIAL DO MP ATIVO UNAÍ - COMARCA; UNAI-PJ-SECRETARIA 6.973,61 1.394,72 0,00 4.184,17 0,00 0,00 12.552,50 987,82 1.126,65 0,00 2.114,47 10.438,03 3.787,04 611,80 30/06/2017
590 490500 CYNTHIA CRISTINA DE SOUZA OLIVEIRA VALENTE ANALISTA DO MP ATIVO BELO HORIZONTE - COMARCA; BH-09PJ AUDITORIA MILITAR 7.806,95 780,70 0,00 0,00 0,00 0,00 8.587,65 1.022,04 1.232,47 0,00 2.254,51 6.333,14 884,00 703,66 30/06/2017
591 389800 CYNTHIA GARIGLIO DOS SANTOS OFICIAL DO MP ATIVO PERDIZES - COMARCA; PERDIZES-PJ-SECRETARIA 5.226,73 522,67 0,00 2.874,70 0,00 0,00 8.624,10 687,95 387,22 0,00 1.075,17 7.548,93 1.583,00 504,80 30/06/2017
592 335101 CYNTHIA GONTIJO D ASSUNCAO ANALISTA DO MP ATIVO BELO HORIZONTE - COMARCA; PROC. JUSTICA DIR. DIFUSOS E COLETIVOS-SEC 8.594,48 859,45 0,00 4.726,97 3.151,31 0,00 17.332,21 1.122,87 2.311,10 0,00 3.433,97 13.898,24 2.282,00 754,00 30/06/2017
593 154000 CYNTHIA LOPES DOS SANTOS LAGES ASSESSOR ATIVO BELO HORIZONTE - COMARCA; PROCURADOR-GERAL DE JUSTICA- GABINETE 0,00 5.733,49 11.466,98 8.600,24 0,00 0,00 25.800,71 2.058,17 3.340,46 0,00 5.398,63 20.402,08 884,00 1.510,20 30/06/2017
594 269700 CYNTIA ROCHA CAVALCANTI OFICIAL DO MP ATIVO UBERLÂNDIA - COMARCA; UBERLANDIA-PJ-06PJ 9.163,30 1.832,66 0,00 5.497,98 0,00 0,00 16.493,94 1.361,89 1.821,90 0,00 3.183,79 13.310,15 884,00 1.403,59 30/06/2017
595 278000 DAIRTON LOPES MARTINS FILHO COORDENADOR/ANALISTA ATIVO BELO HORIZONTE - COMARCA; DIRETORIA DE SISTEMAS DE INFORMACAO 0,00 2.293,40 11.466,98 6.880,19 0,00 0,00 20.640,57 1.234,07 2.602,77 0,00 3.836,84 16.803,73 884,00 1.208,16 30/06/2017
596 392700 DALIANA CHAVES SILVA OFICIAL DO MP ATIVO ITAÚNA - COMARCA; ITAUNA-PJ-SECRETARIA 5.754,07 575,41 0,00 3.164,74 0,00 0,00 9.494,22 757,38 679,78 0,00 1.437,16 8.057,06 884,00 555,72 30/06/2017
597 558101 DALLEY TASSIA SILVA ANALISTA DO MP ATIVO MORADA NOVA DE MINAS - COMARCA; MORADA NOVA DE MINAS-PJ-UNPJ 6.334,59 380,08 0,00 0,00 2.238,22 0,00 8.952,89 797,87 1.285,29 0,00 2.083,16 6.869,73 1.583,00 538,64 30/06/2017
598 476700 DALTON DAUD ANALISTA DO MP ATIVO ARAGUARI - COMARCA; ARAGUARI-PJ-05PJ 8.594,48 859,45 0,00 4.726,97 0,00 0,00 14.180,90 1.122,87 1.340,22 0,00 2.463,09 11.717,81 884,00 754,00 30/06/2017
599 548700 DALVA DE SOUZA ROCHA ALMEIDA OFICIAL DO MP ATIVO TIMÓTEO - COMARCA; TIMOTEO-PJ-02PJ 4.111,87 246,71 0,00 1.854,47 0,00 0,00 6.213,05 522,20 170,19 0,00 692,39 5.520,66 884,00 388,72 30/06/2017
600 426900 DANIEL ALVES DA SILVA OFICIAL DO MP ATIVO BELO HORIZONTE - COMARCA; EXTINTA - PROTOCOLO DA PGJ 5.226,73 522,67 0,00 2.341,71 0,00 0,00 8.091,11 682,87 433,53 0,00 1.116,40 6.974,71 884,00 458,54 30/06/2017
601 122000 DANIEL ANTONIO VIEIRA OFICIAL DO MP ATIVO ENTRE-RIOS DE MINAS - COMARCA; ENTRE RIOS DE MINAS-PJ-SECRETARIA 8.594,48 6.016,14 0,00 0,00 0,00 0,00 14.610,62 1.748,27 2.445,90 0,00 4.194,17 10.416,45 884,00 1.496,62 30/06/2017
602 272401 DANIEL AUGUSTO DOS REIS ANALISTA DO MP ATIVO BELO HORIZONTE - COMARCA; BH-22PJ PES COM DEF E IDOSOS-ASS JURIDICA 10.416,20 1.041,62 0,00 0,00 0,00 0,00 11.457,82 1.360,88 1.934,94 0,00 3.295,82 8.162,00 884,00 913,80 30/06/2017
603 536301 DANIEL BATISTA MARIANO ANALISTA DO MP ATIVO BETIM - COMARCA; BETIM-PJ-06PJ 6.134,81 0,00 0,00 3.067,41 0,00 0,00 9.202,22 728,65 632,13 0,00 1.360,78 7.841,44 884,00 566,94 30/06/2017
604 411000 DANIEL FERREIRA DA SILVA ANALISTA DO MP ATIVO GOVERNADOR VALADARES - COMARCA; GOVERNADOR VALADARES-PJ-15PJ 9.163,30 1.832,66 0,00 5.497,98 3.665,32 0,00 20.159,26 1.317,43 2.725,59 0,00 4.043,02 16.116,24 1.680,66 980,66 30/06/2017
605 309000 DANIEL GOMES DOS SANTOS ANALISTA DO MP ATIVO POÇOS DE CALDAS - COMARCA; POCOS DE CALDAS-PJ-03PJ 12.623,91 2.524,78 0,00 7.574,35 0,00 0,00 22.723,04 1.787,08 2.838,28 0,00 4.625,36 18.097,68 1.583,00 1.097,44 30/06/2017
606 554500 DANIEL GOMES PEREIRA OFICIAL DO MP ATIVO NANUQUE - COMARCA; NANUQUE-PJ-02PJ 4.111,87 246,71 0,00 2.179,29 0,00 0,00 6.537,87 520,20 236,68 0,00 756,88 5.780,99 1.061,75 370,62 30/06/2017
607 453000 DANIEL GONCALVES PEREIRA ANALISTA DO MP ATIVO UNAÍ - COMARCA; UNAI-PJ-02PJ 8.594,48 859,45 0,00 4.726,97 0,00 0,00 14.180,90 1.122,87 1.444,49 0,00 2.567,36 11.613,54 884,00 754,00 30/06/2017
608 495500 DANIEL GUIMARAES CABRAL OFICIAL DO MP ATIVO BELO HORIZONTE - COMARCA; BH-17PJ PATRIMONIO PUBLICO-SECRETARIA 4.598,03 459,80 0,00 2.528,92 0,00 0,00 7.586,75 598,46 376,70 0,00 975,16 6.611,59 884,00 382,68 30/06/2017
609 442900 DANIEL GUIMARAES GONCALVES ANALISTA DO MP ATIVO UBERLÂNDIA - COMARCA; UBERLANDIA-PJ-03PJ 9.163,30 916,33 0,00 5.039,82 0,00 0,00 15.119,45 1.207,65 1.597,63 0,00 2.805,28 12.314,17 884,00 898,95 30/06/2017
610 491200 DANIEL HENRIQUE SOUTO COSTA ANALISTA DO MP ATIVO CORAÇÃO DE JESUS - COMARCA; CORACAO DE JESUS-PJ-UNPJ 7.806,95 780,70 0,00 3.205,27 0,00 0,00 11.792,92 1.022,04 1.232,47 0,00 2.254,51 9.538,41 884,00 703,66 30/06/2017
611 464600 DANIEL PIACENTINI STIVANIN ANALISTA DO MP ATIVO ANDRADAS - COMARCA; ANDRADAS-PJ-02PJ 8.594,48 859,45 0,00 4.726,97 0,00 0,00 14.180,90 1.122,87 1.444,49 0,00 2.567,36 11.613,54 884,00 754,00 30/06/2017
612 417000 DANIEL QUEIROZ FERREIRA ANALISTA DO MP ATIVO SÃO SEBASTIÃO DO PARAÍSO - COMARCA; SAO SEBASTIAO DO PARAISO-PJ-05PJ 9.163,30 916,33 0,00 5.039,82 0,00 0,00 15.119,45 1.214,93 1.597,63 0,00 2.812,56 12.306,89 884,00 969,71 30/06/2017
613 396700 DANIEL SILVA CARNEVALLI ASSESSOR/ANALISTA ATIVO BELO HORIZONTE - COMARCA; SUPERINTENDENCIA DE TECNOLOGIA DA INFORMACAO 10.416,20 3.192,68 0,00 6.804,44 0,00 0,00 20.413,32 1.360,88 2.526,48 0,00 3.887,36 16.525,96 3.624,43 1.686,69 30/06/2017
614 489300 DANIEL TABOZA ROCHA ANALISTA DO MP ATIVO IPATINGA - COMARCA; IPATINGA-PJ-08PJ 7.806,95 780,70 0,00 4.293,83 0,00 0,00 12.881,48 1.022,04 1.232,47 0,00 2.254,51 10.626,97 884,00 703,66 30/06/2017
615 414100 DANIEL TARDELI VALADAO ANALISTA DO MP ATIVO TRÊS CORACOES - COMARCA; TRES CORACOES-PJ-02PJ 9.163,30 916,33 0,00 5.039,82 0,00 0,00 15.119,45 1.207,65 1.493,35 0,00 2.701,00 12.418,45 2.981,00 898,95 30/06/2017
616 446601 DANIEL VIEIRA BUENO ANALISTA DO MP ATIVO SÃO DOMINGOS DO PRATA - COMARCA; SAO DOMINGOS DO PRATA-PJ-UNPJ 6.134,81 0,00 0,00 3.067,41 0,00 0,00 9.202,22 726,95 632,13 0,00 1.359,08 7.843,14 884,00 549,07 30/06/2017
617 253200 DANIELA BATISTA LIMA BARBOSA ASSESSOR ATIVO BELO HORIZONTE - COMARCA; CENTRAL DE APOIO TECN-SETOR DE MEIO AMBIENTE 0,00 876,79 4.383,93 2.630,36 0,00 0,00 7.891,08 608,44 653,12 0,00 1.261,56 6.629,52 884,00 461,88 30/06/2017
618 505800 DANIELA BORGES DE MATTOS RESENDE ANALISTA DO MP ATIVO JUIZ DE FORA - COMARCA; JUIZ DE FORA-PJ-20PJ 7.806,95 780,70 0,00 3.205,27 0,00 0,00 11.792,92 1.022,04 1.232,47 0,00 2.254,51 9.538,41 2.282,00 703,66 30/06/2017
619 478000 DANIELA CARVALHO SOARES ANALISTA DO MP ATIVO SÃO JOÃO DEL REI - COMARCA; SAO JOAO DEL REI-PJ-01PJ 8.594,48 859,45 0,00 3.484,75 0,00 0,00 12.938,68 1.122,87 1.444,49 0,00 2.567,36 10.371,32 884,00 754,00 30/06/2017
620 275900 DANIELA CHAGAS SODRE ANALISTA DO MP ATIVO BELO HORIZONTE - COMARCA; CENTRAL DE APOIO TECNICO-SETOR CONTABIL 12.623,91 2.524,78 0,00 7.574,35 0,00 0,00 22.723,04 1.808,06 2.786,14 0,00 4.594,20 18.128,84 1.583,00 1.288,10 30/06/2017
621 234301 DANIELA CRUZ SOARES ANALISTA DO MP ATIVO BELO HORIZONTE - COMARCA; LAB TECNOLOGIA CONTRA LAVAGEM DINHEIRO 13.034,76 2.606,95 0,00 7.820,86 0,00 0,00 23.462,57 1.866,89 2.958,95 0,00 4.825,84 18.636,73 884,00 1.330,06 30/06/2017
622 638000 DANIELA DE ALMEIDA BATISTA ANALISTA DO MP ATIVO ANDRELÂNDIA - COMARCA; ANDRELANDIA-PJ-UNPJ 5.572,67 0,00 0,00 2.786,34 0,00 0,00 8.359,01 608,44 495,80 0,00 1.104,24 7.254,77 1.583,00 497,00 30/06/2017
623 301000 DANIELA DE ALMEIDA E OLIVEIRA ANALISTA DO MP ATIVO BELO HORIZONTE - COMARCA; DIRETORIA DE SISTEMAS DE INFORMACAO 12.623,91 2.524,78 0,00 7.574,35 0,00 0,00 22.723,04 1.808,06 2.838,28 0,00 4.646,34 18.076,70 884,00 1.288,10 30/06/2017
624 296000 DANIELA DE AZEVEDO SILVA ANALISTA DO MP ATIVO ITAJUBA - COMARCA; ITAJUBA-PJ-03PJ 12.225,81 3.667,74 0,00 7.946,78 0,00 0,00 23.840,33 1.896,95 3.020,59 0,00 4.917,54 18.922,79 884,00 1.351,46 30/06/2017
625 453500 DANIELA DE CASTRO SOUSA BARBOSA ANALISTA DO MP ATIVO BELO HORIZONTE - COMARCA; BH-08PJ JUIZADO ESPECIAL-SECRETARIA 8.594,48 859,45 0,00 4.726,97 0,00 0,00 14.180,90 1.125,00 1.444,49 0,00 2.569,49 11.611,41 884,00 773,39 30/06/2017
626 506000 DANIELA DE OLIVEIRA CAVALIERI ANALISTA DO MP ATIVO BELO HORIZONTE - COMARCA; BH-14PJ DEFESA CONSUMIDOR-GAB 005PJ 6.540,78 654,08 0,00 3.597,43 0,00 0,00 10.792,29 856,29 891,58 0,00 1.747,87 9.044,42 884,00 589,56 30/06/2017
627 546200 DANIELA DE VILHENA LEMES GONCALVES OFICIAL DO MP ATIVO TRÊS CORACOES - COMARCA; TRES CORACOES-PJ-05PJ 4.453,07 267,18 0,00 1.988,62 0,00 0,00 6.708,87 557,47 223,78 0,00 781,25 5.927,62 983,48 349,45 30/06/2017
628 356400 DANIELA LEAL FERRAZ ANALISTA DO MP ATIVO MONTES CLAROS - COMARCA; COORD REG PJ DEF EDUC DIR CRIANCA ADOL NORTE 10.755,28 2.151,06 0,00 6.453,17 0,00 0,00 19.359,51 1.540,42 2.289,47 0,00 3.829,89 15.529,62 884,00 1.097,45 30/06/2017
629 501000 DANIELA LOURENCO SANTOS DA SILVA GUIMARAES ANALISTA DO MP ATIVO BELO HORIZONTE - COMARCA; BH-12PJ JUIZO CRIMINAL-GAB 086PJ 7.806,95 780,70 0,00 4.293,83 0,00 0,00 12.881,48 1.022,04 1.180,33 0,00 2.202,37 10.679,11 1.583,00 815,35 30/06/2017
630 195801 DANIELA MARIA DE OLIVEIRA QUEIROZ ANALISTA DO MP ATIVO ARAGUARI - COMARCA; ARAGUARI-PJ-06PJ 9.461,59 2.838,48 0,00 6.150,04 0,00 0,00 18.450,11 1.468,05 2.141,08 0,00 3.609,13 14.840,98 884,00 1.045,90 30/06/2017
631 511400 DANIELA MARIA LARA DE OLIVEIRA ANALISTA DO MP ATIVO BOA ESPERANÇA - COMARCA; BOA ESPERANCA-PJ-02PJ 7.806,95 780,70 0,00 3.231,34 0,00 0,00 11.818,99 1.016,04 1.180,33 0,00 2.196,37 9.622,62 884,00 649,02 30/06/2017
632 252101 DANIELA PAULA ALVES PENA ANALISTA DO MP ATIVO CONTAGEM - COMARCA; CONTAGEM-PJ-APO TECNICO 10.416,20 3.124,86 0,00 4.803,36 0,00 0,00 18.344,42 1.626,30 2.444,81 0,00 4.071,11 14.273,31 884,00 1.243,38 30/06/2017
633 604700 DANIELA PEIXOTO NOGUEIRA COORDENADOR/OFICIAL ATIVO BELO HORIZONTE - COMARCA; DIRET DE FORMACAO, APERFEIC. E POS-GRADUACAO 0,00 605,26 10.087,71 4.137,09 3.564,32 0,00 18.394,38 517,90 2.919,55 0,00 3.437,45 14.956,93 884,00 407,91 30/06/2017
634 429600 DANIELA PIMENTA NUNES MACHADO ANALISTA DO MP ATIVO BELO HORIZONTE - COMARCA; BH-05PJ JUÍZO DE SUCESSÕES 9.461,59 946,16 0,00 0,00 0,00 0,00 10.407,75 1.242,21 1.677,94 0,00 2.920,15 7.487,60 884,00 1.032,50 30/06/2017
635 462000 DANIELA SOUSA GOMES DO AMARAL ANALISTA DO MP ATIVO BETIM - COMARCA; BETIM-PJ-04PJ 8.594,48 859,45 0,00 0,00 0,00 0,00 9.453,93 1.122,87 1.444,49 0,00 2.567,36 6.886,57 884,00 754,00 30/06/2017
636 427000 DANIELA TEIXEIRA DINIZ ANDRADE ANALISTA DO MP ATIVO BELO HORIZONTE - COMARCA; DIRETORIA DE PROJETOS DE EDIFICACOES 8.594,48 859,45 0,00 0,00 0,00 0,00 9.453,93 1.125,57 1.392,35 0,00 2.517,92 6.936,01 1.032,29 908,30 30/06/2017
637 337200 DANIELA TOLEDO SENIUK ANALISTA DO MP ATIVO BELO HORIZONTE - COMARCA; GABINETE DE PROCURADOR DE JUSTIÇA - SALA 412 9.769,61 1.953,92 0,00 4.243,05 0,00 0,00 15.966,58 1.404,61 1.947,84 0,00 3.352,45 12.614,13 1.089,87 1.045,55 30/06/2017
638 605600 DANIELE ALZIRA SILVA CABRAL MOREIRA OFICIAL DO MP ATIVO BELO HORIZONTE - COMARCA; BH-10PJ EXECUÇÃO PENAL 4.111,87 246,71 0,00 2.179,29 0,00 0,00 6.537,87 517,90 236,68 0,00 754,58 5.783,29 1.583,00 349,64 30/06/2017
639 195500 DANIELE CHAVES FONSECA OFICIAL DO MP ATIVO BELO HORIZONTE - COMARCA; ASSESSORIA ESPECIAL DO PGJ 11.466,98 3.440,09 0,00 7.453,54 0,00 0,00 22.360,61 1.790,68 2.779,14 0,00 4.569,82 17.790,79 884,00 1.371,89 30/06/2017
640 323400 DANIELE MEGALE SANTINI OFICIAL DO MP ATIVO BELO HORIZONTE - COMARCA; ASSESS TECNICO-JUR JUNTO AS PROC. DE JUST 7.322,31 1.464,46 0,00 4.393,39 0,00 0,00 13.180,16 1.049,98 1.229,07 0,00 2.279,05 10.901,11 884,00 758,66 30/06/2017
641 357900 DANIELE REJANE PINTO VERSIEUX OFICIAL DO MP ATIVO PEDRO LEOPOLDO - COMARCA; PEDRO LEOPOLDO-PJ-03PJ 6.753,72 1.350,74 0,00 4.052,23 0,00 0,00 12.156,69 960,99 1.114,21 0,00 2.075,20 10.081,49 884,00 631,70 30/06/2017
642 389500 DANIELE VASCONCELOS AMORIM OFICIAL DO MP ATIVO SÃO SEBASTIÃO DO PARAÍSO - COMARCA; SAO SEBASTIAO DO PARAISO-PJ-04PJ 6.540,78 654,08 0,00 3.597,43 0,00 0,00 10.792,29 858,73 891,58 0,00 1.750,31 9.041,98 884,00 611,80 30/06/2017
643 629700 DANIELLA BASTOS MARTINS BICALHO OFICIAL DO MP ATIVO GOVERNADOR VALADARES - COMARCA; GOVERNADOR VALADARES-PJ-SECRETARIA 3.617,27 0,00 0,00 1.808,64 0,00 0,00 5.425,91 429,64 128,11 0,00 557,75 4.868,16 884,00 336,56 30/06/2017
644 265000 DANIELLE CASTANHEIRA SCALABRINI OFICIAL DO MP ATIVO BELO HORIZONTE - COMARCA; JUNTA RECURSAL DO PROCON ESTADUAL 8.061,11 1.612,22 0,00 4.836,67 0,00 0,00 14.510,00 1.152,22 1.341,77 0,00 2.493,99 12.016,01 884,00 801,44 30/06/2017
645 490100 DANIELLE DE AVILA SILVA LOPES ANALISTA DO MP ATIVO BELO HORIZONTE - COMARCA; PROC. JUSTICA DIR. DIFUSOS E COLETIVOS-SEC 7.806,95 1.561,39 0,00 4.684,17 0,00 0,00 14.052,51 1.118,14 1.423,54 0,00 2.541,68 11.510,83 1.583,00 796,60 30/06/2017
646 549600 DANIELLE GOMES LOPES RODRIGUES OFICIAL DO MP ATIVO VESPASIANO - COMARCA; VESPASIANO-PJ-02PJ 4.111,87 246,71 0,00 0,00 0,00 0,00 4.358,58 522,20 236,68 0,00 758,88 3.599,70 1.000,50 452,50 30/06/2017
647 613000 DANIELLE SILVA OLIVEIRA FRANKLIN ASSESSOR/OFICIAL ATIVO BELO HORIZONTE - COMARCA; DIRETORIA DE ORCAMENTO-DIOR/SPC 0,00 418,42 6.973,61 0,00 0,00 0,00 7.392,03 517,90 1.031,60 0,00 1.549,50 5.842,53 1.583,00 407,91 30/06/2017
648 380800 DANILLO RIBEIRO ANTUNES ANALISTA DO MP ATIVO MONTES CLAROS - COMARCA; MONTES CLAROS-PJ-SECRETARIA 10.416,20 1.041,62 0,00 5.728,91 0,00 0,00 17.186,73 1.360,88 1.830,67 0,00 3.191,55 13.995,18 884,00 913,80 30/06/2017
649 453700 DANILO BOTELHO DE CARVALHO COORDENADOR/ANALISTA ATIVO BELO HORIZONTE - COMARCA; DIRETORIA DE ADMINISTRACAO FINANCEIRA 9.163,30 2.933,87 0,00 6.048,59 0,00 0,00 18.145,76 1.197,37 2.488,82 0,00 3.686,19 14.459,57 2.282,00 2.239,61 30/06/2017
650 391200 DANILO D'AVILA MENDES ANALISTA DO MP ATIVO SÃO ROMÃO - COMARCA; SAO ROMAO-PJ-UNPJ 10.416,20 1.041,62 0,00 0,00 0,00 0,00 11.457,82 1.360,88 1.934,94 0,00 3.295,82 8.162,00 884,00 913,80 30/06/2017
651 494900 DANILO GAVIAO AVELINO DE MELLO ANALISTA DO MP ATIVO POUSO ALEGRE - COMARCA; GAECO REGIONAL DE POUSO ALEGRE 7.806,95 780,70 0,00 3.205,27 0,00 0,00 11.792,92 1.022,04 1.232,47 0,00 2.254,51 9.538,41 1.583,00 703,66 30/06/2017
652 604300 DANILO NASCIMENTO SALGADO ANALISTA DO MP ATIVO JANAÚBA - COMARCA; JANAUBA-PJ-01PJ 6.334,59 380,08 0,00 3.357,34 0,00 0,00 10.072,01 797,87 774,06 0,00 1.571,93 8.500,08 884,00 538,64 30/06/2017
653 550800 DANTE MENDES BIANCHETTI FILHO ANALISTA DO MP ATIVO BARBACENA - COMARCA; BARBACENA-PJ-SECRETARIA 6.334,59 380,08 0,00 0,00 0,00 0,00 6.714,67 804,49 774,06 0,00 1.578,55 5.136,12 884,00 697,11 30/06/2017
654 298300 DANUZA MONICA DE SOUZA DINIZ ANALISTA DO MP ATIVO DIVINÓPOLIS - COMARCA; DIVINOPOLIS-PJ-12PJ 10.087,71 2.017,54 0,00 6.052,63 0,00 0,00 18.157,88 1.453,84 2.041,26 0,00 3.495,10 14.662,78 884,00 1.111,54 30/06/2017
655 398700 DARCY LUIZ MILEO GREGATTI OFICIAL DO MP ATIVO LAMBARI - COMARCA; LAMBARI-PJ-SECRETARIA 6.334,59 633,46 0,00 2.682,74 0,00 0,00 9.650,79 831,67 836,07 0,00 1.667,74 7.983,05 1.169,53 592,50 30/06/2017
656 406200 DARIANA AUGUSTA DE TOLEDO PATROCINIO COORDENADOR/OFICIAL ATIVO BELO HORIZONTE - COMARCA; EXTINTA - DIRETORIA DE COMPRAS E LICITAÇÕES 0,00 1.146,70 11.466,98 6.306,84 0,00 0,00 18.920,52 858,73 2.381,76 0,00 3.240,49 15.680,03 884,00 857,08 30/06/2017
657 305000 DARLI LEITE DE OLIVEIRA OFICIAL DO MP ATIVO ARAÇUAÍ - COMARCA; ARACUAI-PJ-01PJ 5.226,73 1.045,35 0,00 3.136,04 0,00 0,00 9.408,12 750,51 509,32 0,00 1.259,83 8.148,29 1.583,00 550,68 30/06/2017
658 122200 DAVID RIBEIRO DOS SANTOS ANALISTA DO MP ATIVO BORDA DA MATA - COMARCA; BORDA DA MATA-PJ-UNPJ 16.063,25 12.850,61 0,00 14.456,93 0,00 0,00 43.370,79 3.459,78 6.207,31 0,00 9.667,09 33.703,70 5.510,22 2.962,71 30/06/2017
659 389400 DAWSON CANEDO MARQUES OFICIAL DO MP ATIVO VARGINHA - COMARCA; VARGINHA-PJ-06PJ 6.540,78 654,08 0,00 3.597,43 0,00 0,00 10.792,29 862,02 298,66 0,00 1.160,68 9.631,61 1.583,00 641,66 30/06/2017
660 256100 DAYSE ROSALY PEREIRA BATISTA OFICIAL DO MP ATIVO BELO HORIZONTE - COMARCA; BH-08PJ JUIZADO ESPECIAL-SECRETARIA 7.806,95 2.342,09 0,00 5.074,52 0,00 0,00 15.223,56 1.204,01 1.614,62 0,00 2.818,63 12.404,93 884,00 2.226,97 30/06/2017
661 311901 DEBORA APARECIDA DA SILVA ASSESSOR ATIVO BELO HORIZONTE - COMARCA; BH-23PJ CIVEL-SETOR ATEND PUB 0,00 0,00 2.625,65 1.312,83 913,64 0,00 4.852,12 411,42 223,88 0,00 635,30 4.216,82 884,00 230,54 30/06/2017
662 194301 DEBORA APARECIDA DOS SANTOS ANALISTA DO MP ATIVO UBERLÂNDIA - COMARCA; UBERLANDIA-PJ-SEC FAMILIA 13.228,78 3.968,63 0,00 8.598,71 0,00 0,00 25.796,12 2.045,22 3.287,57 0,00 5.332,79 20.463,33 1.152,46 1.395,44 30/06/2017
663 518800 DEBORA CARVALHO FIORATTO ASSESSOR/OFICIAL ATIVO BELO HORIZONTE - COMARCA; EXTINTA - DIRETORIA SERVIÇOS GERAIS E TRANS 0,00 697,36 6.973,61 3.835,49 0,00 0,00 11.506,46 703,21 2.057,35 0,00 2.760,56 8.745,90 1.583,00 4.080,89 30/06/2017
664 444900 DEBORA CLAUDIA PEREIRA ALVES ANALISTA DO MP ATIVO BELO HORIZONTE - COMARCA; BH-08PJ JUIZADO ESPECIAL-SECRETARIA 8.594,48 859,45 0,00 4.726,97 0,00 0,00 14.180,90 1.131,23 1.444,49 0,00 2.575,72 11.605,18 1.583,00 830,06 30/06/2017
665 617700 DEBORA COMANDUCI SCHREIDER ANALISTA DO MP ATIVO BICAS - COMARCA; BICAS-PJ-UNPJ 5.572,67 0,00 0,00 0,00 0,00 0,00 5.572,67 661,87 442,41 0,00 1.104,28 4.468,39 1.583,00 444,44 30/06/2017
666 555700 DEBORA CRISTINA BUITRAGO PEREIRA ANALISTA DO MP ATIVO BELO HORIZONTE - COMARCA; EXTINTA - DIRETORIA DE CONTRATOS E CONVÊNIOS 6.334,59 380,08 0,00 3.357,34 0,00 0,00 10.072,01 801,43 774,06 0,00 1.575,49 8.496,52 1.583,00 661,85 30/06/2017
667 513100 DEBORA CRISTINA PEREIRA DE OLIVEIRA ANALISTA DO MP ATIVO BELO HORIZONTE - COMARCA; BH-23PJ CIVEL-SETOR JURIDICO 7.806,95 780,70 0,00 4.293,83 2.862,55 0,00 15.744,03 1.022,04 2.019,67 0,00 3.041,71 12.702,32 1.583,00 820,94 30/06/2017
668 612100 DEBORA DUARTE SILVA DE SOUZA OFICIAL DO MP ATIVO RIBEIRÃO DAS NEVES - COMARCA; RIBEIRAO DAS NEVES-PJ-06PJ 4.111,87 822,37 0,00 2.467,12 0,00 0,00 7.401,36 588,93 266,64 0,00 855,57 6.545,79 1.583,00 419,56 30/06/2017
669 539700 DEBORA SALES CARVALHO ANALISTA DO MP ATIVO PATOS DE MINAS - COMARCA; COORD REG PJ DEF EDU DIR CRI ADO AL PAR NOROE 6.973,61 418,42 0,00 3.696,02 0,00 0,00 11.088,05 877,98 939,84 0,00 1.817,82 9.270,23 884,00 589,56 30/06/2017
670 424100 DEBORA SANTOS E ALVES ANALISTA DO MP ATIVO JANUÁRIA - COMARCA; JANUARIA-PJ-01PJ 9.461,59 946,16 0,00 5.203,88 0,00 0,00 15.611,63 1.246,96 1.677,94 0,00 2.924,90 12.686,73 1.583,00 928,21 30/06/2017
671 426301 DEBORA SCUCATO MACHADO SOARES OFICIAL DO MP ATIVO ITABIRITO - COMARCA; ITABIRITO-PJ-01PJ 4.453,07 445,31 0,00 2.007,39 0,00 0,00 6.905,77 582,52 344,77 0,00 927,29 5.978,48 1.583,00 463,31 30/06/2017
672 550200 DEBORA TRINDADE LEITE ANALISTA DO MP ATIVO MANHUAÇU - COMARCA; MANHUACU-PJ-05PJ 6.334,59 380,08 0,00 3.357,34 0,00 0,00 10.072,01 804,49 669,78 0,00 1.474,27 8.597,74 884,00 598,85 30/06/2017
673 438000 DEBORAH COSTA LAGE ANALISTA DO MP ATIVO BELO HORIZONTE - COMARCA; ASSESS TECNICO-JUR JUNTO AS PROC. DE JUST 9.461,59 946,16 0,00 5.203,88 0,00 0,00 15.611,63 1.242,21 1.677,94 0,00 2.920,15 12.691,48 884,00 885,00 30/06/2017
674 475700 DEBORAH LOBAO LACERDA ASSESSOR/OFICIAL ATIVO BELO HORIZONTE - COMARCA; BH-17PJ PATRIMONIO PUBLICO-SECRETARIA 0,00 697,36 6.973,61 3.835,49 0,00 0,00 11.506,46 661,34 1.071,72 0,00 1.733,06 9.773,40 884,00 444,08 30/06/2017
675 613700 DEISER MARIA FERREIRA ROSCOE OFICIAL DO MP ATIVO BELO HORIZONTE - COMARCA; DIRETORIA DE PAGAMENTO DE PESSOAL-DPAG 4.111,87 246,71 0,00 2.179,29 0,00 0,00 6.537,87 517,90 236,68 0,00 754,58 5.783,29 884,00 405,39 30/06/2017
676 551900 DEISY ROCHA SILVA FREIRE ANALISTA DO MP ATIVO JOÃO PINHEIRO - COMARCA; JOAO PINHEIRO-PJ-01PJ 6.334,59 380,08 0,00 0,00 2.238,22 0,00 8.952,89 801,43 1.389,57 0,00 2.191,00 6.761,89 884,00 661,85 30/06/2017
677 501900 DELI RAQUEL RODRIGUES ANALISTA DO MP ATIVO ITUIUTABA - COMARCA; ITUIUTABA-PJ-04PJ 7.806,95 780,70 0,00 0,00 0,00 0,00 8.587,65 1.022,04 1.232,47 0,00 2.254,51 6.333,14 884,00 703,66 30/06/2017
678 378600 DELIANE LOPES VIEIRA BREIJAO NEVES ANALISTA DO MP ATIVO JUIZ DE FORA - COMARCA; JUIZ DE FORA-PJ-12PJ 10.416,20 1.041,62 0,00 5.728,91 0,00 0,00 17.186,73 1.360,88 1.882,80 0,00 3.243,68 13.943,05 1.583,00 913,80 30/06/2017
679 522500 DELMINDA MARIA LEAO E SILVA OFICIAL DO MP ATIVO ITAGUARA - COMARCA; ITAGUARA-PJ-UNPJ 4.245,74 3.396,59 0,00 3.821,17 2.547,44 840,66 14.851,60 908,20 1.932,83 0,00 2.841,03 12.010,57 884,00 783,55 30/06/2017
680 487700 DENIA FERREIRA MAIA SILVA OFICIAL DO MP ATIVO TRÊS CORACOES - COMARCA; TRES CORACOES-PJ-01PJ 4.598,03 459,80 0,00 2.126,37 0,00 0,00 7.184,20 603,66 248,73 0,00 852,39 6.331,81 1.583,00 430,08 30/06/2017
681 424800 DENIS APARECIDO CAMPOS DELFINO ANALISTA DO MP ATIVO LUZ - COMARCA; LUZ-PJ-UNPJ 9.163,30 916,33 0,00 5.039,82 0,00 0,00 15.119,45 1.214,93 1.389,08 0,00 2.604,01 12.515,44 1.583,00 969,71 30/06/2017
682 381400 DENISE ANGELICA MELLO DE PAULA OFICIAL DO MP ATIVO BELO HORIZONTE - COMARCA; BH-18PJ DIREITOS HUMANOS-SECRETARIA 6.540,78 654,08 0,00 3.597,43 0,00 0,00 10.792,29 862,02 891,58 0,00 1.753,60 9.038,69 884,00 641,66 30/06/2017
683 196300 DENISE DE ALMEIDA VILELA FURTADO OFICIAL DO MP ATIVO BELO HORIZONTE - COMARCA; CENTRAL DE APOIO TECNICO-SECRETARIA 8.874,34 2.662,30 0,00 5.768,32 0,00 0,00 17.304,96 1.376,93 1.902,10 0,00 3.279,03 14.025,93 994,42 980,98 30/06/2017
684 336900 DENISE DE SOUSA MORAES SILVA OFICIAL DO MP ATIVO MATEUS LEME - COMARCA; MATEUS LEME-PJ-02PJ 5.226,73 1.045,35 0,00 3.136,04 0,00 0,00 9.408,12 750,51 665,73 0,00 1.416,24 7.991,88 884,00 550,68 30/06/2017
685 271100 DENISE ELOY PEIXOTO OFICIAL DO MP ATIVO BELO HORIZONTE - COMARCA; DIRET DE DESENV DE RECURSOS HUMANOS-DDRH 9.163,30 1.832,66 0,00 5.497,98 0,00 0,00 16.493,94 1.361,89 1.821,90 0,00 3.183,79 13.310,15 977,50 1.403,59 30/06/2017
686 385400 DENISE FREITAS DE ASSIS OFICIAL DO MP ATIVO CARATINGA - COMARCA; CARATINGA-PJ-05PJ 6.334,59 633,46 0,00 3.484,03 0,00 0,00 10.452,08 827,63 783,93 0,00 1.611,56 8.840,52 884,00 664,02 30/06/2017
687 437100 DENISE NOGUEIRA MAGRI MENDES ANALISTA DO MP ATIVO BELO HORIZONTE - COMARCA; LAB TECNOLOGIA CONTRA LAVAGEM DINHEIRO 9.461,59 2.838,48 0,00 0,00 4.100,02 0,00 16.400,09 1.468,05 3.112,18 0,00 4.580,23 11.819,86 884,00 1.220,22 30/06/2017
688 524700 DENISE RAMOS GUIMARAES OFICIAL DO MP ATIVO BELO HORIZONTE - COMARCA; BH-07PJ 01 TRIBUNAL JURI-SECRETARIA 4.598,03 459,80 0,00 2.528,92 0,00 0,00 7.586,75 601,94 376,70 0,00 978,64 6.608,11 884,00 483,51 30/06/2017
689 239100 DENISE RIBEIRO DOS SANTOS CAETANO OFICIAL DO MP ATIVO ITANHANDU - COMARCA; ITANHANDU-PJ-SECRETARIA 9.163,30 2.748,99 0,00 5.956,15 0,00 0,00 17.868,44 1.450,90 1.994,04 0,00 3.444,94 14.423,50 884,00 1.292,01 30/06/2017
690 325500 DENISE ROSA TORRES ASSESSOR/OFICIAL ATIVO BELO HORIZONTE - COMARCA; DIRETORIA DE PESSOAL ADMINISTRATIVO - DPAD 0,00 1.953,92 9.769,61 5.861,77 0,00 0,00 17.585,30 1.082,87 2.080,16 0,00 3.163,03 14.422,27 884,00 1.082,99 30/06/2017
691 437200 DENISE VIVIANE DOS SANTOS ANALISTA DO MP ATIVO BELO HORIZONTE - COMARCA; ASSESS TECNICA DA CORREGEDORIA-GERAL DO MP 8.594,48 859,45 0,00 4.726,97 0,00 0,00 14.180,90 1.131,23 1.340,22 0,00 2.471,45 11.709,45 1.932,00 968,40 30/06/2017
692 267900 DENISIA DE ALMEIDA SALES OFICIAL DO MP ATIVO BELO HORIZONTE - COMARCA; CAO-CRIMINAL-SECRETARIA 6.973,61 1.394,72 0,00 4.184,17 2.789,44 0,00 15.341,94 991,62 1.893,75 0,00 2.885,37 12.456,57 884,00 754,09 30/06/2017
693 480300 DESIREE ARANTES FERREIRA GOUVEA OFICIAL DO MP ATIVO PRATÁPOLIS - COMARCA; PRATAPOLIS-PJ-UNPJ 4.598,03 459,80 0,00 2.062,39 0,00 0,00 7.120,22 601,46 376,70 0,00 978,16 6.142,06 884,00 410,06 30/06/2017
694 355300 DEYSE CRISTINA MORAIS OFICIAL DO MP ATIVO PASSOS - COMARCA; PASSOS-PJ-02PJ 6.973,61 1.394,72 0,00 4.184,17 0,00 0,00 12.552,50 1.004,75 1.178,79 0,00 2.183,54 10.368,96 884,00 765,60 30/06/2017
695 523700 DIANA CAMPOS RESENDE OFICIAL DO MP ATIVO SÃO JOÃO DEL REI - COMARCA; SAO JOAO DEL REI-PJ-04PJ 5.396,93 2.698,47 0,00 4.047,70 0,00 0,00 12.143,10 956,77 1.007,72 0,00 1.964,49 10.178,61 884,00 602,58 30/06/2017
696 241900 DIANA CARDOSO MARTINS OFICIAL DO MP ATIVO BELO HORIZONTE - COMARCA; CAO-DH APOIO COMUNITARIO-SEC ADM 6.753,72 2.026,12 0,00 4.389,92 0,00 0,00 13.169,76 1.051,91 1.279,51 0,00 2.331,42 10.838,34 884,00 905,57 30/06/2017
697 410100 DIANA GORDILHO SILVEIRA SENA ANALISTA DO MP ATIVO BELO HORIZONTE - COMARCA; ASSESS TECNICO-JUR JUNTO AS PROC. DE JUST 9.461,59 946,16 0,00 5.203,88 0,00 0,00 15.611,63 1.246,96 1.677,94 0,00 2.924,90 12.686,73 884,00 933,01 30/06/2017
698 553000 DIANA MARIA MARQUES ANALISTA DO MP ATIVO BETIM - COMARCA; BETIM-PJ-13PJ 5.754,07 345,24 0,00 2.428,54 2.033,10 0,00 10.560,95 730,76 1.130,41 0,00 1.861,17 8.699,78 884,00 629,32 30/06/2017
699 520000 DIARLE TOSTE DOS SANTOS ANALISTA DO MP ATIVO RIO POMBA - COMARCA; RIO POMBA-PJ-UNPJ 7.806,95 780,70 0,00 4.293,83 0,00 0,00 12.881,48 1.022,04 1.180,33 0,00 2.202,37 10.679,11 884,00 820,94 30/06/2017
700 539800 DIEGO CAMARGOS RODRIGUES OFICIAL DO MP ATIVO CONTAGEM - COMARCA; CONTAGEM-PJ-19PJ 4.111,87 246,71 0,00 2.179,29 0,00 0,00 6.537,87 517,68 236,68 0,00 754,36 5.783,51 953,52 347,62 30/06/2017
701 607300 DIEGO CERVEIRA DE SOUZA ANALISTA DO MP ATIVO PATOS DE MINAS - COMARCA; COORD REG BACIAS PARACATU,URUCUIA E ABAETE 6.334,59 380,08 0,00 3.357,34 0,00 0,00 10.072,01 797,87 774,06 0,00 1.571,93 8.500,08 884,00 538,64 30/06/2017
702 446900 DIEGO DE FREITAS OFICIAL DO MP ATIVO UBERABA - COMARCA; UBERABA-PJ-06PJ 5.941,34 594,13 0,00 3.267,74 0,00 0,00 9.803,21 772,66 730,20 0,00 1.502,86 8.300,35 977,12 488,88 30/06/2017
703 288800 DILENE NEPOMUCENO ALVES OFICIAL DO MP ATIVO BELO HORIZONTE - COMARCA; DIRETORIA DE PESSOAL ADMINISTRATIVO - DPAD 7.806,95 1.561,39 0,00 3.457,14 0,00 0,00 12.825,48 1.118,14 1.423,54 0,00 2.541,68 10.283,80 884,00 923,05 30/06/2017
704 270101 DILSON DO AMARAL ANALISTA DO MP ATIVO RIO CASCA - COMARCA; RIO CASCA-PJ-UNPJ 6.973,61 418,42 0,00 3.696,02 0,00 0,00 11.088,05 877,98 939,84 0,00 1.817,82 9.270,23 884,00 592,66 30/06/2017
705 466000 DIMITRI GUDE MARCIAL ANALISTA DO MP ATIVO NANUQUE - COMARCA; NANUQUE-PJ-02PJ 7.806,95 780,70 0,00 4.293,83 0,00 0,00 12.881,48 1.018,36 1.180,33 0,00 2.198,69 10.682,79 1.583,00 776,53 30/06/2017
706 516300 DINORA APARECIDA MACEDO BRANDAO ANALISTA DO MP ATIVO BELO HORIZONTE - COMARCA; ASSESS JUR DO CONS SUPERIOR DO MINISTERIO PUB 6.540,78 654,08 0,00 3.597,43 0,00 0,00 10.792,29 856,29 891,58 0,00 1.747,87 9.044,42 884,00 589,56 30/06/2017
707 511700 DIOGENES HENRIQUES PEREIRA LOURENCO ANALISTA DO MP ATIVO CONTAGEM - COMARCA; CONTAGEM-PJ-22PJ 7.806,95 780,70 0,00 4.293,83 0,00 0,00 12.881,48 1.022,04 1.232,47 0,00 2.254,51 10.626,97 884,00 815,35 30/06/2017
708 604100 DIOGO CESAR DE OLIVEIRA HONORIO ASSESSOR ATIVO PIUMHI - COMARCA; PIUMHI-PJ-02PJ 0,00 0,00 4.383,93 0,00 0,00 0,00 4.383,93 608,44 412,26 0,00 1.020,70 3.363,23 884,00 384,90 30/06/2017
709 387800 DIOGO FELIX DA SILVA OFICIAL DO MP ATIVO CONSELHEIRO PENA - COMARCA; CONSELHEIRO PENA-PJ-01PJ 5.941,34 594,13 0,00 3.267,74 0,00 0,00 9.803,21 774,42 730,20 0,00 1.504,62 8.298,59 884,00 504,80 30/06/2017
710 259600 DIOGO MESQUITA MAIA ANALISTA DO MP ATIVO BELO HORIZONTE - COMARCA; DIRET DE APOIO AS PROCURADORIAS DE JUSTICA 12.225,81 9.780,64 0,00 11.003,23 0,00 0,00 33.009,68 2.642,99 4.412,44 0,00 7.055,43 25.954,25 884,00 2.050,21 30/06/2017
711 386700 DIRCIMAR FERNANDES CARNEIRO OFICIAL DO MP ATIVO VISCONDE DO RIO BRANCO - COMARCA; VISCONDE DO RIO BRANCO-PJ-03PJ 6.540,78 3.270,39 0,00 4.905,59 0,00 0,00 14.716,76 1.171,01 1.531,92 0,00 2.702,93 12.013,83 896,91 834,28 30/06/2017
712 113800 DIRSON APARECIDO GUIMARAES ASSESSOR ATIVO BELO HORIZONTE - COMARCA; DIVISAO DE MANUTENCAO PREDIAL 0,00 3.945,53 4.383,93 4.164,73 0,00 0,00 12.494,19 608,44 906,33 0,00 1.514,77 10.979,42 884,00 692,84 30/06/2017
713 216700 DOMICIO VALDETE PEREIRA OFICIAL DO MP ATIVO TEÓFILO OTONI - COMARCA; COORD REG PJ DEF EDU DIR CRIAN ADOL JEQUI MUC 10.755,28 3.226,58 0,00 6.990,93 0,00 0,00 20.972,79 1.668,78 2.396,29 0,00 4.065,07 16.907,72 884,00 1.188,90 30/06/2017
714 85700 DONIZETTE PEREIRA DOS SANTOS OFICIAL DO MP ATIVO BELO HORIZONTE - COMARCA; EXTINTA - PROTOCOLO DA PGJ 18.047,65 14.438,13 0,00 15.235,56 0,00 3.351,82 51.073,16 3.351,82 7.510,20 2.014,67 12.876,69 38.196,47 5.759,37 446,91 30/06/2017
715 192701 DONIZETTI APARECIDO AMORIM ANALISTA DO MP ATIVO PRATÁPOLIS - COMARCA; PRATAPOLIS-PJ-UNPJ 7.200,69 2.160,21 0,00 4.680,45 0,00 0,00 14.041,35 1.111,84 1.369,58 0,00 2.481,42 11.559,93 5.751,67 1.192,76 30/06/2017
716 558700 DORCILIA FATIMA DE OLIVEIRA OFICIAL DO MP ATIVO DIVINÓPOLIS - COMARCA; DIVINOPOLIS-PJ-02PJ 4.111,87 246,71 0,00 2.179,29 0,00 0,00 6.537,87 517,90 198,63 0,00 716,53 5.821,34 983,90 349,64 30/06/2017
717 555300 DOUGLAS CUNHA DE SOUZA ANALISTA DO MP ATIVO VARZEA DA PALMA - COMARCA; VARZEA DA PALMA-PJ-01PJ 6.334,59 380,08 0,00 3.357,34 0,00 0,00 10.072,01 797,87 774,06 0,00 1.571,93 8.500,08 3.828,41 874,61 30/06/2017
718 265900 DOUGLAS GOMES MOREIRA ANALISTA DO MP ATIVO BELO HORIZONTE - COMARCA; CENTRAL DE APOIO TECNICO-SETOR DE ENGENHARIA 13.228,78 2.645,76 0,00 7.937,27 0,00 0,00 23.811,81 1.905,33 3.015,93 0,00 4.921,26 18.890,55 884,00 1.446,61 30/06/2017
719 241000 DOUGLAS MEIRELLES DE CASTRO OFICIAL DO MP ATIVO CONCEIÇÃO DO RIO VERDE - COMARCA; CONCEICAO DO RIO VERDE-PJ-UNPJ 9.163,30 2.748,99 0,00 5.956,15 0,00 0,00 17.868,44 1.427,21 1.941,90 0,00 3.369,11 14.499,33 884,00 1.062,38 30/06/2017
720 534900 DOUGLAS SILVA E SOUZA ANALISTA DO MP ATIVO CAMPOS GERAIS - COMARCA; CAMPOS GERAIS-PJ-SECRETARIA 6.973,61 418,42 0,00 3.696,02 2.464,01 0,00 13.552,06 877,98 1.565,31 0,00 2.443,29 11.108,77 884,00 687,82 30/06/2017
721 630700 DOUGLAS TAVEIRA LEMOS DE OLIVEIRA ANALISTA DO MP ATIVO BELO HORIZONTE - COMARCA; BH-18PJ VIOLENCIA DOMESTICA 6.134,81 0,00 0,00 3.067,41 0,00 0,00 9.202,22 728,65 632,13 0,00 1.360,78 7.841,44 884,00 489,28 30/06/2017
722 638900 DOUGLAS WALLAS CONCEICAO NEVES OFICIAL DO MP ATIVO RIBEIRÃO DAS NEVES - COMARCA; RIBEIRAO DAS NEVES-PJ-SEC CIVEL 3.285,74 0,00 0,00 1.642,87 0,00 0,00 4.928,61 392,17 83,85 0,00 476,02 4.452,59 884,00 325,97 30/06/2017
723 146800 DUCINALVA AMARAL LOPES REIS OFICIAL DO MP ATIVO PARAISÓPOLIS - COMARCA; PARAISOPOLIS-PJ-UNPJ 13.228,78 9.260,15 0,00 11.244,47 0,00 0,00 33.733,40 2.650,90 4.530,53 0,00 7.181,43 26.551,97 884,00 1.610,12 30/06/2017
724 122500 DUILIO CARLOS FERREIRA UTSCH OFICIAL DO MP ATIVO CONCEIÇÃO DO MATO DENTRO - COMARCA; CONCEICAO DO MATO DENTRO-PJ-UNPJ 10.755,28 8.604,22 0,00 6.680,53 0,00 0,00 26.040,03 2.310,63 3.868,88 0,00 6.179,51 19.860,52 5.530,28 2.072,09 30/06/2017
725 201800 DULCINEIA ANDRE DE SOUZA OFICIAL DO MP ATIVO JEQUITINHONHA - COMARCA; JEQUITINHONHA-PJ-SECRETARIA 10.755,28 3.226,58 0,00 6.990,93 0,00 0,00 20.972,79 1.668,78 2.344,15 0,00 4.012,93 16.959,86 884,00 1.188,90 30/06/2017
726 395800 DUVIDIER MEDIRCIO JUNIOR ANALISTA DO MP ATIVO BELO HORIZONTE - COMARCA; CENTRAL DE APOIO TECNICO-SETOR DE ENGENHARIA 10.416,20 1.041,62 0,00 5.728,91 0,00 0,00 17.186,73 1.372,76 1.934,94 0,00 3.307,70 13.879,03 884,00 1.021,86 30/06/2017
727 604800 ECIA RAMILIS ISSA DE ABREU ANALISTA DO MP ATIVO MANGA - COMARCA; MANGA-PJ-01PJ 5.754,07 345,24 0,00 0,00 0,00 0,00 6.099,31 724,74 623,45 0,00 1.348,19 4.751,12 884,00 570,83 30/06/2017
728 273000 EDELFINA APARECIDA GUIMARAES OFICIAL DO MP ATIVO CACHOEIRA DE MINAS - COMARCA; CACHOEIRA DE MINAS-PJ-UNPJ 8.061,11 4.030,55 0,00 6.045,83 0,00 0,00 18.137,49 1.452,21 2.037,94 0,00 3.490,15 14.647,34 884,00 1.126,51 30/06/2017
729 523300 EDER DOS SANTOS PATRICIO ANALISTA DO MP ATIVO NOVA SERRANA - COMARCA; NOVA SERRANA-PJ-03PJ 7.806,95 780,70 0,00 4.293,83 0,00 0,00 12.881,48 1.022,04 1.232,47 0,00 2.254,51 10.626,97 884,00 820,94 30/06/2017
730 356700 EDER JOSE PACHECO OFICIAL DO MP ATIVO CAMPO BELO - COMARCA; CAMPO BELO-PJ-SECRETARIA 7.322,31 1.464,46 0,00 3.321,65 0,00 0,00 12.108,42 1.038,28 1.176,93 0,00 2.215,21 9.893,21 1.908,12 652,28 30/06/2017
731 507900 EDERSON SILVA LOPES OFICIAL DO MP ATIVO BELO HORIZONTE - COMARCA; DIR ANALISES TECNOLOGIA INTELIGENCIA 4.598,03 459,80 0,00 2.105,04 0,00 0,00 7.162,87 598,46 291,39 0,00 889,85 6.273,02 1.583,00 382,68 30/06/2017
732 296200 EDGARD GOULART MATOSINHO DE LAET JUNIOR ANALISTA DO MP ATIVO GOVERNADOR VALADARES - COMARCA; GOVERNADOR VALADARES-PJ-11PJ 12.225,81 2.445,16 0,00 7.335,49 4.890,32 0,00 26.896,78 1.762,01 3.909,79 0,00 5.671,80 21.224,98 884,00 1.561,83 30/06/2017
733 295000 EDILA MARIA DA SILVEIRA OFICIAL DO MP ATIVO FORMIGA - COMARCA; FORMIGA-PJ-04PJ 6.540,78 1.308,16 0,00 2.966,94 0,00 0,00 10.815,88 936,80 1.051,67 0,00 1.988,47 8.827,41 884,00 667,42 30/06/2017
734 332300 EDILA MARILAC MIRANDA PRADO OFICIAL DO MP ATIVO DIAMANTINA - COMARCA; COORD REG BACIAS RIOS JEQUITINHONHA E MUCURI 7.322,31 2.928,92 0,00 5.125,62 3.417,08 0,00 18.793,93 1.225,00 2.475,05 0,00 3.700,05 15.093,88 7.202,59 1.336,15 30/06/2017
735 376600 EDILANE CONSOLACAO ROSA NAZARETH ANALISTA DO MP ATIVO BETIM - COMARCA; BETIM-PJ-10PJ 10.416,20 1.041,62 0,00 4.131,26 0,00 0,00 15.589,08 1.360,88 1.934,94 0,00 3.295,82 12.293,26 884,00 1.058,85 30/06/2017
736 301500 EDILENE APARECIDA DE CARVALHO ANALISTA DO MP ATIVO BELO HORIZONTE - COMARCA; DIRETORIA DE ADMINISTRACAO FINANCEIRA 12.225,81 2.445,16 0,00 7.335,49 0,00 0,00 22.006,46 1.762,01 2.669,22 0,00 4.431,23 17.575,23 884,00 1.347,14 30/06/2017
737 309800 EDILZA DOS REIS OFICIAL DO MP ATIVO UBERLÂNDIA - COMARCA; UBERLANDIA-PJ-03PJ 8.061,11 1.612,22 0,00 4.836,67 0,00 0,00 14.510,00 1.148,93 1.498,19 0,00 2.647,12 11.862,88 884,00 771,48 30/06/2017
738 200500 EDINEIA MARIA DE OLIVEIRA ANTUNES OFICIAL DO MP ATIVO MONTES CLAROS - COMARCA; MONTES CLAROS-PJ-10PJ 10.755,28 4.302,11 0,00 7.528,70 0,00 0,00 22.586,09 1.804,02 2.815,94 0,00 4.619,96 17.966,13 1.583,00 1.342,88 30/06/2017
739 427700 EDISANGELA SOARES LOPES OFICIAL DO MP ATIVO PIRAPORA - COMARCA; PIRAPORA-PJ-02PJ 5.226,73 522,67 0,00 2.289,57 0,00 0,00 8.038,97 687,95 537,81 0,00 1.225,76 6.813,21 884,00 504,80 30/06/2017
740 555400 EDISON MONTEIRO SAMPAIO NETO ANALISTA DO MP ATIVO BELO HORIZONTE - COMARCA; BH-12PJ JUIZO CRIMINAL-GAB 094PJ 6.334,59 380,08 0,00 3.357,34 0,00 0,00 10.072,01 801,43 774,06 0,00 1.575,49 8.496,52 884,00 666,12 30/06/2017
741 517700 EDMILSON TADEU FERNANDES OFICIAL DO MP ATIVO POUSO ALEGRE - COMARCA; POUSO ALEGRE-PJ-SECRETARIA 5.061,97 506,20 0,00 2.784,09 1.856,06 0,00 10.208,32 662,68 1.003,87 0,00 1.666,55 8.541,77 884,00 532,28 30/06/2017
742 358400 EDNA APARECIDA SILVA FERREIRA OFICIAL DO MP ATIVO CORONEL FABRICIANO - COMARCA; CORONEL FABRICIANO-PJ-02PJ 6.753,72 1.350,74 0,00 4.052,23 0,00 0,00 12.156,69 960,99 1.114,21 0,00 2.075,20 10.081,49 884,00 631,70 30/06/2017
743 331800 EDNA MARCIA CAMILO DA SILVA OFICIAL DO MP ATIVO SETE LAGOAS - COMARCA; SETE LAGOAS-PJ-05PJ 7.560,72 1.512,14 0,00 4.536,43 0,00 0,00 13.609,29 1.082,87 1.299,09 0,00 2.381,96 11.227,33 884,00 771,48 30/06/2017
744 422800 EDNILSON DE SOUZA FERREIRA ASSESSOR ATIVO BELO HORIZONTE - COMARCA; DIRET DE INFORMACAO E EXPEDICAO DE PROCESSOS 0,00 0,00 2.625,65 1.190,69 0,00 0,00 3.816,34 411,42 61,13 0,00 472,55 3.343,79 884,00 230,54 30/06/2017
745 327900 EDRIEL SANTANA PEREIRA OFICIAL DO MP ATIVO TUPACIGUARA - COMARCA; TUPACIGUARA-PJ-UNPJ 7.560,72 1.512,14 0,00 4.536,43 0,00 0,00 13.609,29 1.082,87 1.351,22 0,00 2.434,09 11.175,20 1.583,00 771,48 30/06/2017
746 482400 EDSON GARCIA OFICIAL DO MP ATIVO MACHADO - COMARCA; MACHADO-PJ-02PJ 4.598,03 459,80 0,00 2.528,92 0,00 0,00 7.586,75 601,46 291,39 0,00 892,85 6.693,90 1.583,00 410,06 30/06/2017
747 225601 EDSON LABRE FILHO ANALISTA DO MP ATIVO VARGINHA - COMARCA; VARGINHA-PJ-01PJ 12.225,81 3.667,74 0,00 7.946,78 0,00 0,00 23.840,33 1.908,83 2.968,45 0,00 4.877,28 18.963,05 884,00 1.496,95 30/06/2017
748 602700 EDSON NOGUEIRA BUENO OFICIAL DO MP ATIVO PITANGUI - COMARCA; PITANGUI-PJ-02PJ 3.711,76 224,10 0,00 0,00 0,00 0,00 3.935,86 470,44 170,25 0,00 640,69 3.295,17 884,00 317,60 30/06/2017
749 414400 EDUARDO ABRANTES CAMPOS ANALISTA DO MP ATIVO SÃO JOÃO DEL REI - COMARCA; SAO JOAO DEL REI-PJ-02PJ 9.461,59 946,16 0,00 5.203,88 0,00 0,00 15.611,63 1.246,96 1.677,94 0,00 2.924,90 12.686,73 1.329,94 928,21 30/06/2017
750 476800 EDUARDO ALVES DE MOURA ANALISTA DO MP ATIVO UBERLÂNDIA - COMARCA; UBERLANDIA-PJ-24PJ 8.594,48 859,45 0,00 3.536,89 0,00 0,00 12.990,82 1.122,87 1.340,22 0,00 2.463,09 10.527,73 1.643,32 879,67 30/06/2017
751 390800 EDUARDO AMORIM PETTERSEN OFICIAL DO MP ATIVO CARANGOLA - COMARCA; CARANGOLA-PJ-03PJ 6.334,59 633,46 0,00 3.484,03 0,00 0,00 10.452,08 827,63 836,07 0,00 1.663,70 8.788,38 1.693,08 555,72 30/06/2017
752 633200 EDUARDO ANTONIO CODO SANTOS ASSESSOR ATIVO BELO HORIZONTE - COMARCA; ASSESSORIA ESPECIAL FINANCEIRA DO PGJAA 0,00 14.755,95 21.079,94 15.235,56 0,00 0,00 51.071,45 1.560,80 7.080,98 5.364,78 14.006,56 37.064,89 884,00 0,00 30/06/2017
753 461600 EDUARDO ANTONIO DE ASSIS FARIA ASSESSOR ATIVO BELO HORIZONTE - COMARCA; ASSESS EXECUTIVA DO CONSELHO SUPERIOR DO MP 0,00 0,00 4.383,93 1.864,06 0,00 0,00 6.247,99 608,44 326,94 0,00 935,38 5.312,61 1.583,00 1.032,90 30/06/2017
754 248800 EDUARDO DE CASTRO AMORIM ANALISTA DO MP ATIVO BELO HORIZONTE - COMARCA; EXTINTA - DIRETORIA DE CONTRATOS E CONVÊNIOS 14.297,05 2.859,41 0,00 8.578,23 0,00 0,00 25.734,69 2.038,29 3.329,68 0,00 5.367,97 20.366,72 884,00 1.373,36 30/06/2017
755 209100 EDUARDO DE SOUZA MAIA ANALISTA DO MP ATIVO BELO HORIZONTE - COMARCA; SUPERINTENDENCIA DE RECURSOS HUMANOS 16.063,25 4.818,98 0,00 10.441,12 0,00 0,00 31.323,35 2.491,07 4.085,15 0,00 6.576,22 24.747,13 884,00 2.044,11 30/06/2017
756 633900 EDUARDO GONCALVES PIRES OFICIAL DO MP ATIVO BELO HORIZONTE - COMARCA; BH-19PJ SAUDE-SECRETARIA 150PJ 4.383,93 1.315,18 0,00 2.849,56 0,00 0,00 8.548,67 668,82 525,50 0,00 1.194,32 7.354,35 884,00 381,12 30/06/2017
757 350500 EDUARDO GONCALVES RIBEIRO OFICIAL DO MP ATIVO VESPASIANO - COMARCA; VESPASIANO-PJ-04PJ 6.540,78 1.308,16 0,00 0,00 0,00 0,00 7.848,94 923,95 1.051,67 0,00 1.975,62 5.873,32 884,00 550,69 30/06/2017
758 115800 EDUARDO HENRIQUE DE CAMPOS MAIA OFICIAL DO MP ATIVO BELO HORIZONTE - COMARCA; EXTINTA - DIVISAO DE SERVICOS GERAIS 12.225,81 4.890,32 0,00 8.558,07 0,00 0,00 25.674,20 2.032,93 3.215,54 0,00 5.248,47 20.425,73 884,00 1.365,08 30/06/2017
759 392600 EDUARDO HENRIQUE DOS SANTOS COSTA ELIAZAR OFICIAL DO MP ATIVO MATOZINHOS - COMARCA; MATOZINHOS-PJ-01PJ 5.754,07 575,41 0,00 0,00 0,00 0,00 6.329,48 758,34 523,37 0,00 1.281,71 5.047,77 1.620,12 652,83 30/06/2017
760 122900 EDUARDO JOSE COSTA SILVA OFICIAL DO MP ATIVO SETE LAGOAS - COMARCA; SETE LAGOAS-PJ-04PJ 16.063,25 12.850,61 0,00 14.456,93 0,00 0,00 43.370,79 3.459,78 6.207,31 0,00 9.667,09 33.703,70 5.510,22 2.962,71 30/06/2017
761 418700 EDUARDO LEMOS SIMOES OFICIAL DO MP ATIVO LAVRAS - COMARCA; COORD REG DO MA DA BACIA DO RIO GRANDE 5.754,07 575,41 0,00 3.164,74 0,00 0,00 9.494,22 755,44 679,78 0,00 1.435,22 8.059,00 884,00 538,20 30/06/2017
762 407500 EDUARDO MASCARENHAS CURI AZEVEDO ANALISTA DO MP ATIVO BELO HORIZONTE - COMARCA; DIRETORIA DE IMPRENSA 8.594,48 859,45 0,00 4.726,97 0,00 0,00 14.180,90 1.125,57 1.444,49 0,00 2.570,06 11.610,84 884,00 908,30 30/06/2017
763 601300 EDUARDO TRAD VIEIRA OFICIAL DO MP ATIVO IBIRITÉ - COMARCA; IBIRITE-PJ-04PJ 3.617,27 0,00 0,00 0,00 1.205,76 0,00 4.823,03 432,84 359,52 0,00 792,36 4.030,67 884,00 368,01 30/06/2017
764 257600 EDUARDO VALADARES CABRAL ANALISTA DO MP ATIVO BELO HORIZONTE - COMARCA; ASSESSORIA JURIDICA DO PROCON-MG 10.755,28 2.151,06 0,00 0,00 0,00 0,00 12.906,34 1.540,42 2.289,47 0,00 3.829,89 9.076,45 884,00 1.097,44 30/06/2017
765 545700 EDVAIR FERREIRA DE CARVALHO OFICIAL DO MP ATIVO ARAGUARI - COMARCA; ARAGUARI-PJ-06PJ 4.111,87 246,71 0,00 2.179,29 0,00 0,00 6.537,87 517,68 170,19 0,00 687,87 5.850,00 884,00 349,45 30/06/2017
766 401700 EDWANIA AMORIM DO CARMO OFICIAL DO MP ATIVO RIBEIRÃO DAS NEVES - COMARCA; RIBEIRAO DAS NEVES-PJ-03PJ 6.540,78 654,08 0,00 2.755,92 0,00 0,00 9.950,78 858,73 891,58 0,00 1.750,31 8.200,47 884,00 611,80 30/06/2017
767 303600 EFIGENIO SARAIVA LOPES ANALISTA DO MP ATIVO BELO HORIZONTE - COMARCA; DIRETORIA DE PAGAMENTO DE PESSOAL-DPAG 13.228,78 2.645,76 0,00 7.937,27 5.291,51 0,00 29.103,32 1.905,33 4.366,82 0,00 6.272,15 22.831,17 884,00 1.678,91 30/06/2017
768 312000 ELAINE APARECIDA DE ARAUJO RODRIGUES OFICIAL DO MP ATIVO DIVINÓPOLIS - COMARCA; DIVINOPOLIS-PJ-02PJ 7.322,31 5.125,61 0,00 6.223,96 0,00 1.369,27 20.041,15 1.480,15 2.553,82 0,00 4.033,97 16.007,18 884,00 1.118,96 30/06/2017
769 286000 ELAINE APARECIDA SILVA BERZOINI OFICIAL DO MP ATIVO JUIZ DE FORA - COMARCA; JUIZ DE FORA-PJ-07PJ 7.806,95 1.561,39 0,00 4.684,17 0,00 0,00 14.052,51 1.118,14 1.423,54 0,00 2.541,68 11.510,83 884,00 796,60 30/06/2017
770 509000 ELAINE CANDIDA PONTES OFICIAL DO MP ATIVO BELO HORIZONTE - COMARCA; BH-02PJ FAMILIA-SECRETARIA 4.598,03 459,80 0,00 2.528,92 0,00 0,00 7.586,75 601,94 376,70 0,00 978,64 6.608,11 884,00 480,22 30/06/2017
771 283601 ELAINE CRISTINA MEQUELINO DUARTE ANALISTA DO MP ATIVO ALFENAS - COMARCA; ALFENAS-PJ-04PJ 10.416,20 1.041,62 0,00 5.728,91 0,00 0,00 17.186,73 1.360,88 1.830,67 0,00 3.191,55 13.995,18 2.029,46 913,80 30/06/2017
772 535500 ELAINE DE OLIVEIRA CAMPOS REIS OFICIAL DO MP ATIVO RIBEIRÃO DAS NEVES - COMARCA; SEC PJ EXECUCAO PENAL RIBEIRAO NEVES 4.453,07 267,18 0,00 2.360,13 0,00 0,00 7.080,38 557,47 309,10 0,00 866,57 6.213,81 884,00 405,55 30/06/2017
773 455700 ELAINE DE OLIVEIRA CASTRO ANALISTA DO MP ATIVO POMPÉU - COMARCA; POMPEU-PJ-UNPJ 7.806,95 780,70 0,00 4.293,83 0,00 0,00 12.881,48 1.021,14 1.180,33 0,00 2.201,47 10.680,01 1.583,00 805,83 30/06/2017
774 367200 ELAINE MUNIZ BARBOSA ANALISTA DO MP ATIVO BELO HORIZONTE - COMARCA; DIRETORIA DE REDES E BANCOS DE DADOS 10.755,28 2.151,06 0,00 6.453,17 0,00 0,00 19.359,51 1.535,76 2.289,47 0,00 3.825,23 15.534,28 884,00 1.055,13 30/06/2017
775 176900 ELAINE RIBEIRO TAVEIRA OFICIAL DO MP ATIVO BELO HORIZONTE - COMARCA; DIRETORIA DE PESSOAL ADMINISTRATIVO - DPAD 9.461,59 2.838,48 0,00 6.150,04 0,00 0,00 18.450,11 1.477,25 2.141,08 0,00 3.618,33 14.831,78 884,00 1.129,43 30/06/2017
776 496200 ELAINE SABRINA DIAS MOREIRA ANALISTA DO MP ATIVO CORONEL FABRICIANO - COMARCA; CORONEL FABRICIANO-PJ-03PJ 7.806,95 780,70 0,00 4.293,83 0,00 0,00 12.881,48 1.022,04 1.232,47 0,00 2.254,51 10.626,97 884,00 703,66 30/06/2017
777 489200 ELAINE VICENTINO GARCIA ANALISTA DO MP ATIVO BELO HORIZONTE - COMARCA; CENTRAL DE APOIO TECNICO-SETOR CONTABIL 7.806,95 1.561,39 0,00 4.684,17 0,00 0,00 14.052,51 1.118,14 1.319,27 0,00 2.437,41 11.615,10 1.583,00 796,60 30/06/2017
778 244500 ELCI ALVES DE SOUZA ASSESSOR ATIVO BELO HORIZONTE - COMARCA; CAO-CONFLITOS AGRARIOS-SECRETARIA 0,00 1.315,18 4.383,93 2.849,56 0,00 0,00 8.548,67 608,44 842,09 0,00 1.450,53 7.098,14 884,00 900,27 30/06/2017
779 472500 ELCI VAZ DE OLIVEIRA FILHO ANALISTA DO MP ATIVO PIUMHI - COMARCA; PIUMHI-PJ-02PJ 8.594,48 3.437,79 0,00 6.016,14 4.010,76 0,00 22.059,17 1.429,11 3.178,50 0,00 4.607,61 17.451,56 884,00 959,64 30/06/2017
780 385200 ELCI VIANA REIS OFICIAL DO MP ATIVO RIO PARDO DE MINAS - COMARCA; RIO PARDO DE MINAS-PJ-SECRETARIA 6.540,78 2.616,31 0,00 4.578,55 0,00 0,00 13.735,64 1.097,12 1.371,84 0,00 2.468,96 11.266,68 1.486,88 816,67 30/06/2017
781 289801 ELCIO JOSE DOS SANTOS ASSESSOR/ANALISTA ATIVO BELO HORIZONTE - COMARCA; EXTINTA - DIRETORIA SERVIÇOS GERAIS E TRANS 0,00 1.075,53 10.755,28 5.915,41 0,00 0,00 17.746,22 1.131,23 2.098,13 0,00 3.229,36 14.516,86 884,00 943,56 30/06/2017
782 319600 ELEN TULER DE ALBERGARIA ANALISTA DO MP ATIVO BELO HORIZONTE - COMARCA; BH-19PJ SAUDE 10.087,71 3.026,31 0,00 6.557,01 0,00 0,00 19.671,03 1.565,20 2.340,30 0,00 3.905,50 15.765,53 2.282,00 1.115,12 30/06/2017
783 333100 ELENILDA ROCHA DE MORAES MELO OFICIAL DO MP ATIVO MAR DE ESPANHA - COMARCA; MAR DE ESPANHA-PJ-SECRETARIA 5.226,73 1.045,35 0,00 3.136,04 0,00 0,00 9.408,12 750,51 613,59 0,00 1.364,10 8.044,02 884,00 550,68 30/06/2017
784 151000 ELI LOURENCO RIBEIRO AGENTE DO MP ATIVO BELO HORIZONTE - COMARCA; BH-17PJ PATRIMONIO PUBLICO-SECRETARIA 8.594,48 3.437,79 0,00 6.016,14 0,00 0,00 18.048,41 1.443,36 1.547,40 0,00 2.990,76 15.057,65 884,00 1.089,21 30/06/2017
785 205500 ELIANA ALVES DE SOUSA OFICIAL DO MP ATIVO GOVERNADOR VALADARES - COMARCA; GOVERNADOR VALADARES-PJ-07PJ 7.322,31 2.196,69 0,00 4.759,50 3.173,00 0,00 17.451,50 1.142,59 2.332,99 0,00 3.475,58 13.975,92 979,89 1.007,51 30/06/2017
786 628800 ELIANA APARECIDA PEREIRA ANALISTA DO MP ATIVO CAMBUÍ - COMARCA; CAMBUI-PJ-02PJ 5.572,67 0,00 0,00 2.786,34 0,00 0,00 8.359,01 661,87 442,41 0,00 1.104,28 7.254,73 884,00 514,99 30/06/2017
787 301700 ELIANA DA SILVEIRA ANALISTA DO MP ATIVO BELO HORIZONTE - COMARCA; ASSESS TECNICO-JUR JUNTO AS PROC. DE JUST 11.105,40 2.221,08 0,00 6.663,24 0,00 0,00 19.989,72 1.590,57 2.392,30 0,00 3.982,87 16.006,85 1.066,90 1.133,18 30/06/2017
788 103400 ELIANA DE FARIA MORAIS JOTTA OFICIAL DO MP ATIVO BELO HORIZONTE - COMARCA; DIRET DE PESSOAL DO MINISTERIO PUBLICO - DPMP 21.079,94 10.539,97 0,00 15.235,56 0,00 0,00 46.855,47 3.351,82 6.484,17 1.148,80 10.984,79 35.870,68 5.759,38 446,91 30/06/2017
789 251500 ELIANA DE LIMA MILAGRES FONSECA ANALISTA DO MP ATIVO CONTAGEM - COMARCA; CONTAGEM-PJ-25PJ 11.840,34 2.368,07 0,00 7.104,21 0,00 0,00 21.312,62 1.687,59 2.503,87 0,00 4.191,46 17.121,16 884,00 1.133,18 30/06/2017
790 503900 ELIANA DIAS DUTRA FERREIRA OFICIAL DO MP ATIVO GOVERNADOR VALADARES - COMARCA; GOVERNADOR VALADARES-PJ-10PJ 5.572,67 557,27 0,00 3.064,97 0,00 0,00 9.194,91 749,78 526,67 0,00 1.276,45 7.918,46 0,00 686,42 30/06/2017
791 413900 ELIANA PINTO DE OLIVEIRA NEVES ANALISTA DO MP ATIVO CAMPO BELO - COMARCA; CAMPO BELO-PJ-03PJ 9.163,30 916,33 0,00 5.039,82 0,00 0,00 15.119,45 1.214,93 1.597,63 0,00 2.812,56 12.306,89 1.583,00 969,71 30/06/2017
792 228200 ELIANA RODRIGUES DA CUNHA PINHEIRO OFICIAL DO MP ATIVO BELO HORIZONTE - COMARCA; DIVISAO DE CONTROLE IMOBILIARIO 9.163,30 2.748,99 0,00 0,00 0,00 1.310,35 13.222,64 1.420,01 2.406,52 0,00 3.826,53 9.396,11 4.737,02 2.159,33 30/06/2017
793 386600 ELIANA SABINO CHAVES ANALISTA DO MP ATIVO CARATINGA - COMARCA; CARATINGA-PJ-06PJ 9.461,59 4.730,80 0,00 7.096,20 0,00 0,00 21.288,59 1.700,40 2.552,09 0,00 4.252,49 17.036,10 1.451,70 1.525,46 30/06/2017
794 297400 ELIANE AUGUSTA RIBEIRO COSTA ANALISTA DO MP ATIVO CONSELHEIRO LAFAIETE - COMARCA; CONSELHEIRO LAFAIETE-PJ-05PJ 12.623,91 2.524,78 0,00 7.574,35 0,00 0,00 22.723,04 1.808,06 2.681,87 0,00 4.489,93 18.233,11 884,00 1.288,10 30/06/2017
795 510600 ELIANE CAROLINA MAIA ANALISTA DO MP ATIVO IGARAPÉ - COMARCA; IGARAPE-PJ-02PJ 7.806,95 780,70 0,00 4.293,83 0,00 0,00 12.881,48 1.022,04 1.023,92 0,00 2.045,96 10.835,52 1.583,00 703,66 30/06/2017
796 269300 ELIANE EDLAMAR ROCHA OFICIAL DO MP ATIVO PEDRO LEOPOLDO - COMARCA; PEDRO LEOPOLDO-PJ-02PJ 7.560,72 1.512,14 0,00 4.536,43 3.024,29 0,00 16.633,58 1.085,63 2.130,77 0,00 3.216,40 13.417,18 1.583,00 796,60 30/06/2017
797 359100 ELIANE FARIAS DE OLIVEIRA ASSESSOR ATIVO BELO HORIZONTE - COMARCA; EXTINTA-TUTELA DAS FUNDACOES-21 PJ- GABINETE 0,00 0,00 2.625,65 1.312,83 913,64 0,00 4.852,12 411,42 266,54 0,00 677,96 4.174,16 884,00 230,54 30/06/2017
798 262600 ELIANE FERREIRA SOARES ASSESSOR ATIVO BELO HORIZONTE - COMARCA; BH-18PJ DIREITOS HUMANOS-SECRETARIA 0,00 1.315,18 4.383,93 2.306,12 1.983,10 0,00 9.988,33 608,44 1.266,89 0,00 1.875,33 8.113,00 884,00 500,38 30/06/2017
799 204400 ELIANE GLAUCE DE QUEIROS MAIA OFICIAL DO MP ATIVO GUANHÃES - COMARCA; GUANHAES-PJ-01PJ 10.755,28 3.226,58 0,00 0,00 0,00 0,00 13.981,86 1.668,78 2.552,70 0,00 4.221,48 9.760,38 1.583,00 1.188,90 30/06/2017
800 91800 ELIANE KAPLER COORDENADOR/OFICIAL ATIVO BELO HORIZONTE - COMARCA; DIRET DE CONTROLE E DE MANUTENCAO DE IMOVEIS 15.451,48 10.248,49 0,00 8.878,86 0,00 0,00 34.578,83 2.764,81 5.392,75 0,00 8.157,56 26.421,27 884,00 2.178,96 30/06/2017
801 334200 ELIANE MARCIA DE OLIVEIRA BRITO OFICIAL DO MP ATIVO BELO HORIZONTE - COMARCA; BH-08PJ JUIZADO ESPECIAL-SECRETARIA 5.226,73 1.045,35 0,00 2.458,20 0,00 0,00 8.730,28 750,51 665,73 0,00 1.416,24 7.314,04 884,00 550,68 30/06/2017
802 365900 ELIANE MARIA DE OLIVEIRA FERREIRA OFICIAL DO MP ATIVO SETE LAGOAS - COMARCA; SETE LAGOAS-PJ-11PJ 7.322,31 2.928,92 0,00 5.125,62 0,00 0,00 15.376,85 1.218,96 1.639,63 0,00 2.858,59 12.518,26 884,00 830,18 30/06/2017
803 320600 ELIANE STADLER DE SOUZA OFICIAL DO MP ATIVO FRANCISCO SÁ - COMARCA; FRANCISCO SA-PJ-SECRETARIA 6.753,72 1.350,74 0,00 4.052,23 0,00 0,00 12.156,69 971,00 1.062,07 0,00 2.033,07 10.123,62 884,00 722,80 30/06/2017
804 448900 ELIAS PEREIRA OTONI ASSESSOR ATIVO BELO HORIZONTE - COMARCA; BH-18PJ DIREITOS HUMANOS 0,00 0,00 4.383,93 1.864,06 0,00 0,00 6.247,99 608,44 326,94 0,00 935,38 5.312,61 884,00 384,90 30/06/2017
805 495400 ELICA SOUZA GASPARONI MATTOS OFICIAL DO MP ATIVO UBÁ - COMARCA; UBA-PJ-06PJ 5.572,67 557,27 0,00 2.412,35 2.043,31 0,00 10.585,60 749,78 1.192,85 0,00 1.942,63 8.642,97 1.583,00 770,13 30/06/2017
806 86600 ELIENE FERREIRA DA SILVA OFICIAL DO MP ATIVO BELO HORIZONTE - COMARCA; BH-22PJ PES COM DEF E IDOSOS 18.047,65 12.633,36 0,00 15.235,56 0,00 0,00 45.916,57 3.613,28 6.432,03 209,90 10.255,21 35.661,36 6.458,38 2.823,79 30/06/2017
807 183800 ELIENE MARIA CUNHA OFICIAL DO MP ATIVO BELO HORIZONTE - COMARCA; DIRETORIA DE PESSOAL ADMINISTRATIVO - DPAD 11.105,40 3.331,62 0,00 0,00 0,00 0,00 14.437,02 1.723,11 2.611,96 0,00 4.335,07 10.101,95 884,00 1.227,62 30/06/2017
808 172300 ELINA APARECIDA SILVA ASSESSOR ATIVO BELO HORIZONTE - COMARCA; BH-19PJ SAUDE-SECRETARIA 130PJ 0,00 787,70 2.625,65 1.706,68 0,00 0,00 5.120,03 505,68 157,07 0,00 662,75 4.457,28 884,00 299,70 30/06/2017
809 492501 ELINE CAMPOS DA FONSECA CUNHA ANALISTA DO MP ATIVO JEQUERI - COMARCA; JEQUERI-PJ-UNPJ 6.753,72 675,37 0,00 2.831,49 2.476,36 0,00 12.736,94 869,02 1.629,91 0,00 2.498,93 10.238,01 884,00 549,62 30/06/2017
810 618900 ELISA MOURA VIEIRA MARCATTI OFICIAL DO MP ATIVO BELO HORIZONTE - COMARCA; BH-23PJ CIVEL-SEC EXP CIVEIS 3.982,20 0,00 0,00 1.991,10 0,00 0,00 5.973,30 472,98 176,82 0,00 649,80 5.323,50 884,00 368,01 30/06/2017
811 256500 ELISABETE NOGUEIRA ANALISTA DO MP ATIVO RIBEIRÃO DAS NEVES - COMARCA; SEC PJ EXECUCAO PENAL RIBEIRAO NEVES 10.755,28 4.302,11 0,00 7.528,70 0,00 0,00 22.586,09 1.797,15 2.659,53 0,00 4.456,68 18.129,41 1.583,00 1.280,36 30/06/2017
812 355000 ELISANGELA DARLANTONI RIBEIRO OFICIAL DO MP ATIVO ARAXÁ - COMARCA; ARAXA-PJ-05PJ 6.334,59 1.266,92 0,00 3.800,76 0,00 0,00 11.402,27 907,27 938,97 0,00 1.846,24 9.556,03 1.583,00 749,39 30/06/2017
813 604400 ELISANGELA DEMASI FERREIRA MOREIRA ANALISTA DO MP ATIVO CAXAMBU - COMARCA; CAXAMBU-PJ-UNPJ 6.334,59 380,08 0,00 3.357,34 0,00 0,00 10.072,01 797,87 774,06 0,00 1.571,93 8.500,08 1.583,00 538,64 30/06/2017
814 323800 ELISANGELA GONCALVES DE JESUS OFICIAL DO MP ATIVO BELO HORIZONTE - COMARCA; BH-09PJ AUDITORIA MILITAR-SECRETARIA 6.973,61 1.394,72 0,00 4.184,17 0,00 0,00 12.552,50 985,10 1.126,65 0,00 2.111,75 10.440,75 1.583,00 587,14 30/06/2017
815 261400 ELISANGELA MENDES OFICIAL DO MP ATIVO POUSO ALEGRE - COMARCA; POUSO ALEGRE-PJ-05PJ 7.322,31 1.464,46 0,00 4.393,39 0,00 0,00 13.180,16 1.049,98 1.281,20 0,00 2.331,18 10.848,98 884,00 758,66 30/06/2017
816 507400 ELISANGELA MIGUEL DA ROCHA SILVA ASSESSOR ATIVO BELO HORIZONTE - COMARCA; CGMP-DIVIS DE APOIO FISC ORIENTACAO FUNCIONAL 0,00 0,00 2.625,65 1.312,83 0,00 0,00 3.938,48 411,42 81,50 0,00 492,92 3.445,56 1.583,00 230,54 30/06/2017
817 534100 ELISANGELA ROSINE SILVA OFICIAL DO MP ATIVO UBERABA - COMARCA; UBERABA-PJ-06PJ 4.111,87 246,71 0,00 2.179,29 0,00 0,00 6.537,87 517,68 236,68 0,00 754,36 5.783,51 884,00 347,62 30/06/2017
818 634300 ELIUDE GRACA DAMASIO ROSARIO FRANCELINO OFICIAL DO MP ATIVO BELO HORIZONTE - COMARCA; EXTINTA-DEF DIREIT HUM-COMB A VIOL DOMEST-18 3.617,27 0,00 0,00 1.545,63 0,00 0,00 5.162,90 429,64 128,11 0,00 557,75 4.605,15 884,00 288,48 30/06/2017
819 461700 ELIZABETH ALEIXO DA PAZ ANALISTA DO MP ATIVO JUIZ DE FORA - COMARCA; JUIZ DE FORA-PJ-24PJ 8.594,48 859,45 0,00 4.726,97 0,00 0,00 14.180,90 1.122,87 1.444,49 0,00 2.567,36 11.613,54 1.056,34 754,00 30/06/2017
820 227300 ELIZABETH COIMBRA FELIX ASSESSOR/OFICIAL ATIVO BELO HORIZONTE - COMARCA; DIRETORIA DE PAGAMENTO DE PESSOAL-DPAG 9.461,59 5.935,71 0,00 7.698,65 0,00 0,00 23.095,95 1.681,83 3.178,23 0,00 4.860,06 18.235,89 921,85 2.550,85 30/06/2017
821 354800 ELIZABETH DOS REIS OFICIAL DO MP ATIVO BELO HORIZONTE - COMARCA; EXTINTA - DIVISÃO DE MATERIAL PERMANENTE 7.322,31 1.464,46 0,00 4.393,39 0,00 0,00 13.180,16 1.044,80 1.229,07 0,00 2.273,87 10.906,29 884,00 711,58 30/06/2017
822 612000 ELIZABETH MARIA DE QUEIROZ TANIGUCHI OFICIAL DO MP ATIVO BELO HORIZONTE - COMARCA; SUPERINTENDENCIA DE RECURSOS HUMANOS 3.735,01 224,10 0,00 1.674,94 0,00 0,00 5.634,05 470,44 173,74 0,00 644,18 4.989,87 884,00 1.016,01 30/06/2017
823 452800 ELIZANGELA MARIA DAVI OFICIAL DO MP ATIVO ARCOS - COMARCA; ARCOS-PJ-01PJ 4.598,03 459,80 0,00 2.083,72 0,00 0,00 7.141,55 601,46 334,04 0,00 935,50 6.206,05 1.583,00 410,06 30/06/2017
824 496300 ELIZANGELA MARQUES PINTO COELHO OFICIAL DO MP ATIVO BELO HORIZONTE - COMARCA; DIRETORIA DE PESSOAL ADMINISTRATIVO - DPAD 5.572,67 557,27 0,00 3.064,97 0,00 0,00 9.194,91 749,78 630,94 0,00 1.380,72 7.814,19 1.583,00 694,09 30/06/2017
825 422500 ELIZETE FORTES DA CUNHA ANALISTA DO MP ATIVO RIBEIRÃO DAS NEVES - COMARCA; RIBEIRAO DAS NEVES-PJ-07PJ 9.461,59 946,16 0,00 5.203,88 0,00 0,00 15.611,63 1.242,21 1.625,80 0,00 2.868,01 12.743,62 1.583,00 885,00 30/06/2017
826 506100 ELLEM CRISTINA ROCHA FONSECA BOWEN ANALISTA DO MP ATIVO GOVERNADOR VALADARES - COMARCA; COORD REG PJ DEF EDU DIR CRIANCA ADOL RIODOCE 7.806,95 780,70 0,00 0,00 2.862,55 0,00 11.450,20 1.022,04 2.019,67 0,00 3.041,71 8.408,49 1.583,00 820,94 30/06/2017
827 468200 ELLEN CRISTINA BERNARDES DARE ANALISTA DO MP ATIVO TRÊS PONTAS - COMARCA; TRES PONTAS-PJ-02PJ 8.594,48 859,45 0,00 4.726,97 0,00 0,00 14.180,90 1.122,87 1.392,35 0,00 2.515,22 11.665,68 1.583,00 754,00 30/06/2017
828 418800 ELLEN CRISTINA DE QUEIROZ FERREIRA ANALISTA DO MP ATIVO BELO HORIZONTE - COMARCA; CENTRAL DE APOIO TECNICO-SETOR CONTABIL 9.163,30 916,33 0,00 3.686,62 0,00 0,00 13.766,25 1.207,65 1.597,63 0,00 2.805,28 10.960,97 1.583,00 898,95 30/06/2017
829 328401 ELLEN CRISTINA FERREIRA MORAIS MONTEIRO ANALISTA DO MP ATIVO CAMANDUCAIA - COMARCA; CAMANDUCAIA-PJ-UNPJ 9.163,30 916,33 0,00 3.738,76 0,00 0,00 13.818,39 1.207,65 1.493,35 0,00 2.701,00 11.117,39 1.583,00 898,95 30/06/2017
830 556100 ELLEN CRISTINE BIANCHIN DA SILVA OFICIAL DO MP ATIVO SÃO GONÇALO DO SAPUCAÍ - COMARCA; SAO GONCALO DO SAPUCAI-PJ-02PJ 3.735,01 224,10 0,00 0,00 1.319,70 0,00 5.278,81 472,54 410,96 0,00 883,50 4.395,31 884,00 336,66 30/06/2017
831 447100 ELLEN ROSANA DE MACEDO BORGES OFICIAL DO MP ATIVO UBERLÂNDIA - COMARCA; UBERLANDIA-PJ-17PJ 5.754,07 575,41 0,00 3.164,74 0,00 0,00 9.494,22 758,34 679,78 0,00 1.438,12 8.056,10 884,00 564,48 30/06/2017
832 477700 ELMA JACOB OFICIAL DO MP ATIVO BELO HORIZONTE - COMARCA; COORD DE GABINETE DO PGJ 5.572,67 3.900,87 0,00 4.736,77 0,00 1.042,09 15.252,40 1.135,02 1.735,86 0,00 2.870,88 12.381,52 884,00 937,83 30/06/2017
833 123300 ELMA PAULA DOS SANTOS COELHO OFICIAL DO MP ATIVO BELO HORIZONTE - COMARCA; BH-19PJ SAUDE-SECRETARIA 130PJ 13.228,78 11.905,90 0,00 12.567,34 0,00 2.764,81 40.466,83 3.003,50 6.042,68 0,00 9.046,18 31.420,65 884,00 2.757,05 30/06/2017
834 356500 ELOISA CARDOSO SILVA FRANCA OFICIAL DO MP ATIVO PEÇANHA - COMARCA; PECANHA-PJ-SECRETARIA 5.226,73 1.045,35 0,00 0,00 0,00 0,00 6.272,08 745,45 509,32 0,00 1.254,77 5.017,31 884,00 584,93 30/06/2017
835 251901 ELOISA COSTA E SILVA ANALISTA DO MP ATIVO SANTOS DUMONT - COMARCA; SANTOS DUMONT-PJ-02PJ 7.806,95 1.561,39 0,00 4.684,17 3.122,78 0,00 17.175,29 1.118,14 2.230,17 0,00 3.348,31 13.826,98 1.734,73 796,60 30/06/2017
836 400400 ELOIZA MARIA FERRI PIRES DA SILVA OFICIAL DO MP ATIVO BELO HORIZONTE - COMARCA; ASSESSORIA TECNICA DO PROCON-MG 5.754,07 575,41 0,00 3.164,74 0,00 0,00 9.494,22 755,44 627,64 0,00 1.383,08 8.111,14 5.947,58 1.002,36 30/06/2017
837 258000 ELSO CECIANO PALMEIRA OFICIAL DO MP ATIVO BELO HORIZONTE - COMARCA; DIRET DE PESSOAL DO MINISTERIO PUBLICO - DPMP 8.874,34 4.437,17 0,00 6.655,76 0,00 0,00 19.967,27 1.577,37 2.336,49 0,00 3.913,86 16.053,41 884,00 1.168,74 30/06/2017
838 206900 ELVIRA RITA DOS SANTOS ANALISTA DO MP ATIVO BELO HORIZONTE - COMARCA; CENTRAL DE APOIO TECNICO-SETOR CONTABIL 16.063,25 4.818,98 0,00 10.441,12 0,00 2.297,05 33.620,40 2.498,73 4.873,25 0,00 7.371,98 26.248,42 884,00 2.035,14 30/06/2017
839 506800 ELVIS FERREIRA DA SILVA ANALISTA DO MP ATIVO BELO HORIZONTE - COMARCA; DIRETORIA DE SISTEMAS DE INFORMACAO 7.806,95 780,70 0,00 4.293,83 0,00 0,00 12.881,48 1.022,04 1.180,33 0,00 2.202,37 10.679,11 884,00 703,66 30/06/2017
840 602400 ELZA MARIA MOREIRA MUNIZ ANALISTA DO MP ATIVO CARMO DO PARANAÍBA - COMARCA; CARMO DO PARANAIBA-PJ-02PJ 6.334,59 380,08 0,00 3.357,34 2.238,22 0,00 12.310,23 797,87 1.389,57 0,00 2.187,44 10.122,79 884,00 628,41 30/06/2017
841 368401 ELZIRA SIMOES DOS SANTOS ASSESSOR ATIVO BELO HORIZONTE - COMARCA; SUPERINTENDENCIA DE COMUNICACAO INTEGRADA 0,00 1.953,92 9.769,61 5.861,77 163,39 0,00 17.748,69 608,44 2.475,32 0,00 3.083,76 14.664,93 884,00 1.029,34 30/06/2017
842 437400 EMANOELLE DA SILVA RODRIGUES OFICIAL DO MP ATIVO UNAÍ - COMARCA; UNAI-PJ-03PJ 5.572,67 557,27 0,00 3.064,97 0,00 0,00 9.194,91 733,49 578,81 0,00 1.312,30 7.882,61 1.583,00 538,20 30/06/2017
843 458900 EMANUELLE CONRAD SILVA FREDERICO ANALISTA DO MP ATIVO ALFENAS - COMARCA; ALFENAS-PJ-05PJ 9.163,30 916,33 0,00 5.039,82 0,00 0,00 15.119,45 1.248,40 1.597,63 0,00 2.846,03 12.273,42 911,80 1.286,62 30/06/2017
844 284100 EMERSON MAGNO ALMEIDA PEDROSA DA FONSECA ANALISTA DO MP ATIVO BELO HORIZONTE - COMARCA; CENTRAL DE APOIO TECNICO-SETOR CONTABIL 12.623,91 2.524,78 0,00 0,00 0,00 0,00 15.148,69 1.808,06 1.696,25 0,00 3.504,31 11.644,38 884,00 1.288,10 30/06/2017
845 179900 EMERSON MORAIS DIAS OFICIAL DO MP ATIVO BELO HORIZONTE - COMARCA; EXTINTA - DIVISÃO DE APOIO À LICITAÇÃO 11.105,40 3.331,62 0,00 7.218,51 0,00 0,00 21.655,53 1.729,71 2.664,10 0,00 4.393,81 17.261,72 884,00 1.294,22 30/06/2017
846 488700 EMERSON SIQUEIRA DE SOUSA TEIXEIRA ANALISTA DO MP ATIVO TARUMIRIM - COMARCA; TARUMIRIM-PJ-UNPJ 7.806,95 780,70 0,00 0,00 0,00 0,00 8.587,65 1.022,04 1.076,06 0,00 2.098,10 6.489,55 1.924,11 703,66 30/06/2017
847 194200 EMILIA ALVES FERREIRA RAMOS OFICIAL DO MP ATIVO UBERLÂNDIA - COMARCA; UBERLANDIA-PJ-SEC FAMILIA 6.973,61 2.092,08 0,00 4.532,85 0,00 0,00 13.598,54 1.067,19 1.245,19 0,00 2.312,38 11.286,16 884,00 636,06 30/06/2017
848 123400 EMILIO CARLOS MARTINS OFICIAL DO MP ATIVO AREADO - COMARCA; AREADO-PJ-UNPJ 13.034,76 10.427,81 0,00 11.731,29 0,00 0,00 35.193,86 2.800,34 4.820,97 0,00 7.621,31 27.572,55 1.419,08 1.995,10 30/06/2017
849 620700 EMILY FONTANA DE SIQUEIRA ANALISTA DO MP ATIVO BELO HORIZONTE - COMARCA; BH-18PJ VIOLENCIA DOMESTICA 6.134,81 0,00 0,00 2.439,99 0,00 0,00 8.574,80 728,65 580,00 0,00 1.308,65 7.266,15 1.955,80 566,94 30/06/2017
850 297000 ENEIDA SOARES COSTA MELO ANALISTA DO MP ATIVO PIUMHI - COMARCA; PIUMHI-PJ-01PJ 12.623,91 2.524,78 0,00 7.574,35 0,00 0,00 22.723,04 1.808,06 2.838,28 0,00 4.646,34 18.076,70 884,00 1.288,10 30/06/2017
851 276000 ENEZIO RODRIGUES DE SOUZA FILHO OFICIAL DO MP ATIVO UBERLÂNDIA - COMARCA; UBERLANDIA-PJ-02PJ 7.806,95 1.561,39 0,00 4.684,17 0,00 0,00 14.052,51 1.115,38 1.423,54 0,00 2.538,92 11.513,59 884,00 771,48 30/06/2017
852 387700 ENI MARIA DOS REIS OFICIAL DO MP ATIVO POUSO ALEGRE - COMARCA; POUSO ALEGRE-PJ-04PJ 6.540,78 654,08 0,00 2.755,92 0,00 0,00 9.950,78 858,73 891,58 0,00 1.750,31 8.200,47 884,00 720,10 30/06/2017
853 605100 ENIA MAIA ASSESSOR/OFICIAL ATIVO BELO HORIZONTE - COMARCA; DIRETORIA DE ORCAMENTO-DIOR/SPC 0,00 532,46 8.874,34 4.703,40 0,00 0,00 14.110,20 517,90 1.585,66 0,00 2.103,56 12.006,64 1.032,41 779,16 30/06/2017
854 612200 ENILDO GOMES MEIRA FILHO ANALISTA DO MP ATIVO BUENÓPOLIS - COMARCA; BUENOPOLIS-PJ-UNPJ 6.334,59 380,08 0,00 3.357,34 0,00 0,00 10.072,01 797,87 669,78 0,00 1.467,65 8.604,36 1.583,00 538,64 30/06/2017
855 553700 ENIVALDO NOVATO PUBLIO ANALISTA DO MP ATIVO DIVINÓPOLIS - COMARCA; DIVINOPOLIS-PJ-09PJ 6.334,59 380,08 0,00 3.357,34 2.238,22 0,00 12.310,23 801,43 1.337,43 0,00 2.138,86 10.171,37 884,00 661,85 30/06/2017
856 417300 ERIC BARATTI DA SILVA ANALISTA DO MP ATIVO PRATA - COMARCA; PRATA-PJ-UNPJ 8.594,48 859,45 0,00 0,00 0,00 0,00 9.453,93 1.125,57 1.444,49 0,00 2.570,06 6.883,87 884,00 778,54 30/06/2017
857 637600 ERIC DA ROCHA CHEHUEN ANALISTA DO MP ATIVO LIMA DUARTE - COMARCA; LIMA DUARTE-PJ-UNPJ 6.134,81 0,00 0,00 0,00 0,00 0,00 6.134,81 608,44 650,39 0,00 1.258,83 4.875,98 884,00 489,28 30/06/2017
858 398900 ERIC TEIXEIRA SILVA OFICIAL DO MP ATIVO UBERLÂNDIA - COMARCA; UBERLANDIA-PJ-SEC CIVEIS CRIMINAIS 6.334,59 633,46 0,00 3.484,03 0,00 0,00 10.452,08 831,67 836,07 0,00 1.667,74 8.784,34 884,00 592,50 30/06/2017
859 274200 ERICA DE SOUZA ANDRADE OFICIAL DO MP ATIVO CURVELO - COMARCA; CURVELO-PJ-05PJ 8.061,11 1.612,22 0,00 4.836,67 0,00 0,00 14.510,00 1.161,78 1.446,05 0,00 2.607,83 11.902,17 1.127,77 1.029,79 30/06/2017
860 225700 ERICA GOMES DO COUTO OFICIAL DO MP ATIVO BELO HORIZONTE - COMARCA; CAO-TS-TERCEIRO SETOR-SECRETARIA 10.416,20 3.124,86 0,00 6.770,53 0,00 0,00 20.311,59 1.608,32 2.444,81 0,00 4.053,13 16.258,46 1.583,00 1.079,94 30/06/2017
861 632600 ERICA LEONOR MARTINS OFICIAL DO MP ATIVO RESENDE COSTA - COMARCA; RESENDE COSTA-PJ-UNPJ 3.982,20 0,00 0,00 1.991,10 0,00 0,00 5.973,30 469,78 176,82 0,00 646,60 5.326,70 884,00 336,56 30/06/2017
862 524800 ERICA MACHADO DA COSTA E SOUZA ANALISTA DO MP ATIVO BELO HORIZONTE - COMARCA; PROC JUST RECURSOS ESP E EXTRAORD CRIMINAIS 7.806,95 780,70 0,00 4.293,83 0,00 0,00 12.881,48 1.022,04 1.232,47 0,00 2.254,51 10.626,97 884,00 703,66 30/06/2017
863 249500 ERICA RODRIGUES ANDRADE OFICIAL DO MP ATIVO SÃO FRANCISCO - COMARCA; SAO FRANCISCO-PJ-02PJ 6.753,72 1.350,74 0,00 4.052,23 0,00 0,00 12.156,69 963,71 1.062,07 0,00 2.025,78 10.130,91 1.583,00 656,55 30/06/2017
864 260800 ERICA VIANA GIARDINI DE OLIVEIRA OFICIAL DO MP ATIVO BELO HORIZONTE - COMARCA; EXTINTA - DIVISÃO DE COMPRAS 8.323,51 1.664,70 0,00 4.994,11 0,00 0,00 14.982,32 1.192,14 1.575,26 0,00 2.767,40 12.214,92 884,00 849,32 30/06/2017
865 299800 ERICH DOUGLAS RIBEIRO GARCIA ANALISTA DO MP ATIVO BELO HORIZONTE - COMARCA; CENTRAL DE APOIO TECNICO-SETOR CONTABIL 12.225,81 2.445,16 0,00 7.335,49 0,00 0,00 22.006,46 1.762,01 2.721,36 0,00 4.483,37 17.523,09 884,00 1.347,14 30/06/2017
866 365000 ERICK EDUARDO JOSE DA SILVA OFICIAL DO MP ATIVO SANTOS DUMONT - COMARCA; SANTOS DUMONT-PJ-02PJ 5.226,73 1.045,35 0,00 3.136,04 0,00 0,00 9.408,12 745,45 665,73 0,00 1.411,18 7.996,94 884,00 504,80 30/06/2017
867 227400 ERIKA DE LAET GOULART BOECHAT ASSESSOR/OFICIAL ATIVO BELO HORIZONTE - COMARCA; ASSESSORIA ESPECIAL DO PGJ 10.416,20 5.275,93 0,00 7.846,07 0,00 0,00 23.538,20 1.608,32 2.984,22 0,00 4.592,54 18.945,66 2.838,37 1.383,88 30/06/2017
868 285100 ERIKA FERREIRA DA SILVA OFICIAL DO MP ATIVO JUIZ DE FORA - COMARCA; JUIZ DE FORA-PJ-14PJ 8.061,11 1.612,22 0,00 4.836,67 0,00 0,00 14.510,00 1.161,78 1.498,19 0,00 2.659,97 11.850,03 884,00 888,24 30/06/2017
869 420100 ERIKA JEANINE VERSIANI DE CASTRO ANALISTA DO MP ATIVO MONTES CLAROS - COMARCA; COORD REG PJ DEF EDUC DIR CRIANCA ADOL NORTE 9.461,59 946,16 0,00 5.203,88 0,00 0,00 15.611,63 1.246,96 1.677,94 0,00 2.924,90 12.686,73 884,00 928,21 30/06/2017
870 606900 ERIKA MARIA BARBOSA ANALISTA DO MP ATIVO BELO HORIZONTE - COMARCA; CAO-SAUDE 5.754,07 345,24 0,00 3.049,66 0,00 0,00 9.148,97 990,58 1.109,94 0,00 2.100,52 7.048,45 884,00 3.021,04 30/06/2017
871 491000 ERIKA ROCHA BARRETO ASSESSOR/ANALISTA ATIVO BELO HORIZONTE - COMARCA; DIRETORIA DE SISTEMAS DE INFORMACAO 0,00 887,43 8.874,34 4.880,89 0,00 0,00 14.642,66 1.022,04 1.555,35 0,00 2.577,39 12.065,27 1.018,03 904,14 30/06/2017
872 283201 ERIKA STEHLING COORDENADOR/ANALISTA ATIVO BELO HORIZONTE - COMARCA; CENTRAL DE APOIO TECNICO-SETOR DE ENGENHARIA 0,00 1.008,77 10.087,71 4.140,79 0,00 0,00 15.237,27 1.022,04 1.870,26 0,00 2.892,30 12.344,97 884,00 703,66 30/06/2017
873 254000 ERLANDIA DA SILVA MENDES OFICIAL DO MP ATIVO IPATINGA - COMARCA; IPATINGA-PJ-03PJ 9.163,30 3.665,32 0,00 6.414,31 0,00 0,00 19.242,93 1.576,18 2.114,03 0,00 3.690,21 15.552,72 884,00 1.520,56 30/06/2017
874 208600 ERNANE JOSE DA COSTA ANALISTA DO MP ATIVO BELO HORIZONTE - COMARCA; CENTRAL DE APOIO TECNICO-SETOR MEDICO 16.063,25 11.244,28 0,00 13.653,77 0,00 0,00 40.961,30 3.267,57 5.814,16 0,00 9.081,73 31.879,57 884,00 2.397,62 30/06/2017
875 260600 ERNANI CALDEIRA DE ANDRADE ANALISTA DO MP ATIVO BELO HORIZONTE - COMARCA; CENTRAL DE APOIO TECNICO-SETOR CONTABIL 13.752,51 4.125,75 0,00 8.939,13 0,00 0,00 26.817,39 2.119,93 3.506,34 0,00 5.626,27 21.191,12 884,00 1.393,78 30/06/2017
876 348500 ERNILANDIA OLIVEIRA DIAS OFICIAL DO MP ATIVO MONTES CLAROS - COMARCA; MONTES CLAROS-PJ-SECRETARIA 6.540,78 1.308,16 0,00 3.924,47 0,00 0,00 11.773,41 936,80 1.051,67 0,00 1.988,47 9.784,94 884,00 667,42 30/06/2017
877 199300 ERTON PORTINARI DE ANDRADE OFICIAL DO MP ATIVO SETE LAGOAS - COMARCA; SETE LAGOAS-PJ-01PJ 10.755,28 4.302,11 0,00 7.528,70 0,00 0,00 22.586,09 1.787,09 2.711,66 0,00 4.498,75 18.087,34 884,00 1.188,90 30/06/2017
878 618800 ESLY DE CARLA AYALLA BARBOSA MENDES OFICIAL DO MP ATIVO NOVA LIMA - COMARCA; NOVA LIMA-PJ-01PJ 3.617,27 0,00 0,00 1.808,64 1.205,76 0,00 6.631,67 429,64 359,52 0,00 789,16 5.842,51 884,00 336,56 30/06/2017
879 537000 ESTANISLAU CORREIA ALMEIDA JUNIOR OFICIAL DO MP ATIVO UBERLÂNDIA - COMARCA; UBERLANDIA-PJ-25PJ 4.111,87 246,71 0,00 2.179,29 0,00 0,00 6.537,87 517,68 236,68 0,00 754,36 5.783,51 884,00 347,62 30/06/2017
880 326900 ESTER ALICE PIMENTA OFICIAL DO MP ATIVO BELO HORIZONTE - COMARCA; COORD DE INCLUSAO E MOBILIZACAO SOCIAIS 7.560,72 1.512,14 0,00 4.536,43 0,00 0,00 13.609,29 1.132,26 1.413,27 0,00 2.545,53 11.063,76 884,00 1.220,19 30/06/2017
881 503700 ESTHER GONCALVES FONSECA ANALISTA DO MP ATIVO BELO HORIZONTE - COMARCA; DIRETORIA DE PUBLICIDADE INSTITUCIONAL 6.540,78 654,08 0,00 3.597,43 0,00 0,00 10.792,29 856,29 891,58 0,00 1.747,87 9.044,42 884,00 589,56 30/06/2017
882 475600 ETIENE DE FATIMA OLIVEIRA PEREIRA ANALISTA DO MP ATIVO PATROCÍNIO - COMARCA; PATROCINIO-PJ-04PJ 8.594,48 859,45 0,00 4.726,97 3.151,31 0,00 17.332,21 1.122,87 2.206,83 0,00 3.329,70 14.002,51 1.583,00 879,67 30/06/2017
883 428800 EUGENIA RODRIGUES TRAJANO BORGES ANALISTA DO MP ATIVO UBERABA - COMARCA; UBERABA-PJ-08PJ 9.163,30 916,33 0,00 5.039,82 0,00 0,00 15.119,45 1.207,65 1.597,63 0,00 2.805,28 12.314,17 884,00 898,95 30/06/2017
884 272700 EUGENIO DE BARCELOS FILHO OFICIAL DO MP ATIVO FRUTAL - COMARCA; FRUTAL-PJ-02PJ 6.540,78 1.308,16 0,00 2.993,01 0,00 0,00 10.841,95 936,80 999,53 0,00 1.936,33 8.905,62 884,00 667,42 30/06/2017
885 254100 EULALIA ALVES MIRANDA LUCAS OFICIAL DO MP ATIVO ALMENARA - COMARCA; ALMENARA-PJ-SECRETARIA 8.874,34 2.662,30 0,00 5.768,32 0,00 0,00 17.304,96 1.366,74 1.849,96 0,00 3.216,70 14.088,26 884,00 996,54 30/06/2017
886 615500 EUNICE BARBOSA PINTO OFICIAL DO MP ATIVO RIBEIRÃO DAS NEVES - COMARCA; RIBEIRAO DAS NEVES-PJ-SEC CRIMINAL 3.982,20 238,93 0,00 2.110,57 0,00 0,00 6.331,70 525,55 257,00 0,00 782,55 5.549,15 884,00 609,46 30/06/2017
887 641200 EUNICE ELVIRA DA SILVA MATOS OFICIAL DO MP ATIVO BELO HORIZONTE - COMARCA; BH-14PJ DEFESA CONSUMIDOR-SECRETARIA 3.285,74 0,00 0,00 1.642,87 0,00 0,00 4.928,61 392,17 83,85 0,00 476,02 4.452,59 884,00 279,40 30/06/2017
888 557900 EURIPEDES JUSUE PERES OFICIAL DO MP ATIVO IBIÁ - COMARCA; IBIA-PJ-UNPJ 3.735,01 224,10 0,00 0,00 0,00 0,00 3.959,11 470,44 173,74 0,00 644,18 3.314,93 974,74 368,01 30/06/2017
889 225800 EURO CESAR VIEIRA BARBOSA ANALISTA DO MP ATIVO BELO HORIZONTE - COMARCA; BH-17PJ PATRIMONIO PUBLICO 16.063,25 4.818,98 0,00 10.441,12 0,00 0,00 31.323,35 2.476,55 4.137,29 0,00 6.613,84 24.709,51 1.719,29 1.708,43 30/06/2017
890 199400 EUSTAQUIO ADAILTON LIMA E SILVA OFICIAL DO MP ATIVO MANGA - COMARCA; MANGA-PJ-01PJ 10.755,28 5.377,64 0,00 5.743,84 5.377,64 0,00 27.254,40 1.932,88 4.349,47 0,00 6.282,35 20.972,05 884,00 1.674,89 30/06/2017
891 249000 EUSTAQUIO GOMES DE OLIVEIRA OFICIAL DO MP ATIVO BELO HORIZONTE - COMARCA; BH-21PJ TUTELA DAS FUNDACOES 8.323,51 3.329,40 0,00 5.826,46 0,00 1.281,82 18.761,19 1.390,82 2.335,19 0,00 3.726,01 15.035,18 1.062,36 1.099,86 30/06/2017
892 548000 EVA VILMA LEAO DOS REIS JULIO OFICIAL DO MP ATIVO BELO HORIZONTE - COMARCA; BH-07PJ 01 TRIBUNAL JURI-SECRETARIA 4.111,87 1.233,56 0,00 2.672,72 1.781,81 0,00 9.799,96 640,45 928,93 0,00 1.569,38 8.230,58 884,00 476,73 30/06/2017
893 517000 EVALDO SENA COSTA FILHO ANALISTA DO MP ATIVO CONTAGEM - COMARCA; CONTAGEM-PJ-15PJ 7.806,95 2.342,09 0,00 5.074,52 0,00 0,00 15.223,56 1.211,31 1.458,21 0,00 2.669,52 12.554,04 938,23 862,98 30/06/2017
894 217500 EVELANGE LEAO RABELO ASSESSOR ATIVO BELO HORIZONTE - COMARCA; COORD EST DEF DIR FAMILIA PESSOA DEFICI IDOSO 0,00 787,70 2.625,65 1.706,68 47,57 0,00 5.167,60 505,68 227,70 0,00 733,38 4.434,22 884,00 299,70 30/06/2017
895 540400 EVIE SARAMELLA DE RESENDE OFICIAL DO MP ATIVO BARBACENA - COMARCA; BARBACENA-PJ-05PJ 4.453,07 267,18 0,00 0,00 0,00 0,00 4.720,25 561,33 309,10 0,00 870,43 3.849,82 884,00 390,35 30/06/2017
896 469000 EWERTON CARDOSO DE SA RODRIGUES ANALISTA DO MP ATIVO CAMPO BELO - COMARCA; CAMPO BELO-PJ-01PJ 8.594,48 859,45 0,00 4.726,97 0,00 0,00 14.180,90 1.122,87 1.340,22 0,00 2.463,09 11.717,81 1.809,20 873,68 30/06/2017
897 368900 FABIANA BARBOSA SIQUEIRA OFICIAL DO MP ATIVO BELO HORIZONTE - COMARCA; CAO-ORDEM ECONOMICA E TRIBUTARIA-SECRETARIA 6.753,72 1.350,74 0,00 4.052,23 0,00 0,00 12.156,69 964,37 1.062,07 0,00 2.026,44 10.130,25 923,13 662,56 30/06/2017
898 273800 FABIANA CARNEIRO AMORIM COORDENADOR/OFICIAL ATIVO BELO HORIZONTE - COMARCA; BH-23PJ CIVEL-COORD ADM CIVEL 0,00 2.017,54 10.087,71 6.052,63 0,00 0,00 18.157,88 1.154,55 2.062,69 0,00 3.217,24 14.940,64 884,00 1.062,84 30/06/2017
899 519300 FABIANA DE OLIVEIRA LOUREIRO ANALISTA DO MP ATIVO BELO HORIZONTE - COMARCA; BH-09PJ AUDITORIA MILITAR 7.806,95 780,70 0,00 0,00 0,00 0,00 8.587,65 1.022,04 1.232,47 0,00 2.254,51 6.333,14 1.583,00 703,66 30/06/2017
900 363400 FABIANA DOURADO DUPIN VIEGAS ANALISTA DO MP ATIVO BELO HORIZONTE - COMARCA; GABINETE DE PROCURADOR DE JUSTIÇA - SALA 705 11.105,40 2.221,08 0,00 6.663,24 0,00 0,00 19.989,72 1.580,17 2.340,16 0,00 3.920,33 16.069,39 1.583,00 1.068,28 30/06/2017
901 410800 FABIANA DUARTE QUITITE ANALISTA DO MP ATIVO BELO HORIZONTE - COMARCA; EXTINTA-MEIO AMB PATRIM HIST CULTURAL-15PJGAB 9.461,59 946,16 0,00 5.203,88 0,00 0,00 15.611,63 1.308,51 1.808,94 0,00 3.117,45 12.494,18 884,00 1.487,71 30/06/2017
902 419500 FABIANA EULALIA DOS SANTOS ANALISTA DO MP ATIVO SÃO JOÃO DEL REI - COMARCA; SAO JOAO DEL REI-PJ-01PJ 9.461,59 946,16 0,00 3.792,48 0,00 0,00 14.200,23 1.242,21 1.677,94 0,00 2.920,15 11.280,08 884,00 885,00 30/06/2017
903 376300 FABIANA MATTOSO LEMOS ANALISTA DO MP ATIVO BELO HORIZONTE - COMARCA; COORD-GERAL DAS PJS POR BACIA HIDRO. DE MG 10.416,20 1.041,62 0,00 5.728,91 0,00 0,00 17.186,73 1.376,09 1.934,94 0,00 3.311,03 13.875,70 884,00 1.052,10 30/06/2017
904 331500 FABIANA PACHECO OFICIAL DO MP ATIVO GUAXUPÉ - COMARCA; GUAXUPE-PJ-01PJ 7.322,31 1.464,46 0,00 4.393,39 0,00 0,00 13.180,16 1.044,80 1.176,93 0,00 2.221,73 10.958,43 1.583,00 711,58 30/06/2017
905 510700 FABIANA PEREIRA SANTOS BORGES ANALISTA DO MP ATIVO BELO HORIZONTE - COMARCA; DIRETORIA DE SISTEMAS DE INFORMACAO 7.806,95 780,70 0,00 4.293,83 2.862,55 0,00 15.744,03 1.022,04 1.967,53 0,00 2.989,57 12.754,46 1.583,00 820,94 30/06/2017
906 181700 FABIANA SOUZA FERREIRA OFICIAL DO MP ATIVO BELO HORIZONTE - COMARCA; BH-19PJ SAUDE-SECRETARIA 150PJ 5.226,73 1.568,02 0,00 3.397,38 0,00 0,00 10.192,13 813,04 689,38 0,00 1.502,42 8.689,71 1.583,00 596,58 30/06/2017
907 272900 FABIANA STOCKLER LEITE OFICIAL DO MP ATIVO LAJINHA - COMARCA; LAJINHA-PJ-SECRETARIA 8.061,11 3.224,44 0,00 5.642,78 0,00 0,00 16.928,33 1.340,41 1.788,50 0,00 3.128,91 13.799,42 2.021,88 900,06 30/06/2017
908 225500 FABIANE DE FATIMA PORTELLA ANALISTA DO MP ATIVO BELO HORIZONTE - COMARCA; COORD ESTADUAL DE DEFESA DA EDUCACAO 14.297,05 4.289,12 0,00 9.293,09 0,00 0,00 27.879,26 2.217,14 3.679,60 0,00 5.896,74 21.982,52 915,39 1.569,72 30/06/2017
909 433800 FABIANE DINIZ MATTOS ANALISTA DO MP ATIVO BELO HORIZONTE - COMARCA; BH-23PJ INFRACIONAL-ASS JURIDICA 9.461,59 946,16 0,00 5.203,88 0,00 0,00 15.611,63 1.244,71 1.677,94 0,00 2.922,65 12.688,98 2.981,00 907,76 30/06/2017
910 455000 FABIANO CARVALHO DA SILVA ANALISTA DO MP ATIVO LAVRAS - COMARCA; COORD REG DO MA DA BACIA DO RIO GRANDE 8.594,48 859,45 0,00 4.726,97 0,00 0,00 14.180,90 1.122,87 1.444,49 0,00 2.567,36 11.613,54 884,00 754,00 30/06/2017
911 498800 FABIANO FURTADO PESSOA COELHO ANALISTA DO MP ATIVO BELO HORIZONTE - COMARCA; DIRETORIA DE REDES E BANCOS DE DADOS 7.806,95 780,70 0,00 4.293,83 0,00 0,00 12.881,48 1.022,04 1.180,33 0,00 2.202,37 10.679,11 1.583,00 703,66 30/06/2017
912 394600 FABIANO PALHARES SILVA ANALISTA DO MP ATIVO BELO HORIZONTE - COMARCA; CENTRAL DE APOIO TECN-SETOR DE MEIO AMBIENTE 10.416,20 1.041,62 0,00 5.728,91 0,00 0,00 17.186,73 1.360,88 1.882,80 0,00 3.243,68 13.943,05 1.583,00 913,80 30/06/2017
913 444400 FABIANO SARAIVA MEDEIROS ANALISTA DO MP ATIVO BETIM - COMARCA; BETIM-PJ-11PJ 9.163,30 916,33 0,00 5.039,82 0,00 0,00 15.119,45 1.219,12 1.493,35 0,00 2.712,47 12.406,98 1.583,00 1.007,74 30/06/2017
914 408700 FABIANO SOARES PORTILHO ANALISTA DO MP ATIVO VIÇOSA - COMARCA; VICOSA-PJ-02PJ 9.461,59 946,16 0,00 5.203,88 0,00 0,00 15.611,63 1.242,21 1.677,94 0,00 2.920,15 12.691,48 884,00 885,00 30/06/2017
915 442600 FABIO CARVALHO VIEIRA ANALISTA DO MP ATIVO MONTES CLAROS - COMARCA; MONTES CLAROS-PJ-06PJ 7.322,31 732,23 0,00 4.027,27 0,00 0,00 12.081,81 962,50 1.101,99 0,00 2.064,49 10.017,32 884,00 695,44 30/06/2017
916 123700 FABIO JOSE ANDRADE NOGUEIRA OFICIAL DO MP ATIVO FORMIGA - COMARCA; FORMIGA-PJ-SECRETARIA 8.594,48 6.875,58 0,00 7.735,03 0,00 0,00 23.205,09 1.851,11 1.590,30 0,00 3.441,41 19.763,68 884,00 1.358,28 30/06/2017
917 240101 FABIO JUNQUEIRA DE ASSIS FONSECA OFICIAL DO MP ATIVO BELO HORIZONTE - COMARCA; BH-17PJ PATRIMONIO PUBLICO-SECRETARIA 5.941,34 1.188,27 0,00 3.564,81 0,00 0,00 10.694,42 850,96 875,61 0,00 1.726,57 8.967,85 884,00 606,24 30/06/2017
918 271500 FABIO LUIZ VIEIRA OFICIAL DO MP ATIVO SANTA VITÓRIA - COMARCA; SANTA VITORIA-PJ-UNPJ 7.806,95 1.561,39 0,00 4.684,17 0,00 0,00 14.052,51 1.122,42 1.319,27 0,00 2.441,69 11.610,82 1.206,56 835,52 30/06/2017
919 213100 FABIO PRATES GONCALVES ASSESSOR ATIVO BELO HORIZONTE - COMARCA; DIRETORIA DE RELACOES PUBLICAS E CERIMONIAL 0,00 2.662,30 8.874,34 5.768,32 3.845,55 0,00 21.150,51 608,44 3.280,11 0,00 3.888,55 17.261,96 1.583,00 798,30 30/06/2017
920 436700 FABIO SANTIAGO DE CARVALHO OFICIAL DO MP ATIVO POÇO FUNDO - COMARCA; POCO FUNDO-PJ-UNPJ 6.334,59 633,46 0,00 3.484,03 0,00 0,00 10.452,08 827,63 836,07 0,00 1.663,70 8.788,38 884,00 555,72 30/06/2017
921 208400 FABIOLA DE SOUSA CARDOSO ASSESSOR/ANALISTA ATIVO BELO HORIZONTE - COMARCA; ASSESS TECNICA DA CORREGEDORIA-GERAL DO MP 16.063,25 6.970,05 0,00 11.516,65 0,00 0,00 34.549,95 2.498,73 4.833,11 0,00 7.331,84 27.218,11 884,00 2.022,32 30/06/2017
922 392200 FABIOLA LEROY COSTA ANALISTA DO MP ATIVO ESMERALDAS - COMARCA; ESMERALDAS-PJ-01PJ 8.594,48 859,45 0,00 0,00 0,00 0,00 9.453,93 1.131,23 1.444,49 0,00 2.575,72 6.878,21 884,00 838,65 30/06/2017
923 409000 FABIOLA MONTEIRO DE CARVALHO CASTRO ANALISTA DO MP ATIVO BOM SUCESSO - COMARCA; BOM SUCESSO-PJ-UNPJ 8.594,48 859,45 0,00 4.726,97 0,00 0,00 14.180,90 1.131,23 1.444,49 0,00 2.575,72 11.605,18 884,00 830,06 30/06/2017
924 227900 FABIOLA PIMENTA DE CARVALHO OFICIAL DO MP ATIVO MONTES CLAROS - COMARCA; COORD REG BACIA RIOS VERDE GRANDE E PARDO 8.061,11 2.418,33 0,00 5.239,72 0,00 0,00 15.719,16 1.237,52 1.695,48 0,00 2.933,00 12.786,16 884,00 770,88 30/06/2017
925 525800 FABRICIA ALVES DANTAS OFICIAL DO MP ATIVO MONTES CLAROS - COMARCA; MONTES CLAROS-PJ-01PJ 5.396,93 539,69 0,00 2.968,31 0,00 0,00 8.904,93 703,21 479,35 0,00 1.182,56 7.722,37 884,00 456,24 30/06/2017
926 263400 FABRICIA PINTO TEIXEIRA SANTIAGO OFICIAL DO MP ATIVO BELO HORIZONTE - COMARCA; CAO-TS-TERCEIRO SETOR-SECRETARIA 9.163,30 1.832,66 0,00 5.497,98 0,00 0,00 16.493,94 1.350,11 1.717,63 0,00 3.067,74 13.426,20 884,00 1.292,01 30/06/2017
927 420800 FABRICIO BERNARDES DE OLIVEIRA OFICIAL DO MP ATIVO ITURAMA - COMARCA; ITURAMA-PJ-02PJ 6.334,59 633,46 0,00 3.484,03 0,00 0,00 10.452,08 827,63 783,93 0,00 1.611,56 8.840,52 950,00 555,72 30/06/2017
928 474000 FABRICIO DE FREITAS SALES ANALISTA DO MP ATIVO MONTES CLAROS - COMARCA; COORD REG PATRI PUB ORD TRIB-NORTE MINAS 8.594,48 859,45 0,00 4.726,97 0,00 0,00 14.180,90 1.122,87 1.444,49 0,00 2.567,36 11.613,54 1.583,00 754,00 30/06/2017
929 510100 FABRICIO FURTADO ASSIS DO CARMO ANALISTA DO MP ATIVO BELO HORIZONTE - COMARCA; SERVICO MEDICO-DEPTO PERIC MEDICA SAUDE OCUP 7.806,95 780,70 0,00 3.503,38 0,00 0,00 12.091,03 1.022,05 1.458,62 0,00 2.480,67 9.610,36 884,00 2.429,18 30/06/2017
930 519600 FABRICIO GONTIJO SALVATI ANALISTA DO MP ATIVO JUIZ DE FORA - COMARCA; JUIZ DE FORA-CAO ESPECIALIZADO-SECRETARIA 7.806,95 780,70 0,00 4.293,83 0,00 0,00 12.881,48 1.022,04 1.232,47 0,00 2.254,51 10.626,97 884,00 703,66 30/06/2017
931 637400 FABRICIO HENRIQUE DA SILVA PASSOS ANALISTA DO MP ATIVO BELO HORIZONTE - COMARCA; DIRETORIA DE PUBLICIDADE INSTITUCIONAL 6.753,72 0,00 0,00 3.376,86 0,00 0,00 10.130,58 796,73 783,61 0,00 1.580,34 8.550,24 884,00 570,83 30/06/2017
932 428200 FABRICIO ORZIL VIANA ANALISTA DO MP ATIVO SANTA LUZIA - COMARCA; SANTA LUZIA-PJ-04PJ 8.594,48 859,45 0,00 3.484,75 0,00 0,00 12.938,68 1.125,57 1.444,49 0,00 2.570,06 10.368,62 1.262,15 778,54 30/06/2017
933 455600 FABRICIO PAIVA DA ROCHA ANALISTA DO MP ATIVO SÃO JOÃO DEL REI - COMARCA; SAO JOAO DEL REI-PJ-06PJ 8.594,48 859,45 0,00 4.726,97 0,00 0,00 14.180,90 1.122,87 1.392,35 0,00 2.515,22 11.665,68 1.034,80 754,00 30/06/2017
934 511500 FABRICIO RENE CARDOSO DE PADUA ANALISTA DO MP ATIVO SÃO SEBASTIÃO DO PARAÍSO - COMARCA; SAO SEBASTIAO DO PARAISO-PJ-03PJ 7.806,95 780,70 0,00 4.293,83 0,00 0,00 12.881,48 1.022,04 1.232,47 0,00 2.254,51 10.626,97 884,00 703,66 30/06/2017
935 496100 FABRICIO RESENDE GONCALVES OFICIAL DO MP ATIVO ENTRE-RIOS DE MINAS - COMARCA; ENTRE RIOS DE MINAS-PJ-UNPJ 5.396,93 539,69 0,00 0,00 0,00 0,00 5.936,62 703,21 583,63 0,00 1.286,84 4.649,78 1.583,00 564,54 30/06/2017
936 650300 FABRICIO ROBERTO AZEVEDO OFICIAL DO MP ATIVO NOVA SERRANA - COMARCA; NOVA SERRANA-PJ-SECRETARIA 3.182,15 0,00 0,00 1.591,08 0,00 0,00 4.773,23 350,04 70,02 0,00 420,06 4.353,17 884,00 0,00 30/06/2017
937 514900 FADUA MARIA DRUMOND CHEQUER FIGUEIREDO ANALISTA DO MP ATIVO ALMENARA - COMARCA; COORD REG INCLUSAO MOBILIZ VALE JEQUITINHONHA 7.806,95 780,70 0,00 3.257,41 0,00 0,00 11.845,06 1.022,04 1.128,19 0,00 2.150,23 9.694,83 2.282,00 703,66 30/06/2017
938 282500 FANNY FERREIRA MELO FAVERO DE FRAVET OFICIAL DO MP ATIVO ARAXÁ - COMARCA; ARAXA-PJ-03PJ 6.540,78 1.308,16 0,00 3.924,47 0,00 0,00 11.773,41 936,80 1.273,35 0,00 2.210,15 9.563,26 884,00 1.473,52 30/06/2017
939 540100 FATIMA CRISTINA POVOA DA COSTA ASSESSOR/OFICIAL ATIVO BELO HORIZONTE - COMARCA; BH-18PJ VIOLENCIA DOMESTICA-SECRETARIA 0,00 2.662,30 8.874,34 5.768,32 0,00 0,00 17.304,96 688,43 2.128,10 0,00 2.816,53 14.488,43 884,00 469,32 30/06/2017
940 382800 FATIMA DE OLIVEIRA COELHO E SILVA OFICIAL DO MP ATIVO BELO HORIZONTE - COMARCA; DIRETORIA DE ADMINISTRACAO FINANCEIRA 5.226,73 1.045,35 0,00 3.136,04 0,00 0,00 9.408,12 753,29 613,59 0,00 1.366,88 8.041,24 884,00 575,92 30/06/2017
941 398601 FELIPE ANTONIO HORTA DE PAULA ANALISTA DO MP ATIVO BELO HORIZONTE - COMARCA; PROC. JUSTICA DIR. DIFUSOS E COLETIVOS-SEC 6.334,59 380,08 0,00 3.357,34 0,00 0,00 10.072,01 804,49 774,06 0,00 1.578,55 8.493,46 884,00 607,34 30/06/2017
942 430900 FELIPE BOY VIEIRA COORDENADOR/ANALISTA ATIVO BELO HORIZONTE - COMARCA; EXTINTA - DIVISAO DE TRANSPORTES 8.874,34 2.904,97 0,00 5.889,66 0,00 0,00 17.668,97 1.165,09 2.074,66 0,00 3.239,75 14.429,22 884,00 830,06 30/06/2017
943 631700 FELIPE DE MORAIS SIMOES COELHO ANALISTA DO MP ATIVO BELO HORIZONTE - COMARCA; BH-18PJ VIOLENCIA DOMESTICA 5.572,67 0,00 0,00 2.786,34 0,00 0,00 8.359,01 661,87 494,55 0,00 1.156,42 7.202,59 884,00 444,44 30/06/2017
944 549100 FELIPE FERNANDES ALVIM ANALISTA DO MP ATIVO LAJINHA - COMARCA; LAJINHA-PJ-UNPJ 6.334,59 380,08 0,00 3.357,34 0,00 0,00 10.072,01 804,49 774,06 0,00 1.578,55 8.493,46 884,00 697,11 30/06/2017
945 487300 FELIPE FERNANDES SILVEIRA ASSESSOR ATIVO BELO HORIZONTE - COMARCA; DIVISAO DE MANUTENCAO PREDIAL 0,00 0,00 2.625,65 0,00 36,59 0,00 2.662,24 411,42 115,42 0,00 526,84 2.135,40 884,00 230,54 30/06/2017
946 620100 FELIPE GOMES DE AZEVEDO OFICIAL DO MP ATIVO BELO HORIZONTE - COMARCA; BH-18PJ VIOLENCIA DOMESTICA-SECRETARIA 3.617,27 0,00 0,00 1.808,64 0,00 0,00 5.425,91 429,64 128,11 0,00 557,75 4.868,16 884,00 288,48 30/06/2017
947 601600 FELIPE RODRIGUES DE SIQUEIRA ANALISTA DO MP ATIVO BELO HORIZONTE - COMARCA; BH-02PJ FAMILIA 6.334,59 380,08 0,00 3.357,34 0,00 0,00 10.072,01 797,87 774,06 0,00 1.571,93 8.500,08 884,00 538,64 30/06/2017
948 628900 FELIX FERNANDO JUNIO VIEIRA ANALISTA DO MP ATIVO CAETÉ - COMARCA; CAETE-PJ-02PJ 6.134,81 0,00 0,00 2.439,99 0,00 0,00 8.574,80 728,65 580,00 0,00 1.308,65 7.266,15 884,00 489,28 30/06/2017
949 544500 FELLIPE LEMOS MARCONDES BUENO ANALISTA DO MP ATIVO SÃO SEBASTIÃO DO PARAÍSO - COMARCA; SAO SEBASTIAO DO PARAISO-PJ-04PJ 6.973,61 418,42 0,00 3.696,02 0,00 0,00 11.088,05 877,98 939,84 0,00 1.817,82 9.270,23 889,58 683,29 30/06/2017
950 612600 FERNANDA ADRIANA DE PAULA GUIDO ANALISTA DO MP ATIVO PARACATU - COMARCA; PARACATU-PJ-02PJ 6.334,59 380,08 0,00 0,00 0,00 0,00 6.714,67 797,87 774,06 0,00 1.571,93 5.142,74 884,00 628,41 30/06/2017
951 508400 FERNANDA AGANETTI MATTOS DE OLIVEIRA ANALISTA DO MP ATIVO BELO HORIZONTE - COMARCA; BH-07PJ 02 TRIBUNAL DO JURI 7.806,95 780,70 0,00 4.293,83 0,00 0,00 12.881,48 1.022,04 1.232,47 0,00 2.254,51 10.626,97 884,00 815,35 30/06/2017
952 453600 FERNANDA ALBERNAZ RABELO ANALISTA DO MP ATIVO BELO HORIZONTE - COMARCA; GABINETE DE PROCURADOR DE JUSTIÇA - SALA 616 8.594,48 859,45 0,00 4.726,97 0,00 0,00 14.180,90 1.122,87 1.444,49 0,00 2.567,36 11.613,54 884,00 754,00 30/06/2017
953 255600 FERNANDA ALINA DE ALMEIDA ANDRADE OFICIAL DO MP ATIVO BELO HORIZONTE - COMARCA; NUCLEO DE INFORMACOES E INTELIGENCIA 7.322,31 1.464,46 0,00 4.393,39 0,00 0,00 13.180,16 1.054,69 1.281,20 0,00 2.335,89 10.844,27 884,00 801,44 30/06/2017
954 443200 FERNANDA ALMEIDA LOPES ANALISTA DO MP ATIVO CONTAGEM - COMARCA; CONTAGEM-PJ-23PJ 9.163,30 916,33 0,00 5.039,82 0,00 0,00 15.119,45 1.207,65 1.545,49 0,00 2.753,14 12.366,31 1.986,19 935,91 30/06/2017
955 281100 FERNANDA ANANIAS MEIRA ANALISTA DO MP ATIVO BELO HORIZONTE - COMARCA; BH-23PJ INFRACIONAL-ASS JURIDICA 12.225,81 2.445,16 0,00 7.335,49 0,00 0,00 22.006,46 1.762,01 2.721,36 0,00 4.483,37 17.523,09 884,00 1.572,22 30/06/2017
956 539000 FERNANDA BARBOSA ALVES ANALISTA DO MP ATIVO CANÁPOLIS - COMARCA; CANAPOLIS-PJ-SECRETARIA 6.973,61 418,42 0,00 3.696,02 0,00 0,00 11.088,05 877,98 939,84 0,00 1.817,82 9.270,23 884,00 589,56 30/06/2017
957 451200 FERNANDA BLOISE PRADO OFICIAL DO MP ATIVO BELO HORIZONTE - COMARCA; NUCLEO DE NEGOCIACAO DE CONFLITOS AMBIENTAIS 5.941,34 594,13 0,00 3.267,74 0,00 0,00 9.803,21 775,13 730,20 0,00 1.505,33 8.297,88 884,00 511,29 30/06/2017
958 427900 FERNANDA BRAGA CARNEIRO BICALHO ANALISTA DO MP ATIVO PEÇANHA - COMARCA; PECANHA-PJ-SECRETARIA 8.594,48 859,45 0,00 4.726,97 3.151,31 0,00 17.332,21 1.131,23 2.206,83 0,00 3.338,06 13.994,15 1.583,00 830,06 30/06/2017
959 507100 FERNANDA CABRINI VAZ MOTA ANALISTA DO MP ATIVO BELO HORIZONTE - COMARCA; BH-14PJ DEFESA CONSUMIDOR-GAB 005PJ 7.806,95 780,70 0,00 4.293,83 0,00 0,00 12.881,48 1.022,04 1.232,47 0,00 2.254,51 10.626,97 884,00 703,66 30/06/2017
960 259800 FERNANDA CALZAVARA DE SOUSA COORDENADOR/OFICIAL ATIVO BELO HORIZONTE - COMARCA; DIRET DE FORMACAO, APERFEIC. E POS-GRADUACAO 0,00 2.293,40 11.466,98 6.880,19 0,00 0,00 20.640,57 1.306,22 2.582,12 0,00 3.888,34 16.752,23 884,00 1.208,16 30/06/2017
961 494400 FERNANDA CAMPOS BARATA OFICIAL DO MP ATIVO JUIZ DE FORA - COMARCA; JUIZ DE FORA-PJ-08PJ 4.245,74 424,57 0,00 2.335,16 1.556,77 0,00 8.562,24 555,83 701,81 0,00 1.257,64 7.304,60 1.419,90 382,68 30/06/2017
962 555600 FERNANDA CAROLINE RIBEIRO ANALISTA DO MP ATIVO BELO HORIZONTE - COMARCA; EXTINTA - DIRETORIA DE CONTRATOS E CONVÊNIOS 6.334,59 380,08 0,00 3.357,34 0,00 0,00 10.072,01 801,43 774,06 0,00 1.575,49 8.496,52 884,00 570,96 30/06/2017
963 294500 FERNANDA COSTA FLORES OFICIAL DO MP ATIVO PARÁ DE MINAS - COMARCA; PARA DE MINAS-PJ-04PJ 8.061,11 1.612,22 0,00 4.836,67 0,00 0,00 14.510,00 1.161,78 1.498,19 0,00 2.659,97 11.850,03 884,00 888,24 30/06/2017
964 344500 FERNANDA CRISTINA DE SOUZA PAZ ASSESSOR ATIVO BELO HORIZONTE - COMARCA; CENTRAL DE APOIO TECN-SETOR DE MEIO AMBIENTE 0,00 0,00 4.383,93 2.191,97 1.525,46 0,00 8.101,36 608,44 727,23 0,00 1.335,67 6.765,69 1.583,00 384,90 30/06/2017
965 538100 FERNANDA CRISTINA DOS SANTOS ROSA MOREIRA OFICIAL DO MP ATIVO RIBEIRÃO DAS NEVES - COMARCA; RIBEIRAO DAS NEVES-PJ-09PJ 4.453,07 1.335,92 0,00 0,00 0,00 0,00 5.788,99 684,45 547,50 0,00 1.231,95 4.557,04 884,00 505,42 30/06/2017
966 337800 FERNANDA CRISTINA ROLAND CLIMACO MENDES ASSESSOR/OFICIAL ATIVO BELO HORIZONTE - COMARCA; DIRETORIA-GERAL 0,00 1.953,92 9.769,61 5.861,77 0,00 0,00 17.585,30 1.049,98 2.088,81 0,00 3.138,79 14.446,51 884,00 1.029,34 30/06/2017
967 545400 FERNANDA CUNHA GUIMARAES ANALISTA DO MP ATIVO BELO HORIZONTE - COMARCA; EXTINTA - COORD DEFESA DO DIREITO DE FAMILIA 6.973,61 418,42 0,00 3.696,02 2.464,01 0,00 13.552,06 877,98 1.617,44 0,00 2.495,42 11.056,64 887,72 589,56 30/06/2017
968 429801 FERNANDA CUNHA PINHEIRO DA SILVA ANALISTA DO MP ATIVO BELO HORIZONTE - COMARCA; SUPERINTENDENCIA DE COMUNICACAO INTEGRADA 7.806,95 780,70 0,00 3.205,27 0,00 0,00 11.792,92 1.016,04 1.232,47 0,00 2.248,51 9.544,41 884,00 752,04 30/06/2017
969 408000 FERNANDA DAS NEVES RAMOS ANALISTA DO MP ATIVO BELO HORIZONTE - COMARCA; CENTRAL DE APOIO TECNICO-SETOR CONTABIL 9.461,59 946,16 0,00 5.203,88 0,00 0,00 15.611,63 1.242,21 1.677,94 0,00 2.920,15 12.691,48 1.583,00 885,00 30/06/2017
970 496000 FERNANDA DE ALMEIDA VIANA ASSESSOR/ANALISTA ATIVO BELO HORIZONTE - COMARCA; PROC JUST RECURSOS ESP E EXTRAORD CRIMINAIS 0,00 887,43 8.874,34 4.880,89 0,00 0,00 14.642,66 1.022,04 1.555,35 0,00 2.577,39 12.065,27 884,00 825,90 30/06/2017
971 266700 FERNANDA DE CASTRO LUCAS ASSESSOR/OFICIAL ATIVO BELO HORIZONTE - COMARCA; DIRETORIA-GERAL 0,00 1.953,92 9.769,61 5.861,77 0,00 0,00 17.585,30 1.307,70 2.021,98 0,00 3.329,68 14.255,62 884,00 1.029,34 30/06/2017
972 433200 FERNANDA DE FIGUEIREDO NORTE ANALISTA DO MP ATIVO BELO HORIZONTE - COMARCA; ASSESS JUR DO CONS SUPERIOR DO MINISTERIO PUB 9.461,59 946,16 0,00 5.203,88 0,00 0,00 15.611,63 1.242,21 1.573,66 0,00 2.815,87 12.795,76 2.459,00 885,00 30/06/2017
973 419200 FERNANDA DE MIRANDA MARTINS SIMOES ANALISTA DO MP ATIVO UBERLÂNDIA - COMARCA; UBERLANDIA-PJ-11PJ 9.461,59 946,16 0,00 5.203,88 0,00 0,00 15.611,63 1.246,96 1.677,94 0,00 2.924,90 12.686,73 884,00 928,21 30/06/2017
974 441400 FERNANDA DE MORAIS PINTO ANALISTA DO MP ATIVO BELO HORIZONTE - COMARCA; PROC. JUSTICA DIR. DIFUSOS E COLETIVOS-SEC 9.163,30 916,33 0,00 5.039,82 0,00 0,00 15.119,45 1.214,93 1.597,63 0,00 2.812,56 12.306,89 884,00 1.108,05 30/06/2017
975 432200 FERNANDA DE MOURA GUIMARAES ANALISTA DO MP ATIVO BELO HORIZONTE - COMARCA; ASSESS TECNICO-JUR JUNTO AS PROC. DE JUST 9.163,30 916,33 0,00 5.039,82 0,00 0,00 15.119,45 1.207,65 1.597,63 0,00 2.805,28 12.314,17 1.583,00 903,60 30/06/2017
976 461800 FERNANDA DE OLIVEIRA SANTOS ANALISTA DO MP ATIVO JUIZ DE FORA - COMARCA; JUIZ DE FORA-PJ-21PJ 8.594,48 859,45 0,00 4.726,97 0,00 0,00 14.180,90 1.122,87 1.444,49 0,00 2.567,36 11.613,54 1.583,00 754,00 30/06/2017
977 432500 FERNANDA DE PAULA ABRANTES ANALISTA DO MP ATIVO BELO HORIZONTE - COMARCA; PROC JUST RECURSOS ESP E EXTRAORD CRIMINAIS 9.163,30 916,33 0,00 5.039,82 0,00 0,00 15.119,45 1.214,93 1.597,63 0,00 2.812,56 12.306,89 1.141,13 1.108,05 30/06/2017
978 431600 FERNANDA DIAS BARBOSA PEREIRA ANALISTA DO MP ATIVO OURO BRANCO - COMARCA; OURO BRANCO-PJ-UNPJ 9.163,30 916,33 0,00 0,00 0,00 0,00 10.079,63 1.207,65 1.493,35 0,00 2.701,00 7.378,63 1.583,00 898,95 30/06/2017
979 162200 FERNANDA FERNANDES MONTEIRO ASSESSOR ATIVO BELO HORIZONTE - COMARCA; CAO-DH APOIO COMUNITARIO-SEC ADM 0,00 1.753,57 4.383,93 3.068,75 0,00 0,00 9.206,25 608,44 842,09 0,00 1.450,53 7.755,72 884,00 782,74 30/06/2017
980 512800 FERNANDA FERREIRA BARBOSA MOREIRA ANALISTA DO MP ATIVO IPATINGA - COMARCA; IPATINGA-PJ-05PJ 7.806,95 780,70 0,00 4.293,83 0,00 0,00 12.881,48 1.022,04 1.232,47 0,00 2.254,51 10.626,97 2.188,80 703,66 30/06/2017
981 329200 FERNANDA GABRIEL GUZELLA OFICIAL DO MP ATIVO BELO HORIZONTE - COMARCA; DIRET DE PLANOS PROJETOS E PROGRAMAS INST 7.200,69 1.440,14 0,00 4.320,42 0,00 0,00 12.961,25 1.035,26 1.245,48 0,00 2.280,74 10.680,51 884,00 770,63 30/06/2017
982 324200 FERNANDA GEORGIA NEVES ZAHAN OFICIAL DO MP ATIVO IPANEMA - COMARCA; IPANEMA-PJ-UNPJ 6.334,59 4.434,22 0,00 5.384,41 0,00 0,00 16.153,22 1.285,29 1.766,31 0,00 3.051,60 13.101,62 884,00 915,68 30/06/2017
983 548200 FERNANDA GONCALVES DE CARVALHO ZUZA OFICIAL DO MP ATIVO TUPACIGUARA - COMARCA; TUPACIGUARA-PJ-UNPJ 3.735,01 224,10 0,00 1.674,94 0,00 0,00 5.634,05 474,35 173,74 0,00 648,09 4.985,96 884,00 353,10 30/06/2017
984 355400 FERNANDA HELENA BASQUES OFICIAL DO MP ATIVO SABARÁ - COMARCA; SABARA-PJ-01PJ 6.753,72 1.350,74 0,00 4.052,23 0,00 0,00 12.156,69 970,89 1.114,21 0,00 2.085,10 10.071,59 884,00 721,86 30/06/2017
985 454800 FERNANDA IATAROLA BARBOSA DIAS ANALISTA DO MP ATIVO BARBACENA - COMARCA; BARBACENA-PJ-05PJ 8.594,48 859,45 0,00 4.726,97 0,00 0,00 14.180,90 1.122,87 1.392,35 0,00 2.515,22 11.665,68 884,00 873,68 30/06/2017
986 515500 FERNANDA LILIANE MARUGEIRO ANALISTA DO MP ATIVO BELO HORIZONTE - COMARCA; BH-18PJ VIOLENCIA DOMESTICA-SECRETARIA 7.806,95 780,70 0,00 4.293,83 2.862,55 0,00 15.744,03 1.022,04 1.967,53 0,00 2.989,57 12.754,46 1.583,00 703,66 30/06/2017
987 392900 FERNANDA MAGALHAES SILVA COORDENADOR/ANALISTA ATIVO BELO HORIZONTE - COMARCA; DIRETORIA DE IMPRENSA 10.416,20 3.335,03 0,00 6.875,62 0,00 0,00 20.626,85 1.376,09 2.565,63 0,00 3.941,72 16.685,13 884,00 1.295,28 30/06/2017
988 409200 FERNANDA MAIA SANTIAGO ANALISTA DO MP ATIVO PIRAPORA - COMARCA; PIRAPORA-PJ-02PJ 8.061,11 806,11 0,00 4.433,61 0,00 0,00 13.300,83 1.053,19 1.300,89 0,00 2.354,08 10.946,75 1.583,00 819,43 30/06/2017
989 556500 FERNANDA OTERO COSTA ANALISTA DO MP ATIVO BELO HORIZONTE - COMARCA; ASSESS TECNICO-JUR JUNTO AS PROC. DE JUST 6.973,61 418,42 0,00 3.696,02 0,00 0,00 11.088,05 872,38 939,84 0,00 1.812,22 9.275,83 884,00 538,64 30/06/2017
990 615300 FERNANDA PATRICIA RIBEIRO MOTA OFICIAL DO MP ATIVO UBERABA - COMARCA; UBERABA-PJ-05PJ 3.617,27 217,04 0,00 1.917,16 0,00 0,00 5.751,47 458,31 157,08 0,00 615,39 5.136,08 884,00 332,15 30/06/2017
991 619800 FERNANDA PINTO PEREIRA ANALISTA DO MP ATIVO UBERLÂNDIA - COMARCA; UBERLANDIA-PJ-20PJ 6.134,81 0,00 0,00 3.067,41 0,00 0,00 9.202,22 728,65 632,13 0,00 1.360,78 7.841,44 981,86 489,28 30/06/2017
992 412900 FERNANDA PORTELA ROSA ANALISTA DO MP ATIVO BELO HORIZONTE - COMARCA; BH-08PJ JUIZADO ESPECIAL-SECRETARIA 9.461,59 946,16 0,00 3.792,48 0,00 0,00 14.200,23 1.308,51 1.808,94 0,00 3.117,45 11.082,78 884,00 1.487,71 30/06/2017
993 274301 FERNANDA QUEIROZ PARREIRA ANALISTA DO MP ATIVO PATOS DE MINAS - COMARCA; COORD REG PJ DEF EDU DIR CRI ADO AL PAR NOROE 7.640,66 780,70 0,00 4.293,83 0,00 0,00 12.715,19 1.022,04 1.186,74 0,00 2.208,78 10.506,41 884,00 703,66 30/06/2017
994 467900 FERNANDA QUEIROZ SIMOES GANNAM ANALISTA DO MP ATIVO SÃO LOURENÇO - COMARCA; SAO LOURENCO-PJ-02PJ 8.594,48 859,45 0,00 4.726,97 0,00 0,00 14.180,90 1.122,87 1.392,35 0,00 2.515,22 11.665,68 1.583,00 754,00 30/06/2017
995 649300 FERNANDA SILVA MILAGRES OFICIAL DO MP ATIVO ERVÁLIA - COMARCA; ERVALIA-PJ-SECRETARIA 2.629,73 0,00 0,00 0,00 0,00 0,00 2.629,73 350,04 28,18 0,00 378,22 2.251,51 884,00 0,00 30/06/2017
996 255500 FERNANDA SIMOES LOPES MENDES ANALISTA DO MP ATIVO BELO HORIZONTE - COMARCA; BH-17PJ PATRIMONIO PUBLICO-SECRETARIA 13.034,76 2.606,95 0,00 7.820,86 0,00 0,00 23.462,57 1.866,89 2.854,67 0,00 4.721,56 18.741,01 1.583,00 1.330,06 30/06/2017
997 481700 FERNANDA VIANA FROES DA SILVA OFICIAL DO MP ATIVO GOVERNADOR VALADARES - COMARCA; GOVERNADOR VALADARES-PJ-09PJ 5.572,67 557,27 0,00 3.064,97 0,00 0,00 9.194,91 734,43 630,94 0,00 1.365,37 7.829,54 1.583,00 546,69 30/06/2017
998 123900 FERNANDO ANTONIO FARIA ABREU DIRETOR/ANALISTA ATIVO BELO HORIZONTE - COMARCA; SUPERINTENDÊNCIA DE ENGENHARIA E ARQUITETURA 22.593,62 24.495,90 0,00 15.235,56 0,00 3.351,82 65.676,90 3.351,82 7.510,20 16.618,41 27.480,43 38.196,47 5.759,37 446,91 30/06/2017
999 416900 FERNANDO APARECIDO DA SILVA ANALISTA DO MP ATIVO BOM DESPACHO - COMARCA; BOM DESPACHO-PJ-01PJ 9.163,30 4.581,65 0,00 6.872,48 0,00 0,00 20.617,43 1.646,79 2.390,44 0,00 4.037,23 16.580,20 884,00 1.225,84 30/06/2017
1000 395900 FERNANDO AUGUSTO ETO LAGES ANALISTA DO MP ATIVO BELO HORIZONTE - COMARCA; CENTRAL DE APOIO TECN-SETOR DE MEIO AMBIENTE 10.416,20 1.041,62 0,00 5.728,91 0,00 0,00 17.186,73 1.360,88 1.934,94 0,00 3.295,82 13.890,91 884,00 913,80 30/06/2017
1001 380500 FERNANDO BONES COSTA OFICIAL DO MP ATIVO BELO HORIZONTE - COMARCA; EXTINTA - DIVISÃO DE MATERIAL PERMANENTE 5.226,73 522,67 0,00 2.289,57 0,00 0,00 8.038,97 687,95 537,81 0,00 1.225,76 6.813,21 884,00 504,80 30/06/2017
1002 500100 FERNANDO CEZAR PINTO ASSESSOR/OFICIAL ATIVO BELO HORIZONTE - COMARCA; EXTINTA - DIVISÃO DE MATERIAL PERMANENTE 0,00 887,43 8.874,34 4.880,89 0,00 0,00 14.642,66 727,00 1.577,56 0,00 2.304,56 12.338,10 1.583,00 825,90 30/06/2017
1003 346100 FERNANDO EUSTAQUIO CAMPOS UTSCH MOREIRA ANALISTA DO MP ATIVO BELO HORIZONTE - COMARCA; DIRETORIA DE REDES E BANCOS DE DADOS 11.105,40 2.221,08 0,00 6.663,24 0,00 0,00 19.989,72 1.596,66 2.235,89 0,00 3.832,55 16.157,17 884,00 1.188,52 30/06/2017
1004 103500 FERNANDO LUIZ DA SILVA JUNIOR OFICIAL DO MP ATIVO BELO HORIZONTE - COMARCA; DIVISAO DE ATENDIMENTO E CONSULTA JURIDICA 16.063,25 8.031,63 0,00 12.047,44 0,00 0,00 36.142,32 2.883,16 5.027,86 0,00 7.911,02 28.231,30 6.105,91 2.752,14 30/06/2017
1005 287300 FERNANDO MARCIO ALVES MARTINS OFICIAL DO MP ATIVO LEOPOLDINA - COMARCA; LEOPOLDINA-PJ-01PJ 6.334,59 1.266,92 0,00 3.800,76 0,00 0,00 11.402,27 902,87 834,70 0,00 1.737,57 9.664,70 884,00 606,24 30/06/2017
1006 262200 FERNANDO MARCIO RESENDE PEREIRA OFICIAL DO MP ATIVO BELO HORIZONTE - COMARCA; DIR ESTRUTURA E PROCESSOS ORGANIZACIONAIS 7.806,95 1.561,39 0,00 0,00 0,00 0,00 9.368,34 1.115,29 1.423,54 0,00 2.538,83 6.829,51 884,00 770,63 30/06/2017
1007 472900 FERNANDO RODRIGUES DE FREITAS ANALISTA DO MP ATIVO BELO HORIZONTE - COMARCA; BH-15PJ M AMB PAT HIST CULT-ASS TECNICA 8.594,48 859,45 0,00 4.726,97 0,00 0,00 14.180,90 1.122,87 1.392,35 0,00 2.515,22 11.665,68 884,00 754,00 30/06/2017
1008 421400 FERNANDO TEODORO MACIEL ANALISTA DO MP ATIVO SANTA VITÓRIA - COMARCA; SANTA VITORIA-PJ-UNPJ 8.594,48 859,45 0,00 4.726,97 0,00 0,00 14.180,90 1.131,23 1.340,22 0,00 2.471,45 11.709,45 1.909,20 830,06 30/06/2017
1009 446300 FERNANDO VITOR DE OLIVEIRA ANALISTA DO MP ATIVO MONTES CLAROS - COMARCA; COORD REG BACIA RIOS VERDE GRANDE E PARDO 9.163,30 916,33 0,00 5.039,82 0,00 0,00 15.119,45 1.207,65 1.597,63 0,00 2.805,28 12.314,17 884,00 898,95 30/06/2017
1010 639300 FILIPE ALMEIDA RODRIGUES ANALISTA DO MP ATIVO TIMÓTEO - COMARCA; TIMOTEO-04 PJ 5.572,67 0,00 0,00 2.786,34 0,00 0,00 8.359,01 660,33 495,39 0,00 1.155,72 7.203,29 884,00 433,45 30/06/2017
1011 398400 FLAVIA ALVARES GUIMARAES OFICIAL DO MP ATIVO BELO HORIZONTE - COMARCA; CGMP-DIVIS DE APOIO FISC ORIENTACAO FUNCIONAL 6.334,59 633,46 0,00 3.484,03 0,00 0,00 10.452,08 831,67 783,93 0,00 1.615,60 8.836,48 996,86 592,50 30/06/2017
1012 398200 FLAVIA ALVES DE ASSUNCAO RODRIGUES ANALISTA DO MP ATIVO DIVINÓPOLIS - COMARCA; COORD REG DO MA DA BACIA DO ALTO SAO FRANC 9.163,30 916,33 0,00 0,00 0,00 0,00 10.079,63 1.207,65 1.545,49 0,00 2.753,14 7.326,49 1.583,00 898,95 30/06/2017
1013 318500 FLAVIA BEATRIZ NUNES CRUZ VIEIRA ANALISTA DO MP ATIVO BARBACENA - COMARCA; BARBACENA-PJ-SECRETARIA 12.225,81 2.445,16 0,00 5.220,04 0,00 0,00 19.891,01 1.742,53 2.617,08 0,00 4.359,61 15.531,40 1.910,62 1.170,08 30/06/2017
1014 496500 FLAVIA CARAM BORLIDO ANALISTA DO MP ATIVO BELO HORIZONTE - COMARCA; EXTINTA - DIVISAO DE SERVICOS GERAIS 8.874,34 887,43 0,00 3.584,07 0,00 0,00 13.345,84 1.151,19 1.519,83 0,00 2.671,02 10.674,82 884,00 703,66 30/06/2017
1015 534800 FLAVIA CONDE SOARES ANALISTA DO MP ATIVO BELO HORIZONTE - COMARCA; BH-13PJ JUÍZO DE TÓXICOS-ASSESSORIA JURIDICA 6.973,61 418,42 0,00 3.696,02 0,00 0,00 11.088,05 877,98 939,84 0,00 1.817,82 9.270,23 884,00 589,56 30/06/2017
1016 219500 FLAVIA CRISTINA ANCELMO OFICIAL DO MP ATIVO BELO HORIZONTE - COMARCA; CAO-DIREITOS HUMANOS E APOIO COMUNITARIO 7.806,95 2.342,09 0,00 5.074,52 0,00 0,00 15.223,56 1.211,31 1.614,62 0,00 2.825,93 12.397,63 884,00 862,98 30/06/2017
1017 329600 FLAVIA CRISTINA DE MATOS XAVIER ANALISTA DO MP ATIVO UBERABA - COMARCA; UBERABA-PJ-15PJ 12.225,81 3.667,74 0,00 7.946,78 0,00 0,00 23.840,33 1.887,73 2.916,31 0,00 4.804,04 19.036,29 884,00 1.267,58 30/06/2017
1018 207600 FLAVIA DE ANDRADE MANCINI ANALISTA DO MP ATIVO BELO HORIZONTE - COMARCA; ASSESSORIA JURIDICO-ADMINISTRATIVA 16.063,25 4.818,98 0,00 10.441,12 0,00 0,00 31.323,35 2.476,55 4.085,15 0,00 6.561,70 24.761,65 1.583,00 1.631,86 30/06/2017
1019 402801 FLAVIA MARIA DE RESENDE NASCIMENTO ANALISTA DO MP ATIVO SÃO JOÃO DEL REI - COMARCA; SAO JOAO DEL REI-PJ-04PJ 7.806,95 780,70 0,00 4.293,83 0,00 0,00 12.881,48 1.022,04 1.232,47 0,00 2.254,51 10.626,97 1.583,00 703,66 30/06/2017
1020 437500 FLAVIA MARIA TORRES MARCHETTI ANALISTA DO MP ATIVO BELO HORIZONTE - COMARCA; BH-18PJ VIOLENCIA DOMESTICA 8.594,48 859,45 0,00 4.726,97 0,00 0,00 14.180,90 1.131,23 1.340,22 0,00 2.471,45 11.709,45 2.282,00 830,06 30/06/2017
1021 386000 FLAVIA NEVES BRIGIDO ASSESSOR/OFICIAL ATIVO BELO HORIZONTE - COMARCA; PROMOT ESTADUAL DE DEF PATRI CULT E TUR DE MG 0,00 887,43 8.874,34 4.880,89 0,00 0,00 14.642,66 831,67 1.604,34 0,00 2.436,01 12.206,65 884,00 592,50 30/06/2017
1022 488600 FLAVIA PEREIRA COSTA ANALISTA DO MP ATIVO BELO HORIZONTE - COMARCA; CENTRAL DE APOIO TECNICO 7.806,95 780,70 0,00 4.293,83 2.862,55 0,00 15.744,03 1.022,04 2.019,67 0,00 3.041,71 12.702,32 1.583,00 1.482,92 30/06/2017
1023 365400 FLAVIA PEREIRA DA SILVA OFICIAL DO MP ATIVO BELO HORIZONTE - COMARCA; BH-15PJ M AMB 16PJ HAB URB-SECRETARIA 7.200,69 1.440,14 0,00 4.320,42 0,00 0,00 12.961,25 1.024,59 1.245,48 0,00 2.270,07 10.691,18 884,00 673,50 30/06/2017
1024 515400 FLAVIA RODRIGUES DE OLIVEIRA E SILVA PAIVA ANALISTA DO MP ATIVO CARATINGA - COMARCA; CARATINGA-PJ-05PJ 7.806,95 780,70 0,00 3.309,55 0,00 0,00 11.897,20 1.022,04 1.023,92 0,00 2.045,96 9.851,24 1.018,03 703,66 30/06/2017
1025 621600 FLAVIA SARMENTO RODRIGUES ANALISTA DO MP ATIVO BELO HORIZONTE - COMARCA; AUDITORIA INTERNA 6.134,81 0,00 0,00 2.413,92 0,00 0,00 8.548,73 723,71 632,13 0,00 1.355,84 7.192,89 1.583,00 518,51 30/06/2017
1026 535800 FLAVIA SILVA VALADAO OFICIAL DO MP ATIVO TRÊS CORACOES - COMARCA; TRES CORACOES-PJ-04PJ 4.111,87 246,71 0,00 2.179,29 0,00 0,00 6.537,87 517,68 198,63 0,00 716,31 5.821,56 1.583,00 347,62 30/06/2017
1027 515300 FLAVIA VIEIRA OLIVEIRA GOMES ANALISTA DO MP ATIVO BELO HORIZONTE - COMARCA; PROCURADORIA-GERAL ADJUNTA ADMINISTRATIVA 7.806,95 780,70 0,00 4.293,83 0,00 0,00 12.881,48 1.022,04 1.232,47 0,00 2.254,51 10.626,97 884,00 703,66 30/06/2017
1028 377500 FLAVIANA GONCALVES DE OLIVEIRA ANALISTA DO MP ATIVO IPATINGA - COMARCA; IPATINGA-PJ-02PJ 10.416,20 1.041,62 0,00 5.728,91 0,00 0,00 17.186,73 1.360,88 1.934,94 0,00 3.295,82 13.890,91 884,00 913,80 30/06/2017
1029 273100 FLAVIANE DOS SANTOS CASTRO OFICIAL DO MP ATIVO CAXAMBU - COMARCA; CAXAMBU-PJ-SECRETARIA 7.806,95 1.561,39 0,00 3.509,27 0,00 0,00 12.877,61 1.122,42 1.319,27 0,00 2.441,69 10.435,92 884,00 835,52 30/06/2017
1030 310600 FLAVIANE NAVES ALCANTARA ASSESSOR/OFICIAL ATIVO BELO HORIZONTE - COMARCA; COMB CRIMES PRAT POR AG POL MUN-SECRETARIA 0,00 1.774,87 8.874,34 5.324,61 0,00 0,00 15.973,82 1.148,93 1.766,55 0,00 2.915,48 13.058,34 1.583,00 935,00 30/06/2017
1031 378201 FLAVIANE RIBEIRO BORGES OFICIAL DO MP ATIVO SÃO GONÇALO DO SAPUCAÍ - COMARCA; SAO GONCALO DO SAPUCAI-PJ-02PJ 4.383,93 438,39 0,00 2.411,16 0,00 0,00 7.233,48 575,56 329,54 0,00 905,10 6.328,38 884,00 410,06 30/06/2017
1032 455800 FLAVIO ANTONIO RIBEIRO OFICIAL DO MP ATIVO BELO HORIZONTE - COMARCA; GRUPO ESP PROM PROC JUST DEF PROB ADM PAT PUB 4.598,03 459,80 0,00 0,00 0,00 0,00 5.057,83 601,46 376,70 0,00 978,16 4.079,67 884,00 410,06 30/06/2017
1033 458200 FLAVIO AUGUSTO BRAGA SOARES ANALISTA DO MP ATIVO BELO HORIZONTE - COMARCA; DIRETORIA DE PROJETOS DE EDIFICACOES 9.163,30 916,33 0,00 5.039,82 0,00 0,00 15.119,45 1.248,40 1.597,63 0,00 2.846,03 12.273,42 1.130,36 1.286,62 30/06/2017
1034 516500 FLAVIO AUGUSTO RODRIGUES CORREA ANALISTA DO MP ATIVO BELO HORIZONTE - COMARCA; COORD REG BACIAS RIO VELHAS E PARAOPEBA 7.806,95 780,70 0,00 0,00 0,00 0,00 8.587,65 1.022,04 1.232,47 0,00 2.254,51 6.333,14 884,00 703,66 30/06/2017
1035 84300 FLAVIO DE FARIA BELTRAO OFICIAL DO MP ATIVO BELO HORIZONTE - COMARCA; DIRETORIA DE ADMINISTRACAO FINANCEIRA 20.277,14 14.194,00 0,00 0,00 10.157,04 0,00 44.628,18 3.351,82 9.329,49 4.000,03 16.681,34 27.946,84 884,00 0,00 30/06/2017
1036 266600 FLAVIO GUIMARAES LANA ANALISTA DO MP ATIVO BELO HORIZONTE - COMARCA; CENTRAL DE APOIO TECN-SETOR DE MEIO AMBIENTE 10.416,20 2.083,24 0,00 6.249,72 0,00 0,00 18.749,16 1.497,56 2.189,88 0,00 3.687,44 15.061,72 884,00 1.114,75 30/06/2017
1037 552600 FLAVIO HENRIQUE EVARISTO GOMES ASSESSOR/ANALISTA ATIVO BELO HORIZONTE - COMARCA; DIRETORIA DE SUPORTE E MANUTENCAO 0,00 532,46 8.874,34 4.703,40 0,00 0,00 14.110,20 804,50 1.513,83 0,00 2.318,33 11.791,87 884,00 833,69 30/06/2017
1038 640000 FLAVIO HENRIQUE PEREIRA VELOSO OFICIAL DO MP ATIVO BELO HORIZONTE - COMARCA; DIVISÃO DE FISCALIZAÇÃO DAS RELAÇÕES DE CONSU 3.285,74 0,00 0,00 2.259,65 0,00 0,00 5.545,39 392,17 299,39 0,00 691,56 4.853,83 884,00 1.621,26 30/06/2017
1039 241500 FLAVIO HENRIQUE SILVA MARTINS LAGE OFICIAL DO MP ATIVO BELO HORIZONTE - COMARCA; CAO-CRIANCAS E ADOLESCENTES-SECRETARIA 8.061,11 2.418,33 0,00 5.239,72 0,00 0,00 15.719,16 1.258,60 1.695,48 0,00 2.954,08 12.765,08 890,41 962,25 30/06/2017
1040 86700 FLAVIO LUCAS TOMAZ AGENTE DO MP ATIVO BELO HORIZONTE - COMARCA; BH-06PJ JUIZO CIVEL-SECRETARIA 6.334,59 4.434,22 0,00 5.384,41 0,00 0,00 16.153,22 1.285,29 1.265,71 0,00 2.551,00 13.602,22 884,00 915,68 30/06/2017
1041 407200 FLAVIO LUCIO MONTEIRO PENA ANALISTA DO MP ATIVO BELO HORIZONTE - COMARCA; DIRETORIA DE IMPRENSA 8.594,48 859,45 0,00 4.726,97 0,00 0,00 14.180,90 1.125,57 1.444,49 0,00 2.570,06 11.610,84 884,00 778,54 30/06/2017
1042 451700 FLAVIO MAGALHAES PEREIRA ANALISTA DO MP ATIVO BELO HORIZONTE - COMARCA; BH-12PJ JUIZO CRIMINAL-GAB 098PJ 8.594,48 859,45 0,00 4.726,97 0,00 0,00 14.180,90 1.135,42 1.444,49 0,00 2.579,91 11.600,99 1.583,00 868,09 30/06/2017
1043 481500 FLAVIO NEVES GUELBER DE MACEDO OFICIAL DO MP ATIVO SÃO JOÃO NEPOMUCENO - COMARCA; SAO JOAO NEPOMUCENO-PJ-02PJ 5.061,97 506,20 0,00 2.784,09 0,00 0,00 8.352,26 661,34 493,45 0,00 1.154,79 7.197,47 884,00 514,57 30/06/2017
1044 547500 FRANCELINO MOREIRA DA SILVA ANALISTA DO MP ATIVO BELO HORIZONTE - COMARCA; BH-10PJ EXECUÇÃO PENAL-SECRETARIA 6.334,59 380,08 0,00 3.357,34 0,00 0,00 10.072,01 798,45 774,06 0,00 1.572,51 8.499,50 2.282,00 543,96 30/06/2017
1045 278100 FRANCIANE MARY DE SOUZA DOMENICI DE BRITO E CASTRO ANALISTA DO MP ATIVO BELO HORIZONTE - COMARCA; BH-12PJ JUIZO CRIMINAL-GAB 083PJ 13.228,78 2.645,76 0,00 7.937,27 0,00 0,00 23.811,81 1.887,90 2.963,80 0,00 4.851,70 18.960,11 884,00 1.288,10 30/06/2017
1046 646500 FRANCIELLE CAROLINE PEREIRA DOS SANTOS ASSESSOR ATIVO BELO HORIZONTE - COMARCA; CENT DE ATENDIMENTO E ORIENTACAO DE PESSOAL 0,00 0,00 2.625,65 1.312,83 0,00 0,00 3.938,48 404,24 82,57 0,00 486,81 3.451,67 1.583,00 165,22 30/06/2017
1047 192501 FRANCIELLE REIS DE OLIVEIRA ANALISTA DO MP ATIVO PASSOS - COMARCA; PASSOS-PJ-04PJ 12.623,91 2.524,78 0,00 7.574,35 0,00 0,00 22.723,04 1.808,06 2.734,01 0,00 4.542,07 18.180,97 884,00 1.288,10 30/06/2017
1048 645100 FRANCIELY CRISTINA COSTA TARQUINIO RIBEIRO ASSESSOR ATIVO BELO HORIZONTE - COMARCA; CHEFIA DE GABINETE 0,00 0,00 2.625,65 0,00 0,00 0,00 2.625,65 411,42 109,93 0,00 521,35 2.104,30 884,00 878,54 30/06/2017
1049 523600 FRANCINE MOURA LIMIRIO OFICIAL DO MP ATIVO UBERABA - COMARCA; UBERABA-PJ-02PJ 5.396,93 539,69 0,00 0,00 0,00 0,00 5.936,62 703,21 583,63 0,00 1.286,84 4.649,78 884,00 456,24 30/06/2017
1050 467200 FRANCINI RENNO ANALISTA DO MP ATIVO CASSIA - COMARCA; CASSIA-PJ-02PJ 8.594,48 859,45 0,00 4.726,97 0,00 0,00 14.180,90 1.122,87 1.444,49 0,00 2.567,36 11.613,54 884,00 754,00 30/06/2017
1051 189300 FRANCIS BERNARDO DO NASCIMENTO OFICIAL DO MP ATIVO VARGINHA - COMARCA; VARGINHA-PJ-05PJ 11.105,40 3.331,62 0,00 7.218,51 0,00 0,00 21.655,53 1.723,11 2.559,83 0,00 4.282,94 17.372,59 2.282,00 1.227,62 30/06/2017
1052 207800 FRANCISCO CAMPOS PIRES DE MORAIS ANALISTA DO MP ATIVO BELO HORIZONTE - COMARCA; CENTRAL DE APOIO TECN-SETOR DE MEIO AMBIENTE 16.063,25 4.818,98 0,00 10.441,12 0,00 0,00 31.323,35 2.498,73 4.137,29 0,00 6.636,02 24.687,33 1.719,29 1.910,03 30/06/2017
1053 607700 FRANCISCO EDUARDO DE CASTRO ANALISTA DO MP ATIVO BELO HORIZONTE - COMARCA; DIR ANALISES TECNOLOGIA INTELIGENCIA 6.334,59 380,08 0,00 3.357,34 0,00 0,00 10.072,01 797,87 774,06 0,00 1.571,93 8.500,08 884,00 628,41 30/06/2017
1054 204600 FRANCISCO FERREIRA NOVAIS OFICIAL DO MP ATIVO IPATINGA - COMARCA; IPATINGA-PJ-08PJ 9.163,30 3.665,32 0,00 6.414,31 0,00 0,00 19.242,93 1.537,00 2.166,17 0,00 3.703,17 15.539,76 884,00 1.144,11 30/06/2017
1055 60500 FRANCISCO OLIMPIO TEIXEIRA AGENTE DO MP ATIVO BELO HORIZONTE - COMARCA; OUVIDORIA DO MPMG 5.226,73 4.704,05 0,00 4.965,39 0,00 1.279,67 16.175,84 1.383,81 2.173,41 0,00 3.557,22 12.618,62 884,00 2.753,40 30/06/2017
1056 411600 FRANCISCO PAIVA BRITO ANALISTA DO MP ATIVO BELO HORIZONTE - COMARCA; BH-07PJ 01 TRIBUNAL DO JURI 8.594,48 859,45 0,00 4.726,97 3.151,31 0,00 17.332,21 1.125,57 2.311,10 0,00 3.436,67 13.895,54 884,00 778,54 30/06/2017
1057 515800 FRANCISCO RAFAEL DA SILVA NETO ANALISTA DO MP ATIVO SACRAMENTO - COMARCA; SACRAMENTO-PJ-01PJ 6.540,78 654,08 0,00 3.597,43 0,00 0,00 10.792,29 856,29 735,17 0,00 1.591,46 9.200,83 884,00 687,82 30/06/2017
1058 515200 FRANCISLEI ELIAS GONCALVES OFICIAL DO MP ATIVO PASSOS - COMARCA; PASSOS-PJ-07PJ 4.598,03 1.379,41 0,00 2.988,72 0,00 0,00 8.966,16 709,12 437,21 0,00 1.146,33 7.819,83 884,00 469,18 30/06/2017
1059 443600 FRANCISLEI MARTINS DE SOUSA ANALISTA DO MP ATIVO TIMÓTEO - COMARCA; TIMOTEO-PJ-01PJ 8.594,48 859,45 0,00 4.726,97 0,00 0,00 14.180,90 1.131,23 1.444,49 0,00 2.575,72 11.605,18 1.583,00 830,06 30/06/2017
1060 424500 FREDERICO AUGUSTO COBRA MULLER ANALISTA DO MP ATIVO POUSO ALEGRE - COMARCA; POUSO ALEGRE-PJ-02PJ 8.594,48 859,45 0,00 3.484,75 0,00 0,00 12.938,68 1.131,23 1.444,49 0,00 2.575,72 10.362,96 884,00 830,06 30/06/2017
1061 473100 FREDERICO AUGUSTO LIMA FELICIO ANALISTA DO MP ATIVO CONCEIÇÃO DO MATO DENTRO - COMARCA; CONCEICAO DO MATO DENTRO-PJ-UNPJ 8.594,48 859,45 0,00 4.726,97 3.151,31 0,00 17.332,21 1.122,87 2.311,10 0,00 3.433,97 13.898,24 884,00 754,00 30/06/2017
1062 124200 FREDERICO DE SOUZA ROCHA OFICIAL DO MP ATIVO ESPINOSA - COMARCA; ESPINOSA-PJ-SECRETARIA 12.225,81 9.780,64 0,00 11.003,23 0,00 0,00 33.009,68 2.626,55 4.412,44 0,00 7.038,99 25.970,69 1.370,40 1.871,26 30/06/2017
1063 177100 FREDERICO FERNANDES DE ANDRADE OFICIAL DO MP ATIVO BELO HORIZONTE - COMARCA; SUPERINTENDENCIA DE TECNOLOGIA DA INFORMACAO 9.461,59 2.838,48 0,00 6.150,04 0,00 0,00 18.450,11 1.473,68 2.141,08 0,00 3.614,76 14.835,35 884,00 1.096,97 30/06/2017
1064 456200 FREDERICO FERNANDES PASSOS ANALISTA DO MP ATIVO BELO HORIZONTE - COMARCA; DIRETORIA DE REDES E BANCOS DE DADOS 9.163,30 916,33 0,00 5.039,82 0,00 0,00 15.119,45 1.248,40 1.597,63 0,00 2.846,03 12.273,42 884,00 1.286,62 30/06/2017
1065 400900 FREDERICO LUCIANO BORGES REIS ANALISTA DO MP ATIVO BELO HORIZONTE - COMARCA; DIRETORIA DE SISTEMAS DE INFORMACAO 9.461,59 946,16 0,00 5.203,88 0,00 0,00 15.611,63 1.246,96 1.677,94 0,00 2.924,90 12.686,73 884,00 928,21 30/06/2017
1066 466200 FREDERICO LUIS FERNANDES ANALISTA DO MP ATIVO BELO HORIZONTE - COMARCA; BH-12PJ JUIZO CRIMINAL-GAB 097PJ 8.594,48 859,45 0,00 4.726,97 0,00 0,00 14.180,90 1.122,87 1.392,35 0,00 2.515,22 11.665,68 884,00 754,00 30/06/2017
1067 419700 FREDERICO MECKLER SANTOS ANALISTA DO MP ATIVO CLÁUDIO - COMARCA; CLAUDIO-PJ-UNPJ 9.163,30 916,33 0,00 5.039,82 0,00 0,00 15.119,45 1.207,65 1.545,49 0,00 2.753,14 12.366,31 884,00 898,95 30/06/2017
1068 257100 FULVIA HERONVILLE DA SILVA OFICIAL DO MP ATIVO BELO HORIZONTE - COMARCA; COORD DE CONTROLE DA CONSTITUCIONALIDADE 8.061,11 1.612,22 0,00 3.581,60 0,00 0,00 13.254,93 1.154,55 1.446,05 0,00 2.600,60 10.654,33 884,00 822,56 30/06/2017
1069 621700 GABRIEL ANDRADE SOUZA GROSSI RIBEIRO OFICIAL DO MP ATIVO BETIM - COMARCA; BETIM-PJ-SECRETARIA 3.617,27 0,00 0,00 1.808,64 1.205,76 0,00 6.631,67 429,64 359,52 0,00 789,16 5.842,51 884,00 336,56 30/06/2017
1070 613600 GABRIEL BASTOS MEIRELES ANALISTA DO MP ATIVO BELO HORIZONTE - COMARCA; BH-16PJ HABITACAO E URBANISMO 5.754,07 345,24 0,00 3.049,66 0,00 0,00 9.148,97 724,74 623,45 0,00 1.348,19 7.800,78 884,00 489,28 30/06/2017
1071 629500 GABRIEL TEIXEIRA DE OLIVEIRA ANALISTA DO MP ATIVO UBERLÂNDIA - COMARCA; UBERLANDIA-PJ-02PJ 6.134,81 0,00 0,00 0,00 0,00 0,00 6.134,81 728,65 632,13 0,00 1.360,78 4.774,03 884,00 489,28 30/06/2017
1072 617900 GABRIELA CIRILA ROQUE ANALISTA DO MP ATIVO ITABIRA - COMARCA; ITABIRA-PJ-04PJ 6.134,81 0,00 0,00 3.067,41 0,00 0,00 9.202,22 728,65 632,13 0,00 1.360,78